[[{"header":{"parameterUnit":"m.s-1","parameterCategory":1,"la1":30.6,"la2":28.766,"lo1":-90.7593,"lo2":-88.6598,"dy":0.0162,"dx":0.0183,"nx":116,"ny":114,"refTime":"2023-06-26T06:00:00:Z","depth":0,"parameterNumber":2,"parameterNumberName":"U-component_of_WINDS"},"data":[0.0,0.0,0.0,0.0,0.0,0.0,0.0,0.0,0.0,0.0,0.0,0.0,0.0,0.0,0.0,0.0,0.0,0.0,0.0,0.0,0.0,0.0,0.0,0.0,0.0,0.0,0.0,0.0,0.0,0.0,0.0,0.0,0.0,0.0,0.0,0.0,0.0,0.0,0.0,0.0,0.0,0.0,0.0,0.0,0.0,0.0,0.0,0.0,0.0,0.0,0.0,0.0,0.0,0.0,0.0,0.0,0.0,0.0,0.0,0.0,0.0,0.0,0.0,0.0,0.0,0.0,0.0,0.0,0.0,0.0,0.0,0.0,0.0,0.0,0.0,0.0,0.0,0.0,0.0,0.0,0.0,0.0,0.0,0.0,0.0,0.0,0.0,0.0,0.0,0.0,0.0,0.0,0.0,0.0,0.0,0.0,0.0,0.0,0.0,0.0,0.0,0.0,0.0,0.0,0.0,0.0,0.0,0.0,0.0,0.0,0.0,0.0,0.0,0.0,0.0,0.0,0.0,0.0,0.0,0.0,0.0,0.0,0.0,0.0,0.0,0.0,0.0,0.0,0.0,0.0,0.0,0.0,0.0,0.0,0.0,0.0,0.0,0.0,0.0,0.0,0.0,0.0,0.0,0.0,0.0,0.0,0.0,0.0,0.0,0.0,0.0,0.0,0.0,0.0,0.0,0.0,0.0,0.0,0.0,0.0,0.0,0.0,0.0,0.0,0.0,0.0,0.0,0.0,0.0,0.0,0.0,0.0,0.0,0.0,0.0,0.0,0.0,0.0,0.0,0.0,0.0,0.0,0.0,0.0,0.0,0.0,0.0,0.0,0.0,0.0,0.0,0.0,0.0,0.0,0.0,0.0,0.0,0.0,0.0,0.0,0.0,0.0,0.0,0.0,0.0,0.0,0.0,0.0,0.0,0.0,0.0,0.0,0.0,0.0,0.0,0.0,0.0,0.0,0.0,0.0,0.0,0.0,0.0,0.0,0.0,0.0,0.0,0.0,0.0,0.0,0.0,0.0,0.0,0.0,0.0,0.0,0.0,0.0,0.0,0.0,0.0,0.0,0.0,0.0,0.0,0.0,0.0,0.0,0.0,0.0,0.0,0.0,0.0,0.0,0.0,0.0,0.0,0.0,0.0,0.0,0.0,0.0,0.0,0.0,0.0,0.0,0.0,0.0,0.0,0.0,0.0,0.0,0.0,0.0,0.0,0.0,0.0,0.0,0.0,0.0,0.0,0.0,0.0,0.0,0.0,0.0,0.0,0.0,0.0,0.0,0.0,0.0,0.0,0.0,0.0,0.0,0.0,0.0,0.0,0.0,0.0,0.0,0.0,0.0,0.0,0.0,0.0,0.0,0.0,0.0,0.0,0.0,0.0,0.0,0.0,0.0,0.0,0.0,0.0,0.0,0.0,0.0,0.0,0.0,0.0,0.0,0.0,0.0,0.0,0.0,0.0,0.0,0.0,0.0,0.0,0.0,0.0,0.0,0.0,0.0,0.0,0.0,0.0,0.0,0.0,0.0,0.0,0.0,0.0,0.0,0.0,0.0,0.0,0.0,0.0,0.0,0.0,0.0,0.0,0.0,0.0,0.0,0.0,0.0,0.0,0.0,0.0,0.0,0.0,0.0,0.0,0.0,0.0,0.0,0.0,0.0,0.0,0.0,0.0,0.0,0.0,0.0,0.0,0.0,0.0,0.0,0.0,0.0,0.0,0.0,0.0,0.0,0.0,0.0,0.0,0.0,0.0,0.0,0.0,0.0,0.0,0.0,0.0,0.0,0.0,0.0,0.0,0.0,0.0,0.0,0.0,0.0,0.0,0.0,0.0,0.0,0.0,0.0,0.0,0.0,0.0,0.0,0.0,0.0,0.0,0.0,0.0,0.0,0.0,0.0,0.0,0.0,0.0,0.0,0.0,0.0,0.0,0.0,0.0,0.0,0.0,0.0,0.0,0.0,0.0,0.0,0.0,0.0,0.0,0.0,0.0,0.0,0.0,0.0,0.0,0.0,0.0,0.0,0.0,0.0,0.0,0.0,0.0,0.0,0.0,0.0,0.0,0.0,0.0,0.0,0.0,0.0,0.0,0.0,0.0,0.0,0.0,0.0,0.0,0.0,0.0,0.0,0.0,0.0,0.0,0.0,0.0,0.0,0.0,0.0,0.0,0.0,0.0,0.0,0.0,0.0,0.0,0.0,0.0,0.0,0.0,0.0,0.0,0.0,0.0,0.0,0.0,0.0,0.0,0.0,0.0,0.0,0.0,0.0,0.0,0.0,0.0,0.0,0.0,0.0,0.0,0.0,0.0,0.0,0.0,0.0,0.0,0.0,0.0,0.0,0.0,0.0,0.0,0.0,0.0,0.0,0.0,0.0,0.0,0.0,0.0,0.0,0.0,0.0,0.0,0.0,0.0,0.0,0.0,0.0,0.0,0.0,0.0,0.0,0.0,0.0,0.0,0.0,0.0,0.0,0.0,0.0,0.0,0.0,0.0,0.0,0.0,0.0,0.0,0.0,0.0,0.0,0.0,0.0,0.0,0.0,0.0,0.0,0.0,0.0,0.0,0.0,0.0,0.0,0.0,0.0,0.0,0.0,0.0,0.0,0.0,0.0,0.0,0.0,0.0,0.0,0.0,0.0,0.0,0.0,0.0,0.0,0.0,0.0,0.0,0.0,0.0,0.0,0.0,0.0,0.0,0.0,0.0,0.0,0.0,0.0,0.0,0.0,0.0,0.0,0.0,0.0,0.0,0.0,0.0,0.0,0.0,0.0,0.0,0.0,0.0,0.0,0.0,0.0,0.0,0.0,0.0,0.0,0.0,0.0,0.0,0.0,0.0,0.0,0.0,0.0,0.0,0.0,0.0,0.0,0.0,0.0,0.0,0.0,0.0,0.0,0.0,0.0,0.0,0.0,0.0,0.0,0.0,0.0,0.0,0.0,0.0,0.0,0.0,0.0,0.0,0.0,0.0,0.0,0.0,0.0,0.0,0.0,0.0,0.0,0.0,0.0,0.0,0.0,0.0,0.0,0.0,0.0,0.0,0.0,0.0,0.0,0.0,0.0,0.0,0.0,0.0,0.0,0.0,0.0,0.0,0.0,0.0,0.0,0.0,0.0,0.0,0.0,0.0,0.0,0.0,0.0,0.0,0.0,0.0,0.0,0.0,0.0,0.0,0.0,0.0,0.0,0.0,0.0,0.0,0.0,0.0,0.0,0.0,0.0,0.0,0.0,0.0,0.0,0.0,0.0,0.0,0.0,0.0,0.0,0.0,0.0,0.0,0.0,0.0,0.0,0.0,0.0,0.0,0.0,0.0,0.0,0.0,0.0,0.0,0.0,0.0,0.0,0.0,0.0,0.0,0.0,0.0,0.0,0.0,0.0,0.0,0.0,0.0,0.0,0.0,0.0,0.0,0.0,0.0,0.0,0.0,0.0,0.0,0.0,0.0,0.0,0.0,0.0,0.0,0.0,0.0,0.0,0.0,0.0,0.0,0.0,0.0,0.0,0.0,0.0,0.0,0.0,0.0,0.0,0.0,0.0,0.0,0.0,0.0,0.0,0.0,0.0,0.0,0.0,0.0,0.0,0.0,0.0,0.0,0.0,0.0,0.0,0.0,0.0,0.0,0.0,0.0,0.0,0.0,0.0,0.0,0.0,0.0,0.0,0.0,0.0,0.0,0.0,0.0,0.0,0.0,0.0,0.0,0.0,0.0,0.0,0.0,0.0,0.0,0.0,0.0,0.0,0.0,0.0,0.0,0.0,0.0,0.0,0.0,0.0,0.0,0.0,0.0,0.0,0.0,0.0,0.0,0.0,0.0,0.0,0.0,0.0,0.0,0.0,0.0,0.0,0.0,0.0,0.0,0.0,0.0,0.0,0.0,0.0,0.0,0.0,0.0,0.0,0.0,0.0,0.0,0.0,0.0,0.0,0.0,0.0,0.0,0.0,0.0,0.0,0.0,0.0,0.0,0.0,0.0,0.0,0.0,0.0,0.0,0.0,0.0,0.0,0.0,0.0,0.0,0.0,0.0,0.0,0.0,0.0,0.0,0.0,0.0,0.0,0.0,0.0,0.0,0.0,0.0,0.0,0.0,0.0,0.0,0.0,0.0,0.0,0.0,0.0,0.0,0.0,0.0,0.0,0.0,0.0,0.0,0.0,0.0,0.0,0.0,0.0,0.0,0.0,0.0,0.0,0.0,0.0,0.0,0.0,0.0,0.0,0.0,0.0,0.0,0.0,0.0,0.0,0.0,0.0,0.0,0.0,0.0,0.0,0.0,0.0,0.0,0.0,0.0,0.0,0.0,0.0,0.0,0.0,0.0,0.0,0.0,0.0,0.0,0.0,0.0,0.0,0.0,0.0,0.0,0.0,0.0,0.0,0.0,0.0,0.0,0.0,0.0,0.0,0.0,0.0,0.0,0.0,0.0,0.0,0.0,0.0,0.0,0.0,0.0,0.0,0.0,0.0,0.0,0.0,0.0,0.0,0.0,0.0,0.0,0.0,0.0,0.0,0.0,0.0,0.0,0.0,0.0,0.0,0.0,0.0,0.0,0.0,0.0,0.0,0.0,0.0,0.0,0.0,0.0,0.0,0.0,0.0,0.0,0.0,0.0,0.0,0.0,0.0,0.0,0.0,0.0,0.0,0.0,0.0,0.0,0.0,0.0,0.0,0.0,0.0,0.0,0.0,0.0,0.0,0.0,0.0,0.0,0.0,0.0,0.0,0.0,0.0,0.0,0.0,0.0,0.0,0.0,0.0,0.0,0.0,0.0,0.0,0.0,0.0,0.0,0.0,0.0,0.0,0.0,0.0,0.0,0.0,0.0,0.0,0.0,0.0,0.0,0.0,0.0,0.0,0.0,0.0,0.0,0.0,0.0,0.0,0.0,0.0,0.0,0.0,0.0,0.0,0.0,0.0,0.0,0.0,0.0,0.0,0.0,0.0,0.0,0.0,0.0,0.0,0.0,0.0,0.0,0.0,0.0,0.0,0.0,0.0,0.0,0.0,0.0,0.0,0.0,0.0,0.0,0.0,0.0,0.0,0.0,0.0,0.0,0.0,0.0,0.0,0.0,0.0,0.0,0.0,0.0,0.0,0.0,0.0,0.0,0.0,0.0,0.0,0.0,0.0,0.0,0.0,0.0,0.0,0.0,0.0,0.0,0.0,0.0,0.0,0.0,0.0,0.0,0.0,0.0,0.0,0.0,0.0,0.0,0.0,0.0,0.0,0.0,0.0,0.0,0.0,0.0,0.0,0.0,0.0,0.0,0.0,0.0,0.0,0.0,0.0,0.0,0.0,0.0,0.0,0.0,0.0,0.0,0.0,0.0,0.0,0.0,0.0,0.0,0.0,0.0,0.0,0.0,0.0,0.0,0.0,0.0,0.0,0.0,0.0,0.0,0.0,0.0,0.0,0.0,0.0,0.0,0.0,0.0,0.0,0.0,0.0,0.0,0.0,0.0,0.0,0.0,0.0,0.0,0.0,0.0,0.0,0.0,0.0,0.0,0.0,0.0,0.0,0.0,0.0,0.0,0.0,0.0,0.0,0.0,0.0,0.0,0.0,0.0,0.0,0.0,0.0,0.0,0.0,0.0,0.0,0.0,0.0,0.0,0.0,0.0,0.0,0.0,0.0,0.0,0.0,0.0,0.0,0.0,0.0,0.0,0.0,0.0,0.0,0.0,0.0,0.0,0.0,0.0,0.0,0.0,0.0,0.0,0.0,0.0,0.0,0.0,0.0,0.0,0.0,0.0,0.0,0.0,0.0,0.0,0.0,0.0,0.0,0.0,0.0,0.0,0.0,0.0,0.0,0.0,0.0,0.0,0.0,0.0,0.0,0.0,0.0,0.0,0.0,0.0,0.0,0.0,0.0,0.0,0.0,0.0,0.0,0.0,0.0,0.0,0.0,0.0,0.0,0.0,0.0,0.0,0.0,0.0,0.0,0.0,0.0,0.0,0.0,0.0,0.0,0.0,0.0,0.0,0.0,0.0,0.0,0.0,0.0,0.0,0.0,0.0,0.0,0.0,0.0,0.0,0.0,0.0,0.0,0.0,0.0,0.0,0.0,0.0,0.0,0.0,0.0,0.0,0.0,-1.2422,0.0,0.0,0.0,0.0,0.0,0.0,0.0,0.0,0.0,0.0,0.0,0.0,0.0,0.0,0.0,0.0,0.0,0.0,0.0,0.0,0.0,0.0,0.0,0.0,0.0,0.0,0.0,0.0,0.0,0.0,0.0,0.0,0.0,0.0,0.0,0.0,0.0,0.0,0.0,0.0,0.0,0.0,0.0,0.0,0.0,0.0,0.0,0.0,0.0,0.0,0.0,0.0,0.0,0.0,0.0,0.0,0.0,0.0,0.0,0.0,0.0,0.0,0.0,0.0,0.0,0.0,0.0,0.0,0.0,0.0,0.0,0.0,0.0,0.0,0.0,0.0,0.0,0.0,0.0,0.0,0.0,0.0,0.0,0.0,0.0,0.0,0.0,0.0,0.0,0.0,0.0,0.0,0.0,0.0,0.0,0.0,0.0,0.0,0.0,0.0,0.0,0.0,0.0,0.0,0.0,0.0,0.0,0.0,0.0,0.0,0.0,0.0,0.0,0.0,0.0,0.0,-1.3013,0.0,0.0,0.0,0.0,0.0,0.0,0.0,0.0,0.0,0.0,0.0,0.0,0.0,0.0,0.0,0.0,0.0,0.0,0.0,0.0,0.0,0.0,0.0,0.0,0.0,0.0,0.0,0.0,0.0,0.0,0.0,0.0,0.0,0.0,0.0,0.0,0.0,0.0,0.0,0.0,0.0,0.0,0.0,0.0,0.0,0.0,0.0,0.0,0.0,0.0,0.0,0.0,0.0,0.0,0.0,0.0,0.0,0.0,0.0,0.0,0.0,0.0,0.0,0.0,0.0,0.0,0.0,0.0,0.0,0.0,0.0,0.0,0.0,0.0,0.0,0.0,0.0,0.0,0.0,0.0,0.0,0.0,0.0,0.0,0.0,0.0,0.0,0.0,0.0,0.0,0.0,0.0,0.0,0.0,0.0,0.0,0.0,0.0,0.0,0.0,0.0,0.0,0.0,0.0,0.0,0.0,0.0,0.0,-1.5885,-1.6286,-1.6526,-1.6473,-1.6794,-1.7315,-1.5872,-1.511,-1.4843,-1.4068,0.0,0.0,0.0,0.0,0.0,0.0,0.0,0.0,0.0,0.0,0.0,0.0,0.0,0.0,0.0,0.0,0.0,0.0,0.0,0.0,0.0,0.0,0.0,0.0,0.0,0.0,0.0,0.0,0.0,0.0,0.0,0.0,0.0,0.0,0.0,0.0,0.0,0.0,0.0,0.0,0.0,0.0,0.0,0.0,0.0,0.0,0.0,0.0,0.0,0.0,0.0,0.0,0.0,0.0,0.0,0.0,0.0,0.0,0.0,0.0,0.0,0.0,0.0,0.0,0.0,0.0,0.0,0.0,0.0,0.0,0.0,0.0,0.0,0.0,0.0,0.0,0.0,0.0,0.0,0.0,0.0,0.0,0.0,0.0,0.0,0.0,-1.3211,-1.261,0.0,0.0,0.0,0.0,0.0,0.0,0.0,0.0,0.0,0.0,0.0,0.0,0.0,-1.6353,-1.7716,-1.8357,-1.8557,-1.8343,-1.8945,-1.9239,-1.9265,-1.9011,-1.9359,-2.0147,-1.9907,0.0,-1.6393,-1.6019,0.0,0.0,0.0,0.0,0.0,0.0,0.0,0.0,0.0,0.0,0.0,0.0,0.0,0.0,0.0,0.0,0.0,0.0,0.0,0.0,0.0,0.0,0.0,0.0,0.0,0.0,0.0,0.0,0.0,0.0,0.0,0.0,0.0,0.0,0.0,0.0,0.0,0.0,0.0,0.0,0.0,0.0,0.0,0.0,0.0,0.0,0.0,0.0,0.0,0.0,0.0,0.0,0.0,0.0,0.0,0.0,0.0,0.0,0.0,0.0,0.0,0.0,0.0,0.0,0.0,0.0,0.0,0.0,0.0,0.0,0.0,0.0,0.0,0.0,0.0,0.0,0.0,0.0,0.0,0.0,0.0,0.0,0.0,0.0,0.0,-1.3181,-1.336,-1.1966,-1.2906,-1.3026,0.0,0.0,0.0,0.0,0.0,0.0,0.0,0.0,0.0,-1.6526,-1.7194,-1.7996,-1.8971,-1.9733,-2.0201,-2.0401,-2.0828,-2.1203,-2.1523,-2.139,-2.1601,-2.1976,-2.1976,-2.1149,-1.9813,-1.8544,-1.7068,-1.5488,0.0,0.0,0.0,0.0,-1.1637,-1.2047,0.0,0.0,0.0,0.0,0.0,0.0,0.0,0.0,0.0,0.0,0.0,0.0,0.0,0.0,0.0,0.0,0.0,0.0,0.0,0.0,0.0,0.0,0.0,0.0,0.0,0.0,0.0,0.0,0.0,0.0,0.0,0.0,0.0,0.0,0.0,0.0,0.0,0.0,0.0,0.0,0.0,0.0,0.0,0.0,0.0,0.0,0.0,0.0,0.0,0.0,0.0,0.0,0.0,0.0,0.0,0.0,0.0,0.0,0.0,0.0,0.0,0.0,0.0,0.0,0.0,0.0,0.0,0.0,0.0,0.0,0.0,0.0,0.0,0.0,0.0,0.0,0.0,-1.3488,-1.3707,-1.2091,-1.3587,-1.4001,0.0,0.0,0.0,0.0,0.0,0.0,-1.6259,-1.6714,-1.7395,-1.8412,-1.9105,-1.9746,-2.0315,-2.1069,-2.1643,-2.2004,-2.2298,-2.2712,-2.3207,-2.3207,-2.3287,-2.342,-2.3354,-2.3193,-2.2819,-2.0695,-1.9118,-1.79,-1.6074,-1.5059,-1.459,-1.3351,-1.311,-1.3515,0.0,0.0,0.0,0.0,0.0,0.0,0.0,0.0,0.0,0.0,0.0,0.0,0.0,0.0,0.0,0.0,0.0,0.0,0.0,0.0,0.0,0.0,0.0,0.0,0.0,0.0,0.0,0.0,0.0,0.0,0.0,0.0,0.0,0.0,0.0,0.0,0.0,0.0,0.0,0.0,0.0,0.0,0.0,0.0,0.0,0.0,0.0,0.0,0.0,0.0,0.0,0.0,0.0,0.0,0.0,0.0,0.0,0.0,0.0,0.0,0.0,0.0,0.0,0.0,0.0,0.0,0.0,0.0,0.0,0.0,0.0,0.0,0.0,0.0,0.0,0.0,0.0,0.0,0.0,-1.4389,-1.5658,0.0,0.0,0.0,0.0,-1.6871,-1.6509,-1.7288,-1.9767,-1.9225,-1.9693,-2.1683,-2.2058,-2.2365,-2.2753,-2.33,-2.3487,-2.3247,-2.3541,-2.3848,-2.4128,-2.4128,-2.4436,-2.4957,-2.4676,-2.4469,-2.4342,-2.1991,-1.9941,-1.8314,-1.8581,-1.773,-1.6435,-1.6654,-1.6829,-1.6821,0.0,0.0,0.0,0.0,0.0,0.0,0.0,0.0,0.0,0.0,0.0,0.0,0.0,0.0,0.0,0.0,0.0,0.0,0.0,0.0,0.0,0.0,0.0,0.0,0.0,0.0,0.0,0.0,0.0,0.0,0.0,0.0,0.0,0.0,0.0,0.0,0.0,0.0,0.0,0.0,0.0,0.0,0.0,0.0,0.0,0.0,0.0,0.0,0.0,0.0,0.0,0.0,0.0,0.0,0.0,0.0,0.0,0.0,0.0,0.0,0.0,0.0,0.0,0.0,0.0,0.0,0.0,0.0,0.0,0.0,0.0,0.0,0.0,0.0,0.0,0.0,0.0,0.0,0.0,-1.6246,-1.7689,0.0,-1.7328,-1.7502,-1.7996,-1.8798,-1.9533,-2.0521,-2.1857,-2.2178,-2.2739,-2.3661,-2.3981,-2.4275,-2.4569,-2.4596,-2.4556,-2.4449,-2.4569,-2.4569,-2.4489,-2.4676,-2.477,-2.4783,-2.4676,-2.4636,-2.4556,-2.3527,-2.2481,-2.141,-2.0278,-1.9313,-1.8502,-1.7527,-1.7023,-1.7033,0.0,0.0,0.0,0.0,0.0,0.0,0.0,0.0,0.0,0.0,0.0,0.0,0.0,0.0,0.0,0.0,0.0,0.0,0.0,0.0,0.0,0.0,0.0,0.0,0.0,0.0,0.0,0.0,0.0,0.0,0.0,0.0,0.0,0.0,0.0,0.0,0.0,0.0,0.0,0.0,0.0,0.0,-1.9962,0.0,0.0,0.0,0.0,0.0,0.0,0.0,0.0,0.0,0.0,0.0,0.0,0.0,0.0,0.0,0.0,0.0,0.0,0.0,0.0,0.0,0.0,0.0,0.0,0.0,0.0,0.0,0.0,0.0,0.0,0.0,0.0,0.0,0.0,0.0,-1.829,-1.8196,-1.9933,-2.0788,-1.9893,-2.0347,-2.0909,-2.139,-2.2338,-2.322,-2.4008,-2.4436,-2.4823,-2.5211,-2.5424,-2.5518,-2.5518,-2.5424,-2.5331,-2.5224,-2.5224,-2.513,-2.4943,-2.5237,-2.5264,-2.5077,-2.497,-2.493,-2.4903,-2.4516,-2.4115,-2.3585,-2.2096,-2.1282,-2.0828,-1.9646,-1.9073,-1.8958,0.0,0.0,0.0,0.0,0.0,0.0,0.0,0.0,0.0,0.0,0.0,0.0,0.0,0.0,0.0,0.0,0.0,0.0,0.0,0.0,0.0,0.0,0.0,0.0,0.0,0.0,0.0,0.0,0.0,0.0,0.0,0.0,0.0,0.0,0.0,0.0,0.0,0.0,0.0,0.0,0.0,0.0,-2.0974,0.0,0.0,0.0,0.0,0.0,0.0,0.0,0.0,0.0,0.0,0.0,0.0,0.0,0.0,0.0,0.0,0.0,0.0,0.0,0.0,0.0,0.0,0.0,0.0,0.0,0.0,0.0,0.0,0.0,0.0,0.0,0.0,0.0,-1.5658,-1.8063,-2.0027,-2.0361,-2.2445,-2.3741,-2.346,-2.3941,-2.4396,-2.469,-2.4703,-2.5211,-2.636,-2.5879,-2.5838,-2.6413,-2.6426,-2.6146,-2.5585,-2.5865,-2.5838,-2.5545,-2.5545,-2.5545,-2.5518,-2.5825,-2.5959,-2.601,-2.5638,-2.5504,-2.5451,-2.489,-2.4649,-2.4583,-2.4022,-2.3607,-2.334,-2.334,-2.314,-2.2779,0.0,0.0,0.0,0.0,0.0,0.0,0.0,0.0,0.0,0.0,0.0,0.0,0.0,0.0,0.0,0.0,0.0,0.0,0.0,0.0,0.0,0.0,0.0,0.0,0.0,0.0,0.0,0.0,0.0,0.0,0.0,0.0,0.0,0.0,0.0,0.0,0.0,0.0,0.0,0.0,0.0,0.0,-2.1979,0.0,0.0,0.0,0.0,0.0,0.0,0.0,0.0,0.0,0.0,0.0,0.0,0.0,0.0,0.0,0.0,0.0,0.0,0.0,0.0,0.0,0.0,0.0,0.0,0.0,0.0,0.0,0.0,0.0,0.0,0.0,0.0,-1.9105,-1.8651,-2.0748,-2.2766,-2.3928,-2.501,-2.5718,-2.5852,-2.5812,-2.5905,-2.6199,-2.6226,-2.6453,-2.7001,-2.6867,-2.6947,-2.7321,-2.7134,-2.7054,-2.7094,-2.6974,-2.6653,-2.6146,-2.636,-2.6132,-2.5518,-2.5825,-2.5838,-2.5625,-2.5545,-2.5398,-2.5184,-2.5024,-2.4836,-2.4623,-2.4462,-2.4088,-2.3647,-2.3647,-2.3313,-2.2806,0.0,0.0,0.0,0.0,0.0,0.0,0.0,0.0,0.0,0.0,0.0,0.0,0.0,0.0,0.0,0.0,0.0,0.0,0.0,0.0,0.0,0.0,0.0,0.0,0.0,0.0,0.0,0.0,0.0,0.0,0.0,0.0,0.0,0.0,0.0,0.0,0.0,0.0,0.0,0.0,0.0,0.0,-2.3781,-2.0672,-1.9652,-1.9709,-1.832,-1.861,-1.9357,-1.7846,0.0,0.0,0.0,0.0,0.0,0.0,0.0,0.0,0.0,0.0,0.0,0.0,0.0,0.0,0.0,0.0,0.0,0.0,0.0,0.0,0.0,0.0,0.0,0.0,-1.978,-2.1724,-2.2298,-2.3554,-2.4863,-2.6106,-2.6653,-2.7054,-2.7348,-2.7228,-2.7188,-2.7362,-2.7255,-2.7321,-2.7698,-2.7522,-2.7522,-2.7696,-2.7535,-2.7468,-2.7522,-2.7348,-2.7094,-2.676,-2.6921,-2.668,-2.6066,-2.6239,-2.6159,-2.5865,-2.5705,-2.5545,-2.5358,-2.5024,-2.4796,0.0,0.0,0.0,0.0,0.0,-2.3166,-2.2819,0.0,0.0,0.0,0.0,0.0,0.0,0.0,0.0,0.0,0.0,0.0,0.0,0.0,0.0,0.0,0.0,0.0,0.0,0.0,0.0,0.0,0.0,0.0,0.0,0.0,0.0,0.0,0.0,0.0,0.0,0.0,0.0,0.0,0.0,0.0,0.0,0.0,0.0,0.0,0.0,0.0,0.0,-2.5611,-2.2995,-2.2392,-2.2645,-2.0561,-1.9519,-1.9065,-1.8571,0.0,0.0,0.0,0.0,0.0,0.0,0.0,0.0,0.0,0.0,0.0,0.0,0.0,0.0,0.0,0.0,0.0,0.0,0.0,0.0,0.0,0.0,0.0,0.0,-2.2271,-2.4249,-2.5919,-2.6186,-2.648,-2.7228,-2.7575,-2.7856,-2.8207,-2.8221,-2.8221,-2.8221,-2.7896,-2.7869,-2.8207,0.0,0.0,0.0,0.0,-2.7629,-2.7362,-2.7362,-2.7348,-2.7321,-2.7321,-2.7161,-2.6867,-2.6841,-2.6694,-2.644,-2.6039,-2.5865,-2.5812,-2.509,-2.4743,-2.4676,-2.4609,-2.4249,-2.3701,-2.3126,-2.2954,-2.2887,0.0,0.0,0.0,0.0,0.0,0.0,0.0,0.0,0.0,0.0,0.0,0.0,0.0,0.0,0.0,0.0,0.0,0.0,0.0,0.0,0.0,0.0,0.0,0.0,0.0,0.0,0.0,0.0,0.0,0.0,0.0,0.0,0.0,0.0,0.0,0.0,0.0,0.0,0.0,0.0,0.0,0.0,-2.5491,-2.4436,-2.3701,-2.318,-2.2726,-2.2792,-2.2873,-2.1376,-2.0909,-2.0676,-1.882,0.0,0.0,0.0,0.0,0.0,0.0,0.0,0.0,0.0,0.0,0.0,0.0,0.0,0.0,0.0,0.0,0.0,0.0,0.0,0.0,-2.175,-2.4128,-2.6159,-2.7215,-2.7562,-2.7779,-2.7629,-2.7883,-2.8167,-2.8221,-2.8221,-2.8221,-2.8221,-2.8181,-2.8167,-2.8221,-2.8167,-2.814,-2.814,-2.814,-2.8114,-2.806,-2.806,-2.7856,-2.7615,0.0,0.0,-2.7175,-2.6934,-2.6841,-2.6841,-2.6453,-2.6279,-2.6253,-2.5865,-2.5424,-2.4943,-2.4476,-2.4075,-2.3728,-2.3367,-2.3073,-2.2928,0.0,0.0,0.0,0.0,0.0,0.0,0.0,0.0,0.0,0.0,0.0,0.0,0.0,0.0,0.0,0.0,0.0,0.0,0.0,0.0,0.0,0.0,0.0,0.0,0.0,0.0,0.0,0.0,0.0,0.0,0.0,0.0,0.0,0.0,0.0,0.0,0.0,0.0,0.0,0.0,0.0,0.0,-2.955,-2.6785,-2.5371,-2.4823,-2.4529,-2.4422,-2.4262,-2.3233,-2.2779,-2.2418,-2.1096,-1.9559,-1.8037,0.0,0.0,0.0,0.0,0.0,0.0,0.0,0.0,0.0,0.0,0.0,0.0,0.0,0.0,-1.7916,0.0,0.0,-2.2525,-2.4142,-2.5772,-2.7134,-2.803,-2.815,-2.8167,-2.7936,-2.814,-2.8221,-2.8221,-2.8221,-2.8221,-2.8221,-2.8221,-2.8221,-2.8221,-2.8221,-2.8221,-2.8221,-2.8221,-2.8221,-2.8221,-2.8221,-2.8154,-2.7923,-2.7923,-2.7762,-2.7468,-2.7175,-2.6987,-2.6881,-2.6533,-2.6386,-2.636,-2.6026,-2.5651,-2.5251,-2.481,-2.4289,-2.3714,-2.326,-2.2993,-2.2928,0.0,0.0,0.0,0.0,0.0,0.0,0.0,0.0,0.0,0.0,0.0,0.0,0.0,0.0,0.0,0.0,0.0,0.0,0.0,0.0,0.0,0.0,0.0,0.0,0.0,0.0,0.0,0.0,0.0,0.0,0.0,0.0,0.0,0.0,0.0,0.0,0.0,0.0,0.0,0.0,0.0,0.0,-3.3705,-2.9559,-2.7834,-2.7541,-2.604,-2.5275,-2.4934,-2.4407,-2.3768,-2.3207,-2.3006,-2.1737,-1.996,-1.8238,-1.7139,0.0,0.0,0.0,0.0,0.0,0.0,0.0,0.0,0.0,-1.7475,-1.841,-1.9452,-2.0708,-2.2365,-2.35,-2.4743,-2.6453,-2.7228,-2.7869,-2.8591,-2.843,-2.8315,-2.8315,-2.8261,-2.8221,-2.8221,-2.8221,-2.8221,-2.8221,-2.8221,-2.8221,-2.8221,-2.8221,-2.8221,-2.8221,-2.8221,-2.8221,-2.8221,-2.8221,-2.8221,-2.8221,-2.8221,-2.81,-2.7776,-2.7482,-2.7175,-2.6827,-2.652,-2.6386,-2.636,-2.5985,-2.5745,-2.5571,-2.5277,-2.4663,-2.3875,-2.3327,-2.3075,-2.2941,0.0,0.0,0.0,0.0,0.0,0.0,0.0,0.0,0.0,0.0,0.0,0.0,0.0,0.0,0.0,0.0,0.0,0.0,0.0,0.0,0.0,0.0,0.0,0.0,0.0,0.0,0.0,0.0,0.0,0.0,0.0,0.0,0.0,0.0,0.0,0.0,0.0,0.0,0.0,0.0,0.0,0.0,-3.3865,-3.2533,-3.2149,-3.1756,-2.7157,-2.594,-2.6302,-2.4751,-2.3634,-2.2953,-2.3193,-2.2752,-2.1777,-2.0013,0.0,-1.7045,-1.6918,-1.6343,-1.6019,-1.6994,-1.6549,-1.6626,0.0,0.0,-2.0895,-2.2097,-2.3607,-2.485,-2.5077,-2.6266,-2.7375,-2.7953,-2.8444,-2.8871,-2.8978,-2.8738,-2.8551,-2.8551,-2.831,-2.8221,-2.8221,-2.8221,-2.8221,-2.8221,-2.8221,-2.8221,-2.8221,-2.8221,-2.8221,-2.8221,-2.8221,-2.8221,-2.8221,-2.8221,-2.8221,-2.8221,-2.8221,-2.8207,-2.8167,-2.7789,-2.7402,-2.6934,-2.656,-2.6386,-2.6373,-2.6066,-2.5932,-2.5879,-2.5585,-2.509,-2.4502,-2.4168,-2.3541,-2.2981,0.0,0.0,0.0,0.0,0.0,0.0,0.0,0.0,0.0,0.0,0.0,0.0,0.0,0.0,0.0,0.0,0.0,0.0,0.0,0.0,0.0,0.0,0.0,0.0,0.0,0.0,0.0,0.0,0.0,0.0,0.0,0.0,0.0,0.0,0.0,0.0,0.0,0.0,0.0,0.0,0.0,0.0,-3.6642,-3.3045,-3.2878,-3.3731,-2.8201,-2.5554,0.0,0.0,-2.2342,-2.1764,-2.2752,-2.2058,-2.0722,-1.9813,-1.8784,0.0,-1.8557,-1.8303,-1.809,0.0,-1.9533,-2.0321,-2.1871,-2.2846,-2.3754,-2.493,-2.6026,-2.6947,-2.7468,-2.807,-2.8524,0.0,-2.8871,-2.9045,-2.9045,-2.8791,-2.847,-2.8123,-2.8123,-2.8221,-2.8221,-2.8221,-2.8221,-2.8221,-2.8221,-2.8221,-2.8221,-2.8221,-2.8221,-2.8221,-2.8221,-2.8221,-2.8221,-2.8221,-2.8221,-2.8221,-2.8221,-2.8221,-2.8221,-2.7829,-2.7402,-2.6867,-2.6533,-2.6386,-2.6373,-2.6266,-2.6213,-2.6159,-2.5692,-2.5291,-2.493,-2.4583,-2.4008,-2.3437,0.0,0.0,0.0,0.0,0.0,0.0,0.0,0.0,0.0,0.0,0.0,0.0,0.0,0.0,0.0,0.0,0.0,0.0,0.0,0.0,0.0,0.0,0.0,0.0,0.0,0.0,0.0,0.0,0.0,0.0,0.0,0.0,0.0,0.0,0.0,0.0,0.0,0.0,0.0,0.0,0.0,0.0,-3.8205,-3.3607,-3.2585,-3.2931,-2.7777,-2.4714,0.0,0.0,-2.0426,-1.9676,-2.1417,-2.0618,-1.9162,-1.9581,-1.9347,-1.8878,-1.9025,0.0,0.0,-2.0535,-2.1991,-2.3394,-2.4022,-2.501,-2.6092,-2.7108,-2.7709,-2.827,-2.8925,-2.9045,-2.9072,-2.9152,-2.9085,-2.9072,-2.9152,-2.8698,-2.819,-2.7749,-2.7602,-2.7725,-2.7966,-2.8127,-2.8221,-2.8221,-2.8221,-2.8221,-2.8221,-2.8221,-2.8221,-2.8221,-2.8221,-2.8221,-2.8221,-2.8221,-2.8221,-2.8221,-2.8221,-2.8221,-2.8221,-2.7829,-2.7415,-2.6934,-2.664,-2.6466,-2.6386,-2.6386,-2.6386,-2.6333,-2.5798,-2.5478,-2.5251,-2.4796,-2.4369,-2.3941,0.0,0.0,0.0,0.0,0.0,0.0,0.0,0.0,0.0,0.0,0.0,0.0,0.0,0.0,0.0,0.0,0.0,0.0,0.0,0.0,0.0,0.0,0.0,0.0,0.0,0.0,0.0,0.0,0.0,0.0,0.0,0.0,0.0,0.0,0.0,0.0,0.0,0.0,0.0,0.0,0.0,0.0,-3.7129,-3.4848,-3.1949,-2.8644,-2.5227,0.0,0.0,0.0,-1.779,-1.6367,-1.8914,-1.8585,0.0,-1.9921,-2.0175,-1.9386,-1.7742,0.0,-2.0481,-2.1643,-2.306,-2.4543,-2.5972,-2.6987,-2.7802,-2.843,-2.8791,-2.9005,-2.9032,-2.9045,-2.9138,-2.9419,-2.9232,-2.9138,-2.9432,-2.8457,-2.7722,-2.7696,-2.6707,-2.6439,0.0,-2.7886,-2.8221,-2.8221,-2.8221,-2.8221,-2.8221,-2.8221,-2.8221,-2.8221,-2.8221,-2.8221,-2.8221,-2.8221,-2.8221,-2.8221,-2.8221,-2.8221,-2.8221,-2.7829,-2.7535,-2.7241,-2.6934,-2.6653,-2.6386,-2.6386,-2.6386,-2.6346,-2.5945,-2.5678,-2.5438,-2.485,-2.4623,-2.4609,0.0,0.0,0.0,0.0,0.0,0.0,0.0,0.0,0.0,0.0,0.0,0.0,0.0,0.0,0.0,0.0,0.0,0.0,0.0,0.0,0.0,0.0,0.0,0.0,0.0,0.0,0.0,0.0,0.0,0.0,0.0,0.0,0.0,0.0,0.0,0.0,0.0,0.0,0.0,0.0,0.0,0.0,-3.5703,-3.2656,-2.9902,-2.7169,0.0,0.0,0.0,0.0,0.0,0.0,-1.7626,-1.6833,-1.5599,-1.6773,-1.7737,-1.8584,-1.9819,0.0,-2.2311,-2.3688,-2.5144,-2.6466,-2.7348,-2.7936,-2.8417,-2.8818,-2.7883,-2.7054,-2.7241,-2.6961,-2.6854,-2.7348,-2.8003,-2.8551,-2.8858,-2.8724,-2.815,-2.6974,-2.7175,0.0,0.0,0.0,0.0,-2.8167,-2.7963,-2.7936,-2.8221,-2.8221,-2.8221,-2.8221,-2.8221,-2.8221,-2.8221,-2.8221,-2.8221,-2.8221,-2.8221,-2.8221,-2.8221,-2.7829,-2.7535,-2.7255,-2.7161,-2.6841,-2.64,-2.66,-2.656,-2.6333,-2.5812,-2.5571,-2.5438,-2.485,-2.4636,-2.4636,0.0,0.0,0.0,0.0,0.0,0.0,0.0,0.0,0.0,0.0,0.0,0.0,0.0,0.0,0.0,0.0,0.0,0.0,0.0,0.0,0.0,0.0,0.0,0.0,0.0,0.0,0.0,0.0,0.0,0.0,0.0,0.0,0.0,0.0,0.0,0.0,0.0,0.0,0.0,0.0,0.0,0.0,-3.1406,-2.8711,-2.625,0.0,0.0,0.0,0.0,0.0,0.0,0.0,-1.63,-1.6226,-1.5619,-1.5354,-1.7021,-1.9457,-2.1279,-2.2659,-2.4008,-2.5491,-2.6734,-2.7792,-2.8203,-2.847,-2.8537,-2.8297,-2.6774,-2.5478,-2.5451,-2.4796,-2.4623,-2.5732,-2.656,-2.7375,-2.831,-2.8323,-2.7856,-2.6827,-2.7094,-2.7202,0.0,0.0,0.0,-2.7909,-2.7909,-2.7989,-2.8297,-2.831,-2.8364,-2.8457,-2.8364,-2.831,-2.831,-2.8288,-2.8221,-2.8221,-2.8221,-2.8221,-2.8221,-2.7949,-2.7696,-2.7415,-2.7308,-2.6987,-2.6547,-2.664,-2.656,-2.6346,-2.5852,-2.5678,-2.5598,-2.501,-2.4863,-2.4917,0.0,0.0,0.0,0.0,0.0,0.0,0.0,0.0,0.0,0.0,0.0,0.0,0.0,0.0,0.0,0.0,0.0,0.0,0.0,0.0,0.0,0.0,0.0,0.0,0.0,0.0,0.0,0.0,0.0,0.0,0.0,0.0,0.0,0.0,0.0,0.0,0.0,0.0,0.0,0.0,0.0,0.0,-2.493,-2.3535,0.0,0.0,0.0,0.0,0.0,0.0,0.0,0.0,0.0,-1.6588,-1.7554,-1.579,-1.8291,-2.1722,-2.2098,-2.3688,-2.5558,-2.7001,-2.7859,-2.8257,-2.8537,-2.8564,-2.8177,-2.7001,-2.5491,-2.4209,0.0,0.0,-2.2445,-2.4476,-2.4943,-2.5772,-2.7899,-2.7415,-2.7014,0.0,0.0,0.0,0.0,0.0,0.0,-2.7682,0.0,-2.8283,-2.8617,-2.8631,-2.8751,-2.9005,-2.8751,-2.8604,-2.8577,-2.8283,-2.8221,-2.8221,-2.8221,-2.8221,-2.8221,-2.8221,-2.7976,-2.7682,-2.7428,-2.7121,-2.68,-2.6547,-2.6413,-2.636,-2.6066,-2.6037,-2.597,-2.5317,-2.5277,-2.5438,0.0,0.0,0.0,0.0,0.0,0.0,0.0,0.0,0.0,0.0,0.0,0.0,0.0,0.0,0.0,0.0,0.0,0.0,0.0,0.0,0.0,0.0,0.0,0.0,0.0,0.0,0.0,0.0,0.0,0.0,0.0,0.0,0.0,0.0,0.0,0.0,0.0,0.0,0.0,0.0,0.0,0.0,-2.4336,0.0,0.0,0.0,0.0,0.0,0.0,0.0,0.0,0.0,0.0,-1.6773,-1.7782,-1.8604,-2.016,-2.2164,-2.4583,-2.6132,-2.7281,-2.8323,-2.8698,-2.8778,-2.8644,-2.7923,-2.7001,-2.6039,-2.3273,-2.0788,0.0,0.0,0.0,-2.0922,-2.3166,0.0,-2.7228,-2.7869,0.0,-2.802,0.0,-2.7843,-2.7615,-2.7655,0.0,0.0,-2.823,-2.8377,-2.8898,-2.8925,-2.8858,-2.8724,-2.8644,-2.8497,-2.827,-2.8261,-2.8221,-2.8221,-2.8221,-2.8221,-2.8221,-2.8221,-2.7976,-2.7709,-2.7856,-2.7495,-2.6827,-2.6987,-2.6787,-2.636,-2.6066,-2.6037,-2.5919,-2.5545,-2.5451,-2.5491,0.0,0.0,0.0,0.0,0.0,0.0,0.0,0.0,0.0,0.0,0.0,0.0,0.0,0.0,0.0,0.0,0.0,0.0,0.0,0.0,0.0,0.0,0.0,0.0,0.0,0.0,0.0,0.0,0.0,0.0,0.0,0.0,0.0,0.0,0.0,0.0,0.0,0.0,0.0,0.0,0.0,0.0,0.0,0.0,0.0,0.0,0.0,0.0,0.0,0.0,0.0,-1.6665,-1.7406,-1.8568,-1.9927,-2.1195,0.0,-2.4155,-2.636,-2.7615,-2.8404,-2.8911,-2.8938,-2.8497,-2.7175,-2.6146,-2.4863,-2.2686,-2.0013,0.0,-1.6914,0.0,0.0,0.0,0.0,0.0,-2.7081,-2.8003,-2.843,0.0,-2.8804,0.0,-2.8511,-2.8751,-2.9045,0.0,-2.8858,-2.8738,-2.9205,-2.9352,-2.9352,-2.9192,-2.8925,-2.8591,-2.8234,-2.8221,-2.8221,-2.8221,-2.8221,-2.8221,-2.8221,-2.8221,-2.814,-2.7896,0.0,-2.7589,-2.7014,-2.7054,-2.68,-2.6373,-2.6213,-2.6146,-2.6106,-2.5812,-2.5785,-2.5879,0.0,0.0,0.0,0.0,0.0,0.0,0.0,0.0,0.0,0.0,0.0,0.0,0.0,0.0,0.0,0.0,0.0,0.0,0.0,0.0,0.0,0.0,0.0,0.0,0.0,0.0,0.0,0.0,0.0,0.0,0.0,0.0,0.0,0.0,0.0,0.0,0.0,0.0,0.0,0.0,0.0,0.0,0.0,0.0,0.0,0.0,0.0,0.0,0.0,0.0,-1.6635,-1.7626,-1.9347,-2.1216,-2.2913,-2.3634,-2.5104,-2.672,-2.7722,-2.8564,-2.9152,-2.9152,-2.8845,-2.7856,-2.5184,-2.3941,-2.2311,-1.8568,0.0,-1.5225,-1.4389,-1.4389,-1.5578,-1.8811,0.0,-2.3166,-2.6881,-2.7736,-2.8257,-2.9058,-2.9379,-2.9566,-2.9646,-2.9847,-3.01,-3.0394,-2.9713,-2.9366,-2.9593,-2.9833,-2.9927,-2.9806,-2.9232,-2.8671,-2.8234,-2.8221,-2.8221,-2.8221,-2.8221,-2.8221,-2.8221,-2.8221,-2.8221,-2.8207,-2.7869,-2.7589,-2.7308,-2.7041,-2.676,-2.6507,-2.6466,-2.6453,-2.6413,-2.6119,-2.6172,-2.6346,0.0,0.0,0.0,0.0,0.0,0.0,0.0,0.0,0.0,0.0,0.0,0.0,0.0,0.0,0.0,0.0,0.0,0.0,0.0,0.0,0.0,0.0,0.0,0.0,0.0,0.0,0.0,0.0,0.0,0.0,0.0,0.0,0.0,0.0,0.0,0.0,0.0,0.0,0.0,0.0,0.0,0.0,0.0,0.0,0.0,0.0,0.0,0.0,0.0,0.0,-1.7977,-1.9047,-2.1737,-2.3554,-2.4877,-2.6199,-2.6841,-2.7468,-2.9098,-2.9646,-2.9766,-2.9766,-2.8991,-2.7535,-2.4877,-2.2686,0.0,0.0,-1.5378,-1.3706,-1.2852,-1.3694,-1.5044,-1.6633,0.0,0.0,0.0,0.0,-2.7722,0.0,0.0,0.0,0.0,0.0,0.0,0.0,0.0,-3.0408,-3.0221,-3.0261,-2.9953,-2.9219,-2.8604,-2.8328,-2.8221,-2.8221,-2.8221,-2.8221,-2.8221,-2.8221,-2.8221,-2.8221,-2.8221,-2.8221,-2.8167,0.0,-2.7615,-2.7562,-2.7375,-2.7094,-2.6841,-2.6747,-2.6707,-2.6426,-2.6346,-2.6373,0.0,0.0,0.0,0.0,0.0,0.0,0.0,0.0,0.0,0.0,0.0,0.0,0.0,0.0,0.0,0.0,0.0,0.0,0.0,0.0,0.0,0.0,0.0,0.0,0.0,0.0,0.0,0.0,0.0,0.0,0.0,0.0,0.0,0.0,0.0,0.0,0.0,0.0,0.0,0.0,0.0,0.0,0.0,0.0,0.0,0.0,0.0,0.0,0.0,0.0,-1.8151,-1.9195,-2.2512,-2.489,-2.6493,-2.6734,-2.7468,-2.8377,-2.9232,-2.9686,-2.9847,-2.9539,-2.8444,-2.648,-2.2766,0.0,0.0,0.0,-1.2946,-1.2091,-1.1503,0.0,0.0,0.0,0.0,0.0,0.0,0.0,0.0,0.0,0.0,0.0,0.0,0.0,0.0,0.0,0.0,-3.0982,-3.0394,-3.0207,-2.9726,-2.8845,-2.8684,-2.8457,-2.8234,-2.8221,-2.8221,-2.8221,-2.8221,-2.8221,-2.8221,-2.8221,-2.8221,-2.8221,-2.8221,0.0,-2.7696,-2.7696,-2.7522,-2.7241,-2.6934,-2.6827,-2.6787,-2.6493,-2.6386,-2.6386,0.0,0.0,0.0,0.0,0.0,0.0,0.0,0.0,-1.5605,-1.6163,-1.6144,-1.6124,-1.6222,-1.582,0.0,0.0,0.0,0.0,0.0,0.0,0.0,0.0,0.0,0.0,0.0,0.0,0.0,0.0,0.0,0.0,0.0,0.0,0.0,0.0,0.0,0.0,0.0,0.0,0.0,0.0,0.0,0.0,0.0,0.0,0.0,0.0,0.0,0.0,0.0,0.0,-1.7842,-1.8708,-2.1636,-2.4475,-2.668,-2.6239,-2.7321,-2.8738,-2.9125,-2.9606,-2.9873,-2.9285,-2.7923,-2.5518,-2.0855,-1.8504,0.0,-1.1864,-1.0942,-1.0868,-1.064,0.0,0.0,0.0,0.0,0.0,0.0,0.0,0.0,0.0,0.0,0.0,0.0,0.0,0.0,0.0,0.0,0.0,-3.0488,-3.006,-2.9472,-2.8724,-2.8858,-2.8684,-2.8234,-2.8221,-2.8221,-2.8221,-2.8221,-2.8221,-2.8221,-2.8221,-2.8221,-2.8221,-2.8221,0.0,0.0,-2.7789,-2.7655,-2.7415,-2.7054,-2.6921,-2.6881,-2.652,-2.6386,-2.6386,0.0,0.0,0.0,0.0,0.0,0.0,0.0,0.0,-1.5693,-1.6531,-1.6309,-1.6242,-1.659,-1.6269,0.0,0.0,0.0,0.0,0.0,0.0,0.0,0.0,0.0,0.0,0.0,0.0,0.0,0.0,0.0,0.0,0.0,0.0,0.0,0.0,0.0,0.0,0.0,0.0,0.0,0.0,0.0,0.0,0.0,0.0,0.0,0.0,0.0,0.0,0.0,0.0,0.0,-1.7613,-1.8232,-2.0887,-2.3915,-2.4917,0.0,0.0,-2.9392,-3.0074,-3.0181,-2.9593,-2.7923,-2.5264,-2.0815,-1.8036,-1.541,-1.1744,-1.0814,-1.0626,-1.06,-1.1591,-1.2692,0.0,0.0,-1.7756,0.0,0.0,0.0,0.0,0.0,0.0,0.0,0.0,0.0,0.0,0.0,0.0,-3.0755,-2.9967,-2.9366,-2.9005,-2.8764,-2.8484,-2.8234,-2.8221,-2.8221,-2.8221,-2.8221,-2.8221,-2.8221,-2.8221,-2.8221,-2.8221,-2.8221,0.0,0.0,-2.8181,-2.8167,-2.8087,-2.7442,-2.7228,-2.7161,-2.66,-2.6386,-2.6386,0.0,0.0,0.0,0.0,0.0,0.0,0.0,0.0,-1.5625,-1.625,-1.6406,-1.6523,-1.6687,-1.6562,0.0,0.0,0.0,0.0,0.0,0.0,0.0,0.0,0.0,0.0,0.0,0.0,0.0,0.0,0.0,0.0,0.0,0.0,0.0,0.0,0.0,0.0,0.0,0.0,0.0,0.0,0.0,0.0,0.0,0.0,0.0,0.0,0.0,0.0,0.0,0.0,0.0,0.0,-1.5207,-1.6789,0.0,0.0,-2.4382,-2.6413,-2.8551,-2.9472,-2.974,-2.9325,-2.7522,-2.4756,-2.0508,-1.7702,-1.5003,-1.1497,-1.0667,-1.0586,-1.0586,-1.1404,-1.2158,0.0,0.0,0.0,0.0,0.0,0.0,0.0,0.0,0.0,0.0,0.0,0.0,0.0,0.0,0.0,-3.0541,-2.9873,-2.9272,-2.8791,-2.8671,-2.8457,-2.8234,-2.8221,-2.8221,-2.8221,-2.8221,-2.8221,-2.8221,-2.8221,-2.8221,-2.8221,-2.8221,0.0,0.0,-2.8221,-2.8221,-2.8167,-2.7578,-2.7268,-2.7201,-2.66,-2.6386,-2.6386,0.0,0.0,0.0,0.0,0.0,0.0,-1.4531,-1.4961,-1.543,-1.6026,-1.6328,-1.6512,-1.6512,-1.6512,-1.623,-1.5469,0.0,0.0,0.0,0.0,0.0,0.0,0.0,0.0,0.0,0.0,0.0,0.0,0.0,0.0,0.0,0.0,0.0,0.0,0.0,0.0,0.0,0.0,0.0,0.0,0.0,0.0,0.0,0.0,0.0,0.0,0.0,0.0,0.0,0.0,0.0,0.0,0.0,0.0,0.0,0.0,-2.2245,-2.4716,-2.7255,-2.8577,-2.9138,-2.8738,-2.6734,-2.3848,0.0,0.0,-1.4402,-1.1256,-1.0586,-1.0586,-1.0586,-1.1095,-1.1538,0.0,0.0,-1.3828,0.0,0.0,0.0,0.0,0.0,0.0,0.0,0.0,0.0,0.0,0.0,0.0,-3.0247,-2.9753,-2.9259,-2.8751,-2.8738,-2.8537,-2.8234,-2.8221,-2.8221,-2.8221,-2.8221,-2.8221,-2.8221,-2.8221,-2.8221,-2.8221,-2.8221,0.0,0.0,-2.8221,-2.8181,-2.7963,-2.7468,-2.7215,-2.7068,-2.6573,-2.6386,-2.6386,0.0,0.0,0.0,0.0,0.0,0.0,0.0,0.0,-1.5126,-1.5987,-1.6105,-1.6105,-1.6105,-1.6105,-1.5928,-1.5449,0.0,0.0,0.0,0.0,0.0,0.0,0.0,0.0,0.0,0.0,0.0,0.0,0.0,0.0,0.0,0.0,0.0,0.0,0.0,0.0,0.0,0.0,0.0,0.0,0.0,0.0,0.0,0.0,0.0,0.0,0.0,0.0,0.0,0.0,0.0,0.0,0.0,0.0,0.0,0.0,-1.9933,-2.2659,-2.5611,-2.7495,-2.847,-2.7856,-2.5518,-2.2498,0.0,0.0,-1.3427,-1.1082,-1.0586,-1.0586,-1.0586,-1.06,-1.0707,-1.0955,-1.2441,-1.4213,-1.6046,0.0,0.0,0.0,0.0,0.0,0.0,0.0,0.0,0.0,0.0,0.0,-2.994,-2.9646,-2.9352,-2.9045,-2.9032,-2.8751,-2.8234,-2.8221,-2.8221,-2.8221,-2.8221,-2.8221,-2.8221,-2.8221,-2.8221,-2.8221,0.0,0.0,0.0,-2.8221,-2.7963,-2.7669,-2.7375,-2.7081,-2.6787,-2.6493,-2.6386,-2.6386,0.0,0.0,0.0,0.0,0.0,0.0,0.0,0.0,-1.4911,-1.5185,-1.5733,-1.6085,-1.6085,-1.6085,-1.6046,-1.5889,0.0,0.0,0.0,0.0,0.0,0.0,0.0,0.0,0.0,0.0,0.0,0.0,0.0,0.0,0.0,0.0,0.0,0.0,0.0,0.0,0.0,0.0,0.0,0.0,0.0,0.0,0.0,0.0,0.0,0.0,0.0,0.0,0.0,0.0,0.0,0.0,0.0,0.0,0.0,0.0,0.0,0.0,-2.1243,-2.2525,-2.3086,-2.2699,-2.1296,-1.9332,-1.6737,0.0,-1.3173,-1.1042,-1.0586,-1.0586,-1.0586,-1.0586,-1.1149,-1.2826,-1.3414,-1.4402,0.0,0.0,0.0,0.0,0.0,0.0,0.0,0.0,0.0,0.0,0.0,0.0,-2.994,-2.9646,-2.9352,-2.9045,-2.8845,-2.8551,-2.8234,-2.8221,-2.8221,-2.8221,-2.8221,-2.8221,-2.8221,-2.8221,-2.8221,0.0,0.0,0.0,0.0,-2.7923,-2.7789,-2.7655,-2.7161,-2.6907,-2.6787,-2.6493,-2.6386,-2.6346,0.0,0.0,0.0,0.0,0.0,0.0,0.0,0.0,-1.459,-1.4793,-1.542,-1.585,-1.585,-1.585,-1.585,-1.585,0.0,0.0,0.0,0.0,0.0,0.0,0.0,0.0,0.0,0.0,0.0,0.0,0.0,0.0,0.0,0.0,0.0,0.0,0.0,0.0,0.0,0.0,0.0,0.0,0.0,0.0,-1.541,0.0,0.0,0.0,0.0,0.0,0.0,0.0,0.0,0.0,0.0,0.0,0.0,0.0,-1.3293,0.0,0.0,-1.9399,-1.9947,-1.9653,-1.8517,0.0,0.0,0.0,0.0,0.0,-1.0854,-1.0988,-1.0653,-1.0868,-1.1457,-1.261,-1.344,-1.4376,-1.5558,0.0,0.0,0.0,0.0,0.0,0.0,0.0,0.0,0.0,0.0,0.0,-3.01,-2.97,-2.9352,-2.9045,-2.8764,-2.8457,-2.8234,-2.8221,-2.8221,-2.8221,-2.8221,-2.8221,-2.8221,-2.8221,-2.8221,0.0,0.0,0.0,0.0,-2.7776,-2.7562,-2.7335,-2.6961,-2.6747,-2.664,-2.6453,-2.6386,-2.6333,0.0,0.0,0.0,0.0,0.0,0.0,0.0,0.0,0.0,0.0,0.0,-1.5371,-1.541,-1.541,0.0,0.0,0.0,0.0,0.0,0.0,0.0,0.0,0.0,0.0,0.0,0.0,0.0,0.0,-1.6105,-1.6543,-1.7284,0.0,0.0,0.0,0.0,0.0,0.0,0.0,0.0,0.0,0.0,0.0,0.0,0.0,0.0,0.0,0.0,0.0,0.0,0.0,0.0,0.0,0.0,0.0,0.0,0.0,0.0,0.0,0.0,-1.7515,0.0,0.0,0.0,0.0,0.0,0.0,0.0,0.0,0.0,0.0,0.0,-1.1363,-1.1712,-1.1015,-1.2999,-1.4362,0.0,0.0,0.0,0.0,0.0,0.0,0.0,0.0,0.0,0.0,0.0,0.0,-3.0301,-2.9766,-2.9312,-2.9018,-2.8724,-2.843,-2.8234,-2.8221,-2.8221,-2.8221,-2.8221,-2.8221,-2.8221,-2.8221,-2.8221,0.0,0.0,0.0,0.0,-2.7682,-2.7335,-2.6814,-2.68,-2.6613,-2.636,-2.636,-2.6346,-2.6279,0.0,0.0,0.0,0.0,0.0,0.0,0.0,0.0,0.0,0.0,0.0,-1.5059,-1.5371,-1.541,0.0,0.0,0.0,0.0,0.0,0.0,0.0,0.0,0.0,0.0,0.0,0.0,0.0,-1.5566,-1.625,-1.6402,-1.6133,-1.6542,0.0,0.0,0.0,0.0,0.0,0.0,0.0,0.0,0.0,0.0,0.0,0.0,0.0,0.0,-1.2565,-1.2135,0.0,0.0,0.0,0.0,0.0,0.0,0.0,0.0,-1.0693,-1.0988,-1.1899,0.0,-1.312,-1.2826,-1.2438,-1.1997,0.0,0.0,0.0,0.0,0.0,0.0,0.0,0.0,-1.2585,-1.3775,-1.5062,-1.5872,-1.5885,0.0,0.0,0.0,0.0,0.0,0.0,0.0,0.0,0.0,0.0,-3.0394,-2.9726,-2.9339,-2.9005,-2.8724,-2.8417,-2.8301,-2.8221,-2.8221,-2.8221,-2.8221,-2.8221,-2.8221,-2.8221,-2.8221,-2.8221,0.0,0.0,0.0,-2.7682,-2.7455,-2.7148,-2.68,-2.6573,-2.6319,-2.6052,-2.6052,-2.5919,-2.5678,0.0,0.0,0.0,0.0,0.0,0.0,0.0,0.0,0.0,0.0,0.0,0.0,0.0,0.0,0.0,0.0,0.0,0.0,0.0,0.0,0.0,0.0,0.0,0.0,0.0,0.0,0.0,0.0,0.0,-1.64,0.0,0.0,0.0,0.0,0.0,0.0,0.0,0.0,0.0,0.0,-1.4392,0.0,0.0,0.0,0.0,0.0,-1.195,-1.1562,0.0,-1.0894,-1.0707,-1.0613,0.0,0.0,0.0,0.0,-1.0586,-1.0586,-1.0586,-1.0982,-1.1362,-1.1236,-1.1196,-1.1156,0.0,0.0,0.0,0.0,0.0,0.0,0.0,0.0,0.0,-1.3587,-1.471,0.0,0.0,0.0,0.0,0.0,0.0,0.0,0.0,0.0,0.0,0.0,0.0,-3.0474,-2.9726,-2.9272,-2.8911,-2.8617,-2.831,-2.8221,-2.8221,-2.8221,-2.8221,-2.8221,-2.8221,-2.8221,-2.8221,-2.8003,-2.7936,0.0,0.0,0.0,-2.7281,-2.7121,-2.6894,-2.6613,-2.6453,-2.6213,-2.6037,-2.6037,-2.5772,-2.5464,0.0,0.0,0.0,0.0,0.0,0.0,0.0,0.0,0.0,0.0,0.0,0.0,0.0,0.0,0.0,0.0,0.0,0.0,0.0,0.0,0.0,0.0,0.0,0.0,0.0,0.0,0.0,0.0,0.0,0.0,0.0,0.0,0.0,0.0,0.0,0.0,0.0,0.0,0.0,0.0,-1.4064,0.0,0.0,0.0,0.0,0.0,0.0,0.0,0.0,-1.0848,-1.0801,-1.064,-1.0881,0.0,0.0,0.0,0.0,0.0,-1.076,-1.1182,-1.157,-1.1322,-1.1322,-1.1375,0.0,0.0,0.0,0.0,0.0,0.0,0.0,0.0,0.0,0.0,0.0,0.0,0.0,0.0,0.0,0.0,0.0,0.0,0.0,0.0,0.0,0.0,0.0,-3.0408,-2.982,-2.9272,-2.8845,-2.8551,-2.8283,-2.8221,-2.8221,-2.8221,-2.8221,-2.8221,-2.8221,-2.8221,-2.8221,-2.7829,-2.7696,-2.7682,0.0,0.0,-2.6814,-2.6774,-2.6587,-2.6319,-2.6266,-2.6079,-2.5825,-2.5825,-2.5638,-2.5344,0.0,0.0,0.0,0.0,0.0,0.0,0.0,0.0,0.0,0.0,0.0,0.0,0.0,0.0,0.0,0.0,0.0,0.0,0.0,0.0,0.0,0.0,0.0,0.0,0.0,0.0,0.0,0.0,0.0,0.0,-1.683,-1.659,-1.5519,0.0,0.0,0.0,0.0,0.0,0.0,0.0,0.0,0.0,0.0,0.0,0.0,0.0,0.0,0.0,0.0,-1.064,-1.0626,-1.06,-1.064,0.0,0.0,0.0,0.0,0.0,-1.1497,-1.2127,-1.2288,-1.1042,-1.1062,-1.1289,0.0,0.0,0.0,0.0,0.0,0.0,0.0,0.0,0.0,0.0,0.0,0.0,0.0,0.0,0.0,0.0,0.0,0.0,0.0,0.0,0.0,0.0,0.0,-2.9793,-2.9205,-2.8858,-2.8537,-2.8315,-2.8248,-2.8221,-2.8221,-2.8221,-2.8221,-2.8221,-2.8221,-2.8221,-2.8221,-2.7829,-2.7696,-2.7682,0.0,-2.7094,-2.68,-2.656,-2.6279,-2.5999,-2.5745,-2.5464,-2.5211,-2.5211,-2.5024,-2.477,0.0,0.0,0.0,0.0,0.0,0.0,0.0,0.0,0.0,0.0,0.0,0.0,0.0,0.0,0.0,0.0,0.0,0.0,0.0,0.0,0.0,0.0,0.0,0.0,0.0,0.0,0.0,0.0,0.0,-1.7837,-1.7477,-1.6343,-1.4978,-1.3484,0.0,0.0,0.0,0.0,-1.271,-1.2901,0.0,0.0,0.0,0.0,0.0,0.0,0.0,0.0,0.0,0.0,-1.0586,-1.0586,-1.0586,0.0,0.0,0.0,0.0,0.0,-1.1082,-1.1618,-1.1864,-1.1196,-1.1837,-1.2388,0.0,0.0,0.0,0.0,0.0,0.0,0.0,0.0,0.0,0.0,0.0,0.0,0.0,0.0,0.0,0.0,0.0,0.0,0.0,0.0,0.0,0.0,0.0,0.0,-2.8845,-2.8684,-2.847,-2.8234,-2.8221,-2.8154,-2.7909,-2.7896,-2.7896,-2.7896,-2.7896,-2.7816,-2.7655,-2.7362,-2.7228,-2.7215,0.0,-2.672,-2.656,-2.6279,-2.6079,-2.601,-2.5625,-2.5331,-2.5064,-2.4903,-2.4756,-2.4636,0.0,0.0,0.0,0.0,0.0,0.0,0.0,0.0,0.0,0.0,0.0,0.0,0.0,0.0,0.0,0.0,0.0,0.0,0.0,0.0,0.0,0.0,0.0,0.0,0.0,0.0,0.0,-1.6863,-1.8227,-1.8632,-1.8131,-1.6333,-1.4748,0.0,0.0,0.0,0.0,0.0,-1.2475,-1.2412,0.0,0.0,0.0,0.0,0.0,0.0,0.0,0.0,0.0,0.0,0.0,0.0,0.0,0.0,0.0,-1.0586,-1.0586,-1.064,-1.0841,-1.1196,-1.153,-1.153,0.0,0.0,0.0,0.0,0.0,0.0,0.0,0.0,0.0,0.0,0.0,0.0,0.0,0.0,0.0,0.0,0.0,0.0,0.0,0.0,0.0,0.0,0.0,0.0,0.0,0.0,-2.8644,-2.8537,-2.839,-2.8234,-2.8154,-2.7923,-2.7696,-2.7629,-2.7602,-2.7602,-2.7602,-2.7482,-2.7255,-2.6961,-2.6787,-2.6707,-2.6413,-2.6253,-2.6159,-2.5865,-2.5758,-2.5718,-2.5424,-2.517,-2.4943,-2.4716,-2.4636,-2.4636,0.0,0.0,0.0,0.0,0.0,0.0,0.0,0.0,0.0,0.0,0.0,0.0,0.0,0.0,0.0,0.0,0.0,0.0,0.0,0.0,0.0,0.0,0.0,0.0,0.0,-1.6219,-1.6863,-1.7344,-1.9004,-1.9488,-1.8906,-1.7552,-1.5659,-1.3294,0.0,0.0,0.0,0.0,-1.3695,-1.4034,-1.4094,0.0,0.0,0.0,0.0,0.0,0.0,0.0,0.0,0.0,0.0,0.0,0.0,0.0,-1.0586,-1.0586,-1.0586,-1.0774,-1.1591,-1.1846,-1.1873,-1.1873,0.0,0.0,0.0,0.0,0.0,0.0,0.0,0.0,0.0,0.0,0.0,0.0,0.0,0.0,0.0,0.0,0.0,0.0,0.0,0.0,0.0,0.0,0.0,0.0,0.0,0.0,-2.8604,-2.8337,-2.8248,-2.8221,-2.7883,-2.7722,-2.7696,-2.7428,-2.7295,-2.7295,-2.7295,-2.7281,-2.7255,-2.6961,-2.668,-2.64,-2.6119,-2.5825,-2.5558,-2.5264,-2.5144,-2.5117,-2.4823,-2.469,-2.4663,-2.4649,-2.4636,-2.4636,0.0,0.0,0.0,0.0,0.0,0.0,0.0,0.0,0.0,0.0,0.0,0.0,0.0,0.0,0.0,0.0,0.0,0.0,0.0,0.0,0.0,0.0,0.0,-1.541,-1.541,-1.6543,-1.7344,-1.7773,-1.9473,-2.0062,-1.9506,-1.7929,0.0,0.0,0.0,0.0,0.0,0.0,-1.306,-1.2011,-1.268,-1.2352,0.0,0.0,0.0,0.0,0.0,0.0,0.0,0.0,-1.0586,-1.0586,0.0,-1.0586,-1.0586,-1.0586,-1.0586,-1.0667,-1.1002,-1.1484,-1.1953,-1.2091,0.0,0.0,0.0,0.0,0.0,0.0,0.0,0.0,0.0,0.0,0.0,0.0,0.0,0.0,0.0,0.0,0.0,0.0,0.0,0.0,0.0,0.0,0.0,0.0,0.0,0.0,-2.8323,-2.8288,-2.814,-2.7869,-2.7762,-2.7522,-2.7161,-2.6867,-2.6627,-2.6453,-2.664,-2.6627,-2.644,-2.6146,-2.5945,-2.5838,-2.5732,-2.5611,-2.5491,-2.5197,-2.5077,-2.505,-2.4756,-2.4636,-2.4636,-2.4636,-2.4636,-2.4636,0.0,0.0,0.0,0.0,0.0,0.0,0.0,0.0,0.0,0.0,0.0,0.0,0.0,0.0,0.0,0.0,0.0,0.0,0.0,0.0,0.0,0.0,0.0,-1.5078,-1.5215,-1.6367,-1.7305,-1.8008,-1.959,-2.0,-1.926,0.0,0.0,0.0,0.0,0.0,0.0,0.0,0.0,-1.1563,-1.2417,-1.204,0.0,0.0,0.0,0.0,0.0,0.0,0.0,0.0,0.0,0.0,0.0,0.0,0.0,0.0,-1.0519,-1.0452,-1.0452,-1.0894,-1.141,0.0,0.0,0.0,0.0,0.0,0.0,0.0,0.0,0.0,0.0,0.0,0.0,0.0,0.0,0.0,0.0,0.0,0.0,0.0,0.0,0.0,0.0,0.0,0.0,0.0,0.0,0.0,0.0,-2.8003,-2.7869,-2.7575,-2.7388,-2.7094,-2.6694,-2.6306,-2.6012,-2.5812,-2.5919,-2.5919,-2.5812,-2.5598,-2.5464,-2.5371,-2.5277,-2.5237,-2.5211,-2.4917,-2.481,-2.4796,-2.4676,-2.4583,-2.4516,-2.4609,-2.4636,-2.4636,0.0,0.0,0.0,0.0,0.0,0.0,0.0,0.0,0.0,0.0,0.0,0.0,0.0,0.0,0.0,0.0,0.0,0.0,0.0,0.0,0.0,0.0,0.0,-1.4309,-1.4813,-1.5654,-1.6731,-1.8008,-1.9277,-1.9238,-1.7974,-1.7148,0.0,0.0,0.0,0.0,0.0,0.0,0.0,-1.3411,-1.3737,-1.3043,-1.184,0.0,0.0,0.0,0.0,0.0,0.0,0.0,-1.0586,0.0,0.0,0.0,0.0,0.0,-1.0354,-1.0083,-1.0083,-1.014,0.0,0.0,0.0,0.0,0.0,0.0,0.0,0.0,0.0,0.0,0.0,0.0,0.0,0.0,0.0,0.0,0.0,0.0,0.0,0.0,0.0,0.0,0.0,0.0,0.0,0.0,0.0,0.0,0.0,-2.7696,-2.7549,-2.7268,-2.6694,-2.6386,-2.6386,-2.5798,-2.5504,-2.5504,-2.5211,-2.5224,-2.5504,-2.5504,-2.5344,-2.505,-2.4756,-2.4549,-2.4609,-2.4315,-2.4195,-2.4222,-2.4516,-2.4449,-2.4235,-2.4529,-2.4636,-2.4636,0.0,0.0,0.0,0.0,0.0,0.0,0.0,0.0,0.0,0.0,0.0,0.0,0.0,0.0,0.0,0.0,0.0,0.0,0.0,0.0,0.0,0.0,0.0,0.0,0.0,0.0,-1.6594,-1.7578,-1.7949,-1.7773,0.0,0.0,0.0,-1.6306,0.0,0.0,0.0,0.0,0.0,-1.175,-1.203,-1.1657,-1.0965,0.0,0.0,0.0,0.0,0.0,0.0,0.0,0.0,0.0,0.0,0.0,0.0,-1.0586,-1.0533,-1.0452,-1.0452,0.0,0.0,0.0,0.0,0.0,0.0,0.0,0.0,0.0,0.0,0.0,0.0,0.0,0.0,0.0,0.0,0.0,0.0,0.0,0.0,0.0,0.0,0.0,0.0,0.0,0.0,0.0,0.0,0.0,0.0,-2.7081,-2.6854,-2.6439,-2.6172,-2.5985,-2.5772,-2.5398,-2.5104,-2.489,-2.4609,-2.4609,-2.489,-2.469,-2.4436,-2.4155,-2.4062,-2.4022,-2.4022,-2.3928,-2.3901,-2.3928,-2.4142,-2.4096,-2.4069,-2.4502,-2.4636,-2.4636,0.0,0.0,0.0,0.0,0.0,0.0,0.0,0.0,0.0,0.0,0.0,0.0,0.0,0.0,0.0,0.0,0.0,0.0,0.0,0.0,0.0,0.0,0.0,0.0,0.0,-1.5586,-1.6074,0.0,0.0,0.0,0.0,0.0,0.0,-1.6643,0.0,-1.4933,0.0,0.0,0.0,-1.1022,-1.1282,-1.1076,-1.06,0.0,0.0,0.0,0.0,0.0,0.0,0.0,0.0,0.0,0.0,0.0,0.0,-1.0975,-1.0854,-1.076,-1.076,0.0,0.0,0.0,0.0,0.0,0.0,0.0,0.0,0.0,0.0,0.0,0.0,0.0,0.0,0.0,0.0,0.0,0.0,0.0,0.0,0.0,0.0,0.0,0.0,0.0,0.0,0.0,0.0,0.0,0.0,-2.648,-2.6213,-2.5625,-2.5491,-2.5291,-2.4997,-2.4703,-2.4476,-2.4289,-2.4115,-2.4062,-2.4115,-2.4062,-2.3941,-2.3768,-2.3768,-2.3701,-2.3607,-2.3728,-2.3701,-2.3621,-2.3848,-2.3888,-2.3861,-2.4182,-2.4436,-2.4636,0.0,0.0,0.0,0.0,0.0,0.0,0.0,0.0,0.0,0.0,0.0,0.0,0.0,0.0,0.0,0.0,0.0,0.0,0.0,0.0,0.0,0.0,0.0,0.0,0.0,0.0,0.0,0.0,0.0,0.0,0.0,0.0,-1.698,-1.6536,0.0,-1.4887,0.0,0.0,0.0,0.0,-1.1276,-1.1049,0.0,0.0,0.0,0.0,0.0,0.0,0.0,0.0,0.0,0.0,0.0,0.0,-1.1859,-1.1543,-1.1263,-1.1049,0.0,0.0,0.0,0.0,0.0,0.0,0.0,0.0,0.0,0.0,0.0,0.0,0.0,0.0,0.0,0.0,0.0,0.0,0.0,0.0,0.0,0.0,0.0,0.0,0.0,0.0,0.0,0.0,0.0,0.0,0.0,-2.5838,-2.5571,-2.4983,-2.4703,-2.4436,-2.4168,-2.3901,-2.3754,-2.3728,-2.3728,-2.3567,-2.326,-2.3581,-2.3714,-2.3688,-2.3688,-2.3541,-2.33,-2.3581,-2.3527,-2.3313,-2.3581,-2.3581,-2.3447,-2.3621,-2.4022,-2.4476,0.0,0.0,0.0,0.0,0.0,0.0,0.0,0.0,0.0,0.0,0.0,0.0,0.0,0.0,0.0,0.0,0.0,0.0,0.0,0.0,0.0,0.0,0.0,0.0,0.0,0.0,0.0,0.0,0.0,0.0,0.0,0.0,0.0,-1.5569,0.0,-1.3879,0.0,0.0,0.0,0.0,0.0,0.0,0.0,0.0,0.0,0.0,0.0,0.0,0.0,0.0,0.0,0.0,-1.0586,-1.1203,-1.1899,-1.1832,-1.157,0.0,0.0,0.0,0.0,0.0,0.0,0.0,0.0,0.0,0.0,0.0,0.0,0.0,0.0,0.0,0.0,0.0,0.0,0.0,0.0,0.0,0.0,0.0,0.0,0.0,0.0,0.0,0.0,0.0,0.0,0.0,-2.4957,-2.4917,-2.4649,-2.4075,-2.3995,-2.3928,-2.3861,-2.3808,-2.3647,0.0,-2.342,-2.314,-2.2632,-2.318,-2.3287,-2.306,-2.306,-2.302,-2.2966,-2.3033,-2.302,-2.2966,-2.3102,-2.3102,-2.3006,-2.3115,-2.314,-2.3247,0.0,0.0,0.0,0.0,0.0,0.0,0.0,0.0,0.0,0.0,0.0,0.0,0.0,0.0,0.0,0.0,0.0,0.0,0.0,0.0,0.0,0.0,0.0,0.0,0.0,0.0,0.0,0.0,0.0,0.0,0.0,0.0,0.0,-1.4689,0.0,-1.3369,0.0,0.0,0.0,0.0,0.0,0.0,0.0,0.0,0.0,-1.0586,-1.0586,0.0,0.0,0.0,0.0,0.0,0.0,0.0,-1.1873,-1.1703,-1.1543,-1.1583,0.0,0.0,0.0,0.0,0.0,0.0,0.0,0.0,0.0,0.0,0.0,0.0,0.0,0.0,0.0,0.0,0.0,0.0,0.0,0.0,0.0,0.0,0.0,0.0,0.0,0.0,0.0,0.0,0.0,-2.469,-2.4249,-2.4222,-2.3955,-2.3423,-2.334,-2.3193,-2.2913,-2.2913,-2.2832,-2.2686,-2.2686,-2.2512,-2.2218,-2.2539,-2.2672,-2.2645,-2.2498,-2.2525,-2.2645,-2.2645,-2.2645,-2.2659,-2.2806,-2.2928,-2.2928,-2.2928,-2.3992,-2.5651,0.0,0.0,0.0,0.0,0.0,0.0,0.0,0.0,0.0,0.0,0.0,0.0,0.0,0.0,0.0,0.0,0.0,0.0,0.0,0.0,0.0,0.0,0.0,0.0,0.0,0.0,0.0,0.0,0.0,0.0,0.0,0.0,0.0,-1.3834,0.0,0.0,0.0,0.0,0.0,0.0,0.0,0.0,0.0,0.0,0.0,0.0,-1.0586,-1.0586,-1.0586,-1.0586,0.0,0.0,0.0,0.0,-1.1859,-1.157,-1.1463,-1.1637,0.0,0.0,0.0,0.0,0.0,0.0,0.0,0.0,0.0,0.0,0.0,0.0,0.0,0.0,0.0,0.0,0.0,0.0,0.0,0.0,0.0,0.0,0.0,0.0,0.0,0.0,0.0,0.0,0.0,-2.3981,-2.3634,-2.3621,-2.334,-2.2726,-2.2712,-2.2472,-2.1991,-2.1991,-2.1991,-2.1991,-2.1937,-2.1911,-2.1911,-2.1857,-2.2017,-2.2338,-2.2084,-2.2124,-2.2338,-2.2338,-2.2338,-2.2365,-2.2619,-2.2712,-2.278,-2.3215,-2.5256,-2.8427,0.0,0.0,0.0,0.0,0.0,0.0,0.0,0.0,0.0,0.0,0.0,0.0,0.0,0.0,0.0,0.0,0.0,0.0,-1.4793,0.0,0.0,-1.541,0.0,0.0,0.0,0.0,0.0,0.0,0.0,0.0,0.0,0.0,0.0,0.0,0.0,0.0,0.0,0.0,0.0,0.0,0.0,0.0,0.0,0.0,0.0,0.0,-1.0586,-1.0586,-1.0586,-1.0586,-1.0586,0.0,0.0,0.0,-1.1899,-1.1859,-1.1623,0.0,0.0,0.0,0.0,0.0,0.0,0.0,0.0,0.0,0.0,0.0,0.0,0.0,0.0,0.0,0.0,0.0,0.0,0.0,0.0,0.0,0.0,0.0,0.0,0.0,0.0,0.0,0.0,0.0,-2.3848,-2.3581,-2.3088,-2.3048,-2.2712,-2.2124,-2.2098,-2.2071,-2.1991,-2.1991,-2.1991,-2.1977,-2.1724,-2.1681,-2.1668,-2.1349,-2.1523,-2.2044,-2.2004,-2.2004,-2.2044,-2.2044,-2.2044,-2.2044,-2.2084,-2.2098,-2.2376,-2.4415,-2.5769,-2.7304,0.0,0.0,0.0,0.0,0.0,0.0,0.0,0.0,0.0,0.0,0.0,0.0,0.0,0.0,0.0,-1.4816,-1.4816,-1.4941,-1.5117,-1.5312,-1.541,-1.541,-1.541,0.0,0.0,0.0,0.0,0.0,0.0,0.0,0.0,-1.308,-1.3163,0.0,0.0,0.0,0.0,0.0,0.0,0.0,0.0,0.0,0.0,0.0,0.0,0.0,0.0,-1.0586,-1.0586,-1.0586,-1.0586,-1.0586,-1.0586,0.0,0.0,0.0,-1.1082,0.0,0.0,0.0,0.0,0.0,0.0,0.0,0.0,0.0,0.0,0.0,0.0,0.0,0.0,0.0,0.0,0.0,0.0,0.0,0.0,0.0,0.0,0.0,0.0,0.0,0.0,0.0,0.0,0.0,-2.3207,-2.2899,-2.2632,-2.2458,-2.2178,-2.1815,-2.1815,-2.1657,-2.1496,-2.1496,-2.1496,-2.1496,-2.1363,-2.1309,-2.1296,-2.1162,-2.1336,-2.1802,-2.1563,-2.159,-2.1815,-2.1815,-2.1815,-2.1764,-2.1924,-2.1991,-2.2241,-2.4436,-2.591,-2.7343,0.0,0.0,0.0,0.0,0.0,0.0,0.0,0.0,0.0,0.0,0.0,0.0,0.0,0.0,0.0,0.0,-1.541,-1.541,-1.541,-1.541,-1.541,-1.541,-1.541,-1.5118,-1.451,0.0,0.0,0.0,0.0,0.0,-1.2904,-1.3106,-1.3601,0.0,-1.2986,0.0,0.0,0.0,0.0,0.0,0.0,0.0,0.0,0.0,0.0,0.0,0.0,-1.0975,-1.1028,-1.0948,-1.0827,-1.0693,-1.0613,-1.0586,0.0,0.0,0.0,0.0,0.0,0.0,0.0,0.0,0.0,0.0,0.0,0.0,0.0,0.0,0.0,0.0,0.0,0.0,0.0,0.0,0.0,0.0,0.0,0.0,0.0,0.0,0.0,0.0,0.0,0.0,0.0,0.0,-2.2565,-2.2271,-2.2205,-2.1991,-2.1737,-2.1443,-2.1443,-2.1336,-2.1109,-2.1109,-2.1109,-2.1109,-2.1109,-2.1109,-2.1109,-2.1109,-2.1229,-2.1494,-2.1203,-2.1229,-2.1443,-2.1443,-2.1443,-2.1521,-2.2189,-2.2401,-2.2697,-2.4983,-2.6586,-2.7974,0.0,0.0,0.0,0.0,0.0,0.0,0.0,0.0,0.0,0.0,0.0,0.0,0.0,-1.541,-1.541,-1.541,-1.541,-1.541,-1.541,-1.541,-1.541,-1.541,-1.541,0.0,-1.5352,0.0,0.0,0.0,0.0,0.0,-1.3186,-1.32,-1.3828,-1.4901,-1.3414,-1.2596,-1.2265,0.0,0.0,0.0,0.0,0.0,0.0,0.0,0.0,0.0,0.0,0.0,-1.2171,-1.1926,-1.1471,-1.0915,-1.068,-1.0586,-1.0586,0.0,0.0,0.0,0.0,0.0,0.0,0.0,0.0,0.0,0.0,0.0,0.0,0.0,0.0,0.0,0.0,0.0,0.0,0.0,0.0,0.0,0.0,0.0,0.0,0.0,0.0,0.0,0.0,0.0,0.0,0.0,-2.2031,-2.1884,-2.1681,-2.1655,-2.1443,-2.1149,-2.1136,-2.1122,-2.1109,-2.1109,-2.1109,-2.1109,-2.1109,-2.1109,-2.1109,-2.1109,-2.1122,-2.1136,-2.1122,-2.1122,-2.1136,-2.1136,-2.1136,-2.1326,-2.2885,-2.3494,-2.3929,-2.7065,-2.8516,-2.9186,0.0,0.0,0.0,0.0,0.0,0.0,0.0,0.0,0.0,0.0,0.0,0.0,0.0,-1.541,-1.541,-1.541,-1.541,-1.5177,-1.4658,-1.4628,-1.4392,-1.3885,-1.3855,-1.3627,-1.3114,0.0,0.0,0.0,0.0,-1.2261,-1.2958,-1.2958,-1.328,-1.3801,-1.3105,-1.2837,-1.2839,-1.2051,0.0,0.0,0.0,0.0,0.0,0.0,0.0,0.0,0.0,0.0,0.0,0.0,-1.1637,-1.0969,-1.0908,-1.0747,-1.0586,-1.0586,-1.1216,0.0,0.0,0.0,0.0,0.0,0.0,0.0,0.0,0.0,0.0,0.0,0.0,0.0,0.0,0.0,0.0,0.0,0.0,0.0,0.0,0.0,0.0,0.0,0.0,0.0,0.0,0.0,0.0,0.0,0.0,-2.1722,-2.1628,-2.1376,-2.1216,-2.1109,-2.1109,-2.1109,-2.1109,-2.0922,-2.0828,-2.0828,-2.0641,-2.0641,-2.0828,-2.0828,-2.0935,-2.1109,-2.1109,-2.1109,-2.1109,-2.1109,-2.1727,-2.2779,-2.3387,-2.424,-2.5391,-2.7572,-2.8517,-2.8864,0.0,0.0,0.0,0.0,0.0,0.0,0.0,0.0,0.0,0.0,0.0,0.0,0.0,0.0,-1.541,-1.541,-1.5147,-1.4776,-1.4243,-1.3944,-1.3554,-1.3009,-1.3009,-1.2765,-1.2197,0.0,0.0,0.0,0.0,0.0,0.0,0.0,-1.2409,-1.2746,-1.2476,0.0,0.0,0.0,0.0,-1.1966,0.0,0.0,-1.0742,0.0,0.0,0.0,0.0,0.0,0.0,0.0,0.0,-1.0995,-1.0995,-1.0894,-1.072,-1.0626,-1.1002,0.0,0.0,0.0,0.0,0.0,0.0,0.0,0.0,0.0,0.0,0.0,0.0,0.0,0.0,0.0,0.0,0.0,0.0,0.0,0.0,0.0,0.0,0.0,0.0,0.0,0.0,0.0,0.0,0.0,0.0,0.0,-2.1403,-2.1216,-2.1069,-2.0962,-2.0962,-2.0922,-2.0815,-2.0628,-2.0535,-2.0521,-2.0334,-2.0334,-2.0535,-2.0535,-2.0695,-2.1025,-2.1513,-2.1505,-2.1109,-2.1109,-2.2104,-2.3636,-2.4178,-2.5391,-2.7013,-2.8664,-2.9216,-2.9412,0.0,0.0,0.0,0.0,0.0,0.0,0.0,0.0,0.0,0.0,0.0,0.0,0.0,0.0,0.0,-1.5381,-1.4658,-1.4183,-1.4124,-1.3403,-1.2948,-1.2917,-1.2917,-1.2917,-1.2917,0.0,0.0,0.0,0.0,0.0,0.0,0.0,-1.1289,0.0,-1.1543,-1.157,-1.1886,0.0,-1.2291,-1.2198,0.0,-1.1122,-1.1859,0.0,0.0,0.0,-1.4509,-1.4536,0.0,-1.3574,0.0,0.0,0.0,-1.0995,-1.0942,-1.068,-1.06,0.0,0.0,0.0,0.0,0.0,0.0,0.0,0.0,0.0,0.0,0.0,0.0,0.0,0.0,0.0,0.0,0.0,0.0,0.0,0.0,0.0,0.0,0.0,0.0,0.0,0.0,0.0,0.0,0.0,-2.1096,-2.1096,-2.1096,-2.1082,-2.0949,-2.0668,-2.0668,-2.0521,-2.018,-2.0167,-2.0214,-2.0214,-2.0153,-2.0153,-2.0214,-2.0227,-2.0462,-2.0854,-2.2486,-2.2428,-2.1235,-2.1235,-2.2215,-2.3869,-2.5436,-2.7073,-2.8664,-3.0333,-3.0898,-3.0898,0.0,0.0,0.0,0.0,0.0,0.0,0.0,0.0,0.0,0.0,0.0,0.0,0.0,-1.541,-1.5177,-1.4569,-1.4332,-1.3717,-1.2535,-1.2258,-1.1872,-1.1296,-1.1264,-1.1264,-1.1264,0.0,0.0,0.0,0.0,0.0,0.0,0.0,0.0,0.0,-1.1062,-1.1035,-1.0988,-1.1463,0.0,0.0,-1.1263,-1.1142,0.0,0.0,0.0,0.0,0.0,-1.4977,-1.515,0.0,-1.4079,-1.2681,0.0,-1.1169,-1.0982,-1.0902,-1.076,-1.0586,-1.0586,0.0,0.0,0.0,0.0,0.0,0.0,0.0,0.0,0.0,0.0,0.0,0.0,0.0,0.0,0.0,0.0,0.0,0.0,0.0,0.0,0.0,0.0,0.0,0.0,0.0,0.0,0.0,-2.0909,-2.0802,-2.0802,-2.0588,-2.0441,-2.0361,-2.0361,-2.0321,-2.0167,-2.0027,-1.992,-1.992,-1.9706,-1.972,-1.998,-2.1367,-2.218,-2.2547,-2.4405,-2.4974,-2.464,-2.464,-2.5619,-2.7151,-2.7572,-2.8724,-3.0274,-3.0704,-3.0898,-3.0898,0.0,0.0,0.0,0.0,0.0,0.0,0.0,0.0,0.0,0.0,0.0,0.0,0.0,0.0,-1.516,-1.47,-1.3987,-1.3137,-1.2037,-1.1658,-1.1217,-1.0631,-1.0586,-1.0586,-1.0586,0.0,0.0,0.0,0.0,0.0,0.0,0.0,0.0,0.0,0.0,0.0,0.0,0.0,0.0,0.0,-1.1196,0.0,0.0,-1.1797,-1.2465,0.0,0.0,0.0,-1.5952,-1.6005,-1.4963,0.0,0.0,0.0,-1.135,-1.1062,-1.0875,-1.0747,-1.0626,-1.0586,0.0,0.0,0.0,0.0,-1.0439,-1.1182,0.0,0.0,0.0,0.0,0.0,0.0,0.0,0.0,0.0,0.0,0.0,0.0,0.0,0.0,0.0,0.0,0.0,-2.0748,-2.0748,-2.0748,-2.0588,-2.0494,-2.0494,-2.0321,-2.0174,-2.0054,-2.0054,-2.0,-1.9867,-1.9706,-1.9626,-1.9613,-1.9452,-1.9914,-2.0822,-2.1994,-2.2692,-2.3263,-2.5731,-2.6516,-2.6106,-2.7512,-2.817,-2.8426,-2.8426,-2.9412,-3.0898,-3.0898,-3.0898,-3.0898,0.0,0.0,0.0,0.0,0.0,0.0,0.0,0.0,0.0,0.0,0.0,0.0,0.0,0.0,0.0,-1.5159,-1.362,-1.2487,-1.2079,-1.1367,-1.0848,-1.0653,-1.064,-1.064,-1.064,-1.064,0.0,0.0,0.0,0.0,0.0,0.0,0.0,0.0,0.0,0.0,0.0,0.0,0.0,-1.1089,-1.1129,-1.1703,0.0,0.0,-1.352,-1.5089,-1.5658,-1.6259,-1.6714,-1.642,-1.5164,0.0,0.0,0.0,0.0,0.0,-1.1049,-1.0942,-1.0747,-1.0693,-1.0747,-1.0942,0.0,0.0,-1.0247,-1.0902,-1.1476,0.0,0.0,0.0,0.0,0.0,0.0,0.0,0.0,0.0,0.0,0.0,0.0,0.0,0.0,0.0,-2.0187,-2.0153,-2.0167,-2.0167,-2.014,-2.0113,-2.0134,-2.0134,-2.0013,-1.976,-1.976,-1.9626,-1.943,-1.943,-1.943,-1.943,-1.943,-2.028,-2.1903,-2.2281,-2.2761,-2.349,-2.6765,-2.7505,-2.6704,-2.9651,-2.9982,-2.8664,-2.8664,-2.9589,-3.0898,-3.0898,-3.0898,-3.0898,-1.4883,0.0,0.0,0.0,0.0,0.0,0.0,0.0,0.0,0.0,0.0,0.0,0.0,0.0,0.0,-1.4378,-1.3103,-1.1974,-1.1278,-1.0897,-1.076,-1.0902,-1.0915,-1.0915,-1.0915,-1.0915,-1.0827,0.0,0.0,0.0,0.0,0.0,0.0,0.0,0.0,0.0,0.0,0.0,0.0,-1.1752,-1.1957,0.0,-1.4068,-1.3828,-1.4298,-1.5115,-1.5899,-1.6616,-1.7072,-1.6727,-1.5605,-1.4159,0.0,0.0,0.0,-1.1698,0.0,0.0,0.0,0.0,0.0,0.0,0.0,0.0,-1.068,-1.1551,-1.2382,0.0,0.0,0.0,0.0,0.0,0.0,0.0,0.0,0.0,0.0,0.0,0.0,0.0,0.0,0.0,-1.988,-2.0094,-2.0167,-2.0167,-2.0013,-1.9786,-1.9546,-1.9533,-1.9506,-1.9452,-1.9511,-1.9426,-1.943,-1.943,-1.943,-1.943,-1.943,-1.956,-2.002,-2.2824,-2.431,-2.4893,-2.7934,-2.9336,-2.943,-3.0083,-3.0373,-3.0392,-3.0392,-3.0587,-3.0898,-3.0898,-3.0898,-3.0898,-1.5098,0.0,0.0,0.0,0.0,0.0,0.0,0.0,0.0,0.0,0.0,0.0,0.0,0.0,0.0,0.0,-1.2888,-1.2019,-1.1471,-1.1323,-1.1243,-1.1209,-1.1209,-1.1209,-1.1209,-1.1062,-1.0915,0.0,0.0,0.0,0.0,0.0,0.0,0.0,0.0,0.0,0.0,0.0,-1.1404,-1.2328,-1.2181,0.0,-1.4039,-1.4082,-1.4456,-1.5142,-1.6126,-1.7154,-1.7903,-1.7007,-1.6406,0.0,-1.3933,-1.312,-1.2665,0.0,-1.177,-1.1436,0.0,0.0,0.0,-1.1396,0.0,0.0,0.0,-1.145,-1.2011,0.0,0.0,0.0,0.0,0.0,0.0,0.0,0.0,0.0,0.0,0.0,0.0,0.0,0.0,0.0,-1.8905,-1.8994,-1.9141,-1.9359,-1.9225,-1.9078,-1.8931,-1.8931,-1.8931,-1.8931,-1.9065,-1.9078,-1.8931,-1.9225,-1.9292,-1.9145,-1.9292,-1.9891,-2.0829,-2.2567,-2.3989,-2.5128,-2.7464,-2.8521,-2.8709,-2.9524,-3.0156,-3.0566,-3.0801,-3.0898,-3.0898,-3.0898,-3.0898,-3.0898,-1.541,0.0,0.0,0.0,0.0,0.0,0.0,0.0,0.0,0.0,0.0,0.0,0.0,0.0,0.0,0.0,0.0,-1.2425,-1.2342,-1.2007,-1.173,-1.1562,-1.1455,-1.1415,-1.1469,-1.1223,-1.1022,-1.0915,0.0,0.0,0.0,0.0,0.0,0.0,0.0,0.0,0.0,0.0,0.0,-1.2677,0.0,-1.2852,-1.3786,-1.4015,-1.4606,-1.541,-1.6473,-1.7569,-1.8317,-1.7114,-1.6941,-1.6834,-1.4456,-1.3854,0.0,0.0,0.0,0.0,0.0,0.0,0.0,0.0,0.0,-1.1095,0.0,0.0,0.0,0.0,0.0,0.0,0.0,0.0,0.0,0.0,0.0,0.0,0.0,0.0,0.0,0.0,0.0,0.0,0.0,-1.7716,-1.7809,-1.805,-1.8116,-1.8143,-1.8143,-1.837,-1.849,-1.849,-1.8718,-1.8731,-1.849,-1.9011,-1.9158,-1.8931,-1.9225,-2.0222,-2.1685,-2.2263,-2.3357,-2.4912,-2.6697,-2.747,-2.7525,-2.8932,-2.9668,-3.0039,-3.0469,-3.0742,-3.0879,-3.0801,-3.082,-3.0898,-1.541,-1.541,0.0,0.0,0.0,0.0,0.0,0.0,0.0,0.0,0.0,0.0,0.0,0.0,0.0,0.0,0.0,0.0,-1.3801,0.0,-1.169,-1.2184,-1.1703,-1.1543,-1.1846,-1.153,-1.1129,-1.064,0.0,0.0,0.0,0.0,0.0,0.0,-1.0854,0.0,0.0,0.0,-1.1997,0.0,-1.3107,-1.3786,0.0,-1.4175,-1.4937,-1.6295,-1.7154,-1.7261,-1.6927,0.0,-1.6406,-1.5965,0.0,-1.4639,-1.3733,-1.4119,0.0,0.0,0.0,0.0,0.0,0.0,-1.2398,0.0,0.0,0.0,-1.1276,-1.0801,0.0,0.0,0.0,0.0,0.0,0.0,0.0,0.0,0.0,0.0,0.0,0.0,0.0,0.0,0.0,-1.6831,-1.6486,-1.6576,-1.6767,-1.6914,-1.6914,-1.7916,-1.849,-1.849,-1.8517,-1.8517,-1.849,-1.8811,-1.8958,-1.8931,-1.9225,-1.9502,-1.9805,-2.2441,-2.3973,-2.4701,-2.7141,-2.8362,-2.871,-2.8875,-2.9101,-2.9372,-2.9609,-3.0195,-3.084,-3.043,-3.0527,-3.0898,-1.541,-1.541,0.0,0.0,0.0,0.0,0.0,0.0,0.0,0.0,0.0,0.0,0.0,0.0,0.0,0.0,0.0,-1.5542,0.0,0.0,-1.3365,-1.3066,-1.2345,-1.1997,-1.2118,-1.1837,-1.1476,-1.1062,-1.1062,0.0,0.0,0.0,0.0,0.0,-1.0854,0.0,-1.1957,0.0,0.0,0.0,0.0,0.0,0.0,-1.4001,-1.4736,-1.6152,-1.7208,-1.7208,-1.6727,0.0,-1.6914,0.0,0.0,0.0,0.0,-1.4389,0.0,0.0,0.0,0.0,0.0,0.0,0.0,0.0,-1.161,0.0,-1.0935,0.0,0.0,0.0,0.0,0.0,0.0,0.0,-1.1337,0.0,0.0,0.0,0.0,0.0,0.0,0.0,0.0,0.0,0.0,0.0,-1.5591,-1.5952,-1.5952,-1.6901,-1.7462,-1.7462,-1.7782,-1.7889,-1.7769,-1.8357,-1.8677,-1.8677,-1.8971,-1.9199,-1.943,-2.0658,-2.2286,-2.4149,-2.5238,-2.6755,-2.8574,-2.8809,-2.9101,-2.945,-2.9411,-2.9668,-3.0156,-3.0488,-3.0723,-3.0898,-1.541,0.0,0.0,0.0,0.0,0.0,0.0,0.0,0.0,0.0,0.0,0.0,-1.9099,-1.8907,0.0,0.0,-1.8935,-1.8399,0.0,0.0,-1.5142,-1.3923,-1.3026,-1.2559,-1.2559,-1.2104,-1.169,-1.1303,-1.1303,0.0,0.0,0.0,0.0,0.0,0.0,-1.127,-1.2198,0.0,0.0,-1.3935,-1.4175,-1.4186,-1.4162,-1.4093,-1.4692,-1.5752,-1.7007,-1.7088,-1.6633,-1.6978,-1.7273,0.0,-1.6764,0.0,-1.5805,0.0,0.0,0.0,-1.3026,0.0,0.0,0.0,0.0,0.0,0.0,0.0,0.0,0.0,0.0,0.0,0.0,0.0,0.0,-1.0586,0.0,-1.1538,0.0,0.0,0.0,0.0,0.0,0.0,0.0,0.0,0.0,-1.348,-1.4376,-1.4803,-1.4563,-1.5925,-1.6593,-1.6353,-1.7074,-1.742,-1.7206,-1.7956,-1.841,-1.849,-1.8784,-1.9078,-1.9417,-1.9809,-2.1373,-2.3822,-2.4267,-2.5882,-2.832,-2.8633,-2.9023,-2.9489,-2.9199,-2.916,-2.9316,-3.0215,-3.0684,-3.0898,-1.541,-1.541,0.0,0.0,0.0,0.0,0.0,0.0,0.0,0.0,0.0,0.0,0.0,0.0,0.0,0.0,0.0,-2.1905,-1.9979,0.0,-1.661,0.0,0.0,-1.3186,-1.3186,-1.2355,-1.1618,-1.1009,-1.1009,0.0,0.0,0.0,0.0,0.0,0.0,-1.1316,-1.194,-1.2198,-1.2345,-1.2452,-1.328,-1.3467,-1.34,0.0,-1.519,-1.5223,-1.6683,0.0,0.0,-1.662,-1.6914,0.0,0.0,0.0,0.0,0.0,0.0,0.0,0.0,0.0,0.0,-1.3786,0.0,0.0,0.0,0.0,-1.2011,0.0,0.0,0.0,0.0,-1.06,-1.0586,-1.0586,-1.0613,0.0,0.0,0.0,0.0,0.0,0.0,0.0,0.0,0.0,0.0,-1.198,-1.3026,-1.328,-1.2452,-1.5137,-1.6313,-1.5471,-1.6616,-1.7206,-1.7206,-1.7756,-1.821,-1.849,-1.8784,-1.9078,-1.943,-2.0859,-2.2363,-2.3877,-2.5371,-2.6879,-2.8301,-2.8301,-2.8652,-2.916,-2.8984,-2.8691,-2.8437,-2.9297,-3.0156,-3.0898,0.0,0.0,0.0,0.0,0.0,0.0,0.0,-1.6035,0.0,0.0,0.0,0.0,0.0,-2.594,-2.6188,0.0,0.0,-2.5133,-2.2127,-2.098,0.0,0.0,0.0,-1.4389,0.0,-1.3106,-1.2371,-1.1605,-1.177,0.0,0.0,0.0,0.0,0.0,0.0,-1.161,0.0,0.0,0.0,0.0,0.0,-1.4683,-1.4963,0.0,0.0,-1.5196,-1.667,-1.6697,0.0,-1.6994,-1.7088,-1.6927,-1.7367,-1.7034,-1.654,-1.6446,-1.5858,-1.5204,0.0,0.0,-1.475,-1.3826,0.0,0.0,0.0,0.0,0.0,0.0,0.0,0.0,0.0,-1.1591,-1.127,-1.068,-1.0586,-1.0586,0.0,0.0,0.0,0.0,0.0,0.0,0.0,0.0,0.0,-1.1028,-1.173,-1.2348,-1.2879,-1.4402,-1.5391,-1.5671,-1.6446,-1.686,-1.686,-1.7448,-1.7889,-1.8142,-1.8235,-1.8542,-1.9078,-1.9565,-2.1279,-2.3822,-2.4322,-2.5991,-2.832,-2.8594,-2.8828,-2.9043,-2.9473,-2.9551,-2.9473,-2.9766,-3.0293,-3.0898,-1.6133,0.0,0.0,0.0,0.0,0.0,0.0,0.0,0.0,0.0,-2.4445,0.0,-2.9036,0.0,-2.934,0.0,-2.9529,-2.8115,-2.3996,-2.3389,0.0,-1.809,-1.6887,0.0,0.0,0.0,-1.3789,-1.2861,0.0,-1.2489,0.0,0.0,0.0,0.0,0.0,0.0,0.0,0.0,-1.3119,0.0,0.0,-1.5311,0.0,0.0,-1.5271,-1.5404,0.0,-1.6473,-1.6126,-1.6981,-1.7088,-1.6927,-1.7367,-1.7168,-1.682,-1.6697,-1.6313,-1.5979,-1.5839,-1.5638,0.0,-1.4843,-1.4122,0.0,-1.3226,0.0,-1.352,0.0,0.0,0.0,0.0,-1.2007,-1.1404,-1.0841,-1.0667,-1.0586,0.0,-1.0586,0.0,0.0,0.0,0.0,0.0,0.0,-1.0314,-1.0394,-1.1129,-1.1784,0.0,0.0,-1.4162,-1.4416,-1.5297,-1.5925,-1.6233,-1.682,-1.7435,-1.7995,-1.7995,-1.8302,-1.8918,-1.947,-2.0894,-2.3039,-2.3599,-2.5223,-2.753,-2.7796,-2.8237,-2.8769,-2.9375,-2.9785,-3.0039,-3.0254,-3.0566,-3.0898,0.0,0.0,0.0,0.0,-1.6088,0.0,0.0,0.0,-2.4429,0.0,-2.8665,-3.1554,-3.1425,-3.266,-3.2989,-3.1552,-3.2308,-3.078,-2.588,-2.5653,0.0,0.0,-1.8413,-1.8237,-1.8201,0.0,-1.5872,0.0,0.0,0.0,0.0,0.0,0.0,0.0,-1.1757,0.0,-1.1009,-1.1303,-1.2055,-1.3293,-1.5017,-1.5185,-1.4616,-1.5398,-1.5744,-1.5824,-1.6166,-1.6321,-1.6313,-1.6607,-1.6901,-1.7206,-1.7206,-1.7206,-1.7219,-1.7219,-1.7233,-1.7246,-1.7233,-1.6804,-1.6429,-1.662,-1.5832,0.0,0.0,0.0,-1.5545,0.0,0.0,0.0,0.0,0.0,-1.1022,-1.0995,-1.0774,-1.0586,-1.0586,0.0,0.0,0.0,0.0,0.0,0.0,-1.0412,-1.0452,-1.0154,-1.1156,0.0,0.0,0.0,-1.2772,-1.1993,-1.3333,-1.4509,-1.5391,-1.5979,-1.686,-1.7969,-1.8023,-1.8385,-1.9061,-2.0521,-2.1425,-2.1911,-2.3319,-2.4765,-2.6209,-2.6209,-2.706,-2.8359,-2.8789,-2.9414,-3.0117,-3.0684,-3.0898,-3.0898,-1.5996,-1.5988,-1.5932,0.0,-1.5713,-1.6528,0.0,0.0,0.0,0.0,-3.0996,-3.3287,-3.4222,-3.4948,-3.5073,-3.4375,-3.3979,0.0,0.0,0.0,0.0,-2.2555,-2.1803,-2.0947,-1.9761,-1.9862,-1.9389,-1.838,0.0,0.0,-1.456,0.0,0.0,0.0,0.0,0.0,-1.1009,-1.1303,-1.173,-1.2318,-1.344,-1.4135,0.0,0.0,-1.5257,-1.5824,-1.6166,-1.6321,-1.6313,-1.6607,-1.6901,-1.7206,-1.7206,-1.7353,-1.7527,-1.7527,-1.7635,-1.7769,-1.7528,-1.7259,-1.6884,-1.6473,-1.5832,-1.5244,0.0,0.0,0.0,0.0,0.0,0.0,0.0,0.0,-1.1538,-1.1062,-1.0774,-1.0586,-1.0586,0.0,0.0,-1.0586,0.0,0.0,-1.0479,-1.0314,-1.0287,-1.0466,-1.0514,0.0,0.0,0.0,0.0,-1.2852,-1.3667,-1.4509,-1.5391,-1.5979,-1.6754,-1.7702,-1.8731,-1.9575,-2.0311,-2.1643,-2.3282,-2.4986,-2.5371,-2.6372,-2.7726,-2.7726,-2.8134,-2.8809,-2.9238,-2.9922,-3.0684,-3.084,-3.0898,-3.0898,-1.6804,0.0,0.0,-1.6908,0.0,0.0,-2.066,0.0,0.0,-2.9456,-3.209,0.0,-3.4726,-3.5527,-3.5762,-3.5137,-3.4629,0.0,-3.0911,0.0,0.0,-2.5108,-2.4637,-2.3906,-2.2786,-2.24,0.0,-2.0891,0.0,0.0,-1.5435,0.0,0.0,0.0,0.0,-1.165,0.0,-1.1637,-1.1904,-1.2158,-1.332,0.0,0.0,-1.4905,-1.5358,-1.5798,-1.6019,-1.6086,-1.6099,-1.6273,-1.6526,-1.6817,-1.6817,-1.7018,-1.7194,-1.7194,-1.7328,-1.7448,-1.7408,-1.7326,-1.7179,-1.7061,-1.67,-1.6339,-1.6313,-1.6446,-1.6647,0.0,-1.6046,-1.5284,0.0,0.0,0.0,-1.1516,-1.0948,-1.0586,-1.0586,0.0,0.0,0.0,-1.0935,0.0,-1.0626,-1.0439,-1.0327,-1.0399,-1.0327,0.0,0.0,0.0,0.0,-1.2599,-1.3454,-1.4188,-1.4816,-1.5658,-1.6192,-1.6496,-1.761,-1.8833,-2.0181,-2.2006,-2.3631,-2.5151,-2.5827,-2.6554,-2.733,-2.733,-2.7975,-2.8984,-2.9609,-3.0273,-3.0898,-3.0898,-3.0898,-3.0898,0.0,0.0,0.0,0.0,0.0,0.0,0.0,-2.5342,0.0,-3.0488,0.0,-3.4258,-3.4316,-3.5293,-3.5625,-3.4863,0.0,-3.3597,-3.1064,-3.0765,-2.9641,-2.7097,-2.6918,-2.6619,-2.6079,-2.4762,-2.3706,0.0,-1.9145,-1.6694,0.0,0.0,0.0,0.0,0.0,0.0,0.0,-1.2051,-1.2278,0.0,-1.3908,-1.4522,-1.4616,-1.5451,-1.5784,-1.5784,-1.5784,-1.5784,-1.5784,-1.5784,-1.6019,-1.6321,-1.6321,-1.6473,-1.67,-1.67,-1.67,-1.6767,-1.7072,-1.7166,-1.7326,-1.7796,-1.7756,-1.7635,-1.7849,-1.7742,-1.7569,-1.7528,-1.662,-1.5784,-1.5784,0.0,0.0,0.0,-1.1363,0.0,0.0,0.0,0.0,0.0,0.0,0.0,-1.1002,-1.0734,-1.0479,-1.0194,0.0,0.0,0.0,0.0,0.0,-1.1873,-1.2946,-1.3748,-1.4202,-1.5204,-1.5498,-1.5129,-1.6075,-1.7611,-1.9706,-2.2064,-2.3597,-2.4365,-2.5809,-2.6372,-2.6372,-2.6372,-2.7431,-2.9082,-2.9961,-3.0527,-3.0898,-3.0898,-3.0898,-3.0898,0.0,0.0,0.0,0.0,0.0,-2.5392,-2.6943,-3.0003,-3.2598,-3.375,-3.4648,-3.5293,-3.5644,-3.5566,-3.543,-3.5293,-3.4922,0.0,0.0,0.0,0.0,-2.9199,-2.8755,-2.7973,-2.6885,-2.6959,-2.6724,-2.6195,-2.0819,-1.8117,-1.7917,0.0,0.0,0.0,0.0,0.0,-1.1429,-1.2051,0.0,-1.2141,-1.3828,-1.4522,-1.4616,-1.5451,-1.5784,-1.5784,-1.5784,-1.5784,-1.5784,-1.5784,-1.6019,-1.6321,-1.6321,-1.6473,-1.67,-1.67,-1.67,-1.6714,-1.6767,-1.7018,-1.7233,-1.7326,-1.7448,-1.7528,-1.7393,-1.7448,-1.7515,-1.7326,-1.6486,-1.5784,-1.5784,0.0,0.0,0.0,0.0,0.0,0.0,0.0,0.0,0.0,0.0,-1.2141,-1.2692,-1.1457,0.0,0.0,0.0,0.0,0.0,0.0,0.0,0.0,-1.2583,0.0,0.0,0.0,-1.5311,-1.5685,-1.7208,-1.8935,-2.0815,-2.344,-2.5493,-2.7017,-2.7645,-2.7906,-2.7906,-2.7906,-2.8513,-2.9551,-3.043,-3.082,-3.0898,-3.0898,-3.0898,-3.0898,0.0,0.0,0.0,0.0,0.0,0.0,0.0,-3.3125,0.0,-3.4414,-3.457,-3.4785,-3.498,-3.543,-3.5625,-3.541,-3.4961,-3.4531,-3.4101,-3.2486,-3.1364,-3.103,-3.0554,-2.9686,-2.8427,-2.7926,-2.713,-2.5947,-2.1344,-1.8453,-1.7236,0.0,0.0,0.0,0.0,-1.2051,0.0,0.0,0.0,-1.3574,-1.4242,-1.4745,-1.5198,-1.5624,-1.5784,-1.5784,-1.5784,-1.5784,-1.5784,-1.5784,-1.5925,-1.6046,-1.6046,-1.6139,-1.6246,-1.6246,-1.6246,-1.6286,-1.6433,-1.67,-1.6954,-1.7166,-1.73,-1.742,-1.742,-1.742,-1.742,-1.742,-1.6914,-1.6473,-1.6313,-1.5337,0.0,0.0,0.0,0.0,0.0,0.0,-1.1591,0.0,0.0,0.0,0.0,0.0,0.0,0.0,0.0,0.0,0.0,0.0,0.0,0.0,0.0,0.0,-1.4496,0.0,-1.5404,-1.5391,-1.7392,-1.9382,-2.1419,-2.3868,-2.611,-2.8008,-2.8203,-2.8301,-2.832,-2.8769,-2.9199,-2.9704,-3.0547,-3.0898,-3.0898,-3.0898,-3.0898,-3.0898,0.0,-2.4394,0.0,0.0,-2.8496,0.0,-3.2812,-3.4863,-3.5781,-3.4766,-3.4375,-3.4277,-3.4473,-3.5234,-3.5605,-3.5273,-3.4902,-3.4473,-3.3965,-3.3144,-3.2519,-3.2187,-3.166,-3.0859,-2.9726,-2.8072,-2.6517,-2.5029,-2.1193,-1.8133,-1.6001,-1.4769,0.0,0.0,0.0,0.0,0.0,0.0,-1.3641,-1.4914,-1.4816,-1.5217,-1.5784,-1.5784,-1.5784,-1.5784,-1.5784,-1.5784,-1.5784,-1.5784,-1.5784,-1.5784,-1.5784,-1.5784,-1.5784,-1.5784,-1.5784,-1.5885,-1.6112,-1.6393,-1.6673,-1.6951,-1.7058,-1.7166,-1.7341,-1.7273,-1.7166,-1.7355,-1.7219,-1.6965,-1.674,-1.6086,0.0,0.0,0.0,0.0,0.0,0.0,-1.2261,0.0,0.0,0.0,-1.2238,0.0,0.0,0.0,0.0,0.0,-1.0586,0.0,0.0,0.0,0.0,-1.3654,-1.4269,0.0,-1.5543,-1.5649,-1.7566,-1.9685,-2.1962,-2.4164,-2.6259,-2.8164,-2.8262,-2.8301,-2.8359,-2.9219,-2.9626,-2.9704,-3.0547,-3.0898,-3.0898,-3.0898,-3.0898,-3.0898,0.0,0.0,0.0,0.0,0.0,0.0,-3.2363,-3.4746,-3.6562,-3.6445,-3.5391,-3.4941,-3.5742,-3.5234,-3.4805,-3.4766,-3.4726,-3.4355,-3.3535,-3.2695,-3.2268,-3.2229,-3.1387,-3.0703,-3.0156,-2.7302,-2.5569,0.0,0.0,-1.7157,-1.5703,-1.4838,0.0,0.0,0.0,0.0,0.0,-1.4402,-1.4656,-1.4629,-1.5345,-1.5704,-1.5784,-1.5784,-1.5784,-1.5784,-1.5784,-1.5784,-1.5784,-1.5784,-1.5784,-1.5784,-1.5784,-1.5784,-1.5784,-1.5784,-1.5784,-1.5784,-1.5858,-1.6086,-1.6326,-1.6402,-1.6553,-1.6754,-1.678,-1.6767,-1.6754,-1.678,-1.6553,-1.642,-1.666,-1.642,-1.6246,0.0,0.0,0.0,0.0,0.0,-1.3387,-1.4175,0.0,0.0,-1.3173,-1.308,0.0,0.0,-1.1082,0.0,0.0,0.0,0.0,-1.1873,0.0,-1.3213,-1.4914,-1.4723,-1.5631,-1.7656,-1.8523,-2.0329,-2.2921,-2.4736,-2.6371,-2.7806,-2.8125,-2.8301,-2.8359,-2.9219,-2.9626,-2.9704,-3.0547,-3.0898,-3.0898,-3.0898,-3.0898,-3.0898,0.0,0.0,0.0,0.0,0.0,0.0,0.0,-3.5449,-3.5996,-3.625,-3.5605,-3.5137,-3.5215,-3.4902,-3.4707,-3.4707,-3.4473,-3.418,-3.3828,-3.2773,-3.2229,-3.2229,-3.1348,-3.0664,-3.0215,-2.7605,-2.5594,0.0,0.0,-1.7728,-1.4993,-1.5028,-1.4603,0.0,0.0,-1.4162,-1.4442,-1.4629,-1.4937,-1.5291,-1.5638,-1.5784,-1.5784,-1.5784,-1.5784,-1.5784,-1.5784,-1.5784,-1.5784,-1.5784,-1.5784,-1.5784,-1.5784,-1.5784,-1.5784,-1.5784,-1.5784,-1.5784,-1.5784,-1.6046,-1.6321,-1.6321,-1.6366,-1.6486,-1.666,-1.6567,-1.65,-1.6673,-1.6607,-1.6567,-1.6687,-1.6607,-1.6339,-1.5752,0.0,0.0,0.0,0.0,0.0,-1.3694,0.0,-1.3387,-1.2492,-1.2412,0.0,0.0,0.0,0.0,0.0,0.0,0.0,-1.1109,0.0,-1.2639,-1.4416,-1.4843,-1.649,-1.9351,-2.0625,-2.24,-2.4601,-2.6172,-2.73,-2.8047,-2.8223,-2.8301,-2.8359,-2.9219,-2.9626,-2.9704,-3.0547,-3.0898,-3.0898,-3.0898,-3.0898,-3.0898,-3.2109,0.0,-3.2637,0.0,-3.3809,-3.4121,-3.6016,-3.5781,-3.541,-3.5449,-3.5195,-3.498,-3.4902,-3.4668,-3.4473,-3.4336,-3.4062,-3.3769,-3.3535,-3.2539,-3.1973,-3.1973,-3.1269,0.0,-2.968,-2.7407,-2.5199,-2.3058,-2.0747,-1.7944,-1.479,-1.5204,0.0,0.0,-1.4669,-1.4977,-1.5458,-1.5164,-1.5444,-1.6072,-1.5851,-1.5885,-1.5952,-1.5858,-1.5784,-1.5784,-1.5784,-1.5784,-1.5784,-1.5784,-1.5784,-1.5784,-1.5784,-1.5784,-1.5784,-1.5784,-1.5784,-1.5784,-1.5784,-1.5979,-1.6139,-1.6139,-1.6139,-1.6219,-1.6513,-1.6353,-1.6206,-1.6406,-1.6446,-1.6446,-1.6446,-1.6526,-1.6313,-1.5531,0.0,0.0,0.0,-1.4041,0.0,-1.3267,-1.344,-1.3039,-1.1658,-1.1752,0.0,0.0,0.0,0.0,0.0,0.0,0.0,0.0,0.0,0.0,-1.3814,-1.5218,-1.7465,-2.0514,-2.257,-2.4491,-2.6284,-2.7353,-2.8086,-2.8476,-2.8476,-2.8476,-2.8535,-2.9394,-2.9687,-2.9704,-3.0547,-3.0898,-3.0898,-3.0898,-3.0898,-3.0898,-3.4414,-3.5019,-3.5488,-3.5918,-3.6328,-3.6348,-3.5527,-3.541,-3.5078,-3.4219,-3.4082,-3.4414,-3.5293,-3.4609,-3.3906,-3.3476,-3.3437,-3.3066,-3.2307,-3.1777,-3.1523,0.0,0.0,-3.0138,-2.8468,-2.6275,-2.4014,-2.1798,0.0,0.0,-1.5391,0.0,-1.6005,-1.7152,-1.7152,-1.7005,-1.666,-1.638,-1.642,-1.6647,-1.6059,-1.6005,-1.6233,-1.5939,-1.5784,-1.5784,-1.5784,-1.5784,-1.5784,-1.5784,-1.5784,-1.5784,-1.5784,-1.5784,-1.5784,-1.5784,-1.5784,-1.5784,-1.5784,-1.5784,-1.5832,-1.5832,-1.5832,-1.5912,-1.6206,-1.6046,-1.5784,-1.5798,-1.5798,-1.5798,-1.5798,-1.6086,-1.6321,-1.6308,0.0,0.0,0.0,-1.5979,0.0,-1.3414,-1.3975,-1.3467,-1.0868,-1.139,0.0,0.0,0.0,0.0,0.0,0.0,0.0,-1.0982,-1.0995,0.0,-1.3213,-1.5871,-1.8459,-2.1035,-2.4083,-2.6318,-2.7676,-2.8086,-2.8516,-2.8906,-2.8906,-2.8906,-2.8984,-2.9844,-2.9941,-2.9704,-3.0547,-3.0898,-3.0898,-3.0898,-3.0898,-3.0898,-3.4199,-3.4629,-3.5059,-3.5508,-3.5449,-3.5351,-3.5391,-3.4883,-3.4492,-3.4492,-3.3984,-3.3848,-3.4434,-3.3984,-3.3457,0.0,-3.2988,-3.2754,0.0,-3.1758,-3.1523,-3.1523,-2.9993,-2.8979,-2.8408,-2.6158,-2.4548,-2.3634,0.0,0.0,0.0,-1.6086,-1.6601,-1.765,-1.7109,-1.7332,-1.8015,-1.699,-1.662,-1.6673,-1.6286,-1.6192,-1.6246,-1.5939,-1.5784,-1.5784,-1.5784,-1.5784,-1.5784,-1.5784,-1.5784,-1.5784,-1.5784,-1.5784,-1.5824,-1.6072,-1.5992,-1.5872,-1.6072,-1.5979,-1.5784,-1.5784,-1.5784,-1.5811,-1.5952,-1.5899,-1.5784,-1.5784,-1.5784,-1.5784,-1.5784,-1.5912,-1.5965,-1.5965,-1.5965,0.0,-1.5965,0.0,-1.4509,-1.3347,-1.3454,-1.3053,-1.1631,-1.2265,0.0,0.0,0.0,0.0,0.0,0.0,0.0,0.0,-1.1182,0.0,-1.3453,-1.5331,-1.8108,-2.1744,-2.3538,-2.5684,-2.8105,-2.8535,-2.8789,-2.8945,-2.9238,-2.9355,-2.9414,-2.9961,-3.0117,-3.0059,-3.0664,-3.0898,-3.0898,-3.0898,-3.0898,-3.0898,-3.4277,-3.4512,-3.4785,-3.5078,-3.4883,-3.4746,-3.4883,-3.4434,-3.4101,-3.4199,-3.375,-3.3535,-3.3809,-3.3594,0.0,-3.2832,-3.2656,-3.2383,-3.1953,-3.1523,-3.1289,-3.1289,-2.9405,-2.811,-2.7512,-2.5881,0.0,-2.3773,-2.241,-2.0803,-1.9016,-1.8217,-1.816,-1.8758,-1.7696,-1.7589,-1.821,-1.7319,-1.6941,-1.6994,-1.6593,-1.6549,-1.6603,-1.6152,-1.5992,-1.5979,-1.5872,-1.5784,-1.5784,-1.5784,-1.5784,-1.5798,-1.5965,-1.5992,-1.6032,-1.6219,-1.6219,-1.6192,-1.638,-1.6299,-1.6152,-1.6152,-1.6152,-1.6152,-1.6152,-1.6072,-1.5992,-1.5992,-1.5912,-1.5784,-1.5784,-1.5784,-1.5784,-1.5784,-1.5784,-1.5784,-1.5784,0.0,-1.4188,-1.332,-1.3213,0.0,0.0,-1.2786,-1.3333,0.0,0.0,0.0,0.0,0.0,0.0,-1.2131,-1.2545,-1.3253,-1.4295,-1.685,-1.9512,-2.2114,-2.4576,-2.6646,-2.832,-2.8906,-2.916,-2.918,-2.9609,-2.9805,-2.9844,-3.0273,-3.0351,-3.0234,-3.0703,-3.0898,-3.0898,-3.0898,-3.0898,-3.0898,-3.4531,-3.4609,-3.4609,0.0,-3.4629,0.0,-3.4121,-3.4043,-3.3887,-3.3476,-3.3398,-3.3379,-3.3379,-3.3359,-3.3184,-3.2793,0.0,0.0,0.0,-3.1133,-3.0898,-3.0898,-2.9275,-2.7692,-2.6227,-2.5621,-2.4428,-2.2617,-2.2957,-2.3081,-2.2921,-2.129,-2.0552,-2.0552,-1.8898,-1.809,-1.7898,-1.7405,-1.7393,-1.7528,-1.6967,-1.6901,-1.7139,-1.6563,-1.6348,-1.6273,-1.5992,-1.5824,-1.5858,-1.5838,-1.5824,-1.5912,-1.6206,-1.6313,-1.6388,-1.6388,-1.6513,-1.6714,-1.6727,-1.6727,-1.67,-1.67,-1.67,-1.67,-1.67,-1.65,-1.6348,-1.6348,-1.6086,-1.5838,-1.5858,-1.5811,-1.5811,-1.5784,-1.5784,-1.5784,-1.5784,-1.5025,-1.4215,-1.34,0.0,0.0,-1.2194,-1.312,-1.3666,0.0,0.0,0.0,0.0,0.0,-1.3053,-1.4122,-1.4727,-1.5169,-1.5458,-1.9773,-2.2097,-2.2452,-2.6814,-2.873,-2.8418,-2.9238,-2.9609,-2.9629,-3.0059,-3.0234,-3.0273,-3.0703,-3.0644,-3.0293,-3.0723,-3.0898,-3.0898,-3.0898,-3.0898,-3.0898,0.0,0.0,-3.3828,-3.416,-3.3945,-3.3809,-3.4043,-3.3789,-3.3535,-3.3437,-3.3144,-3.2949,-3.2949,-3.2656,-3.2422,-3.2324,-3.2226,-3.1992,-3.1543,-3.1133,-3.0898,-3.0898,-2.9275,-2.823,-2.7871,-2.6159,-2.4832,-2.3866,-2.4872,-2.4726,-2.3558,-2.2977,-2.3191,-2.4067,-2.1077,-2.0287,-2.1018,-1.8527,-1.7515,-1.7555,-1.7246,-1.7139,-1.7166,-1.674,-1.6607,-1.6593,-1.6526,-1.6353,-1.6206,-1.642,-1.6353,-1.6219,-1.6513,-1.6754,-1.6991,-1.6991,-1.6834,-1.6754,-1.7032,-1.6874,-1.67,-1.67,-1.67,-1.67,-1.67,-1.6647,-1.6607,-1.6607,-1.654,-1.6433,-1.6206,-1.6166,-1.6086,-1.5824,-1.5784,-1.5784,-1.5784,-1.5025,-1.4399,0.0,-1.4215,-1.4215,-1.4271,-1.4883,-1.5565,0.0,0.0,0.0,-1.6308,-1.5745,-1.5196,-1.4821,-1.4941,-1.537,-1.6059,-1.8909,-2.2107,-2.5628,-2.7836,-2.9043,-2.9277,-2.9805,-3.0059,-3.0078,-3.0527,-3.0723,-3.0742,-3.084,-3.082,-3.0742,-3.0859,-3.0898,-3.0898,-3.0898,-3.0898,-3.0898,-3.3418,-3.3418,-3.3496,-3.373,-3.3574,-3.3496,-3.375,-3.3574,-3.3418,-3.3418,-3.3066,-3.2793,-3.2793,-3.2422,-3.2229,-3.2229,-3.1992,-3.1777,-3.1543,-3.1133,-3.0898,-3.0898,-2.9275,-2.8051,-2.7314,-2.6772,-2.6086,-2.5405,-2.5858,-2.5316,-2.3822,-2.3624,-2.3552,-2.3353,-2.1363,-2.043,-2.0212,-1.8376,-1.7582,-1.7569,-1.746,-1.7393,-1.7367,-1.7021,-1.6914,-1.6887,-1.6754,-1.6607,-1.65,-1.6647,-1.6607,-1.6526,-1.682,-1.7072,-1.7233,-1.7367,-1.7235,-1.7141,-1.7353,-1.7235,-1.7101,-1.7101,-1.7101,-1.7101,-1.7101,-1.7007,-1.6914,-1.6914,-1.6807,-1.662,-1.6326,-1.6321,-1.6179,-1.5824,-1.5784,-1.5784,-1.5784,-1.5025,-1.4522,-1.4522,-1.4643,-1.479,-1.4995,-1.5858,-1.658,-1.6914,-1.6509,0.0,-1.7353,-1.7181,-1.6807,-1.6228,-1.6553,-1.7007,-1.7475,-2.0234,-2.3661,-2.7733,-2.8716,-2.9336,-2.959,-3.0215,-3.0391,-3.0215,-3.0684,-3.0898,-3.0898,-3.0898,-3.0898,-3.0898,-3.0898,-3.0898,-3.0898,-3.0898,-3.0898,-3.0898,-3.3418,-3.3418,-3.3418,-3.3418,-3.3418,-3.3418,-3.3418,-3.3379,-3.332,-3.332,-3.291,-3.2598,-3.2598,-3.2226,-3.1973,-3.1973,-3.1641,-3.1445,-3.1504,-3.1133,-3.0898,-3.0898,-2.953,-2.811,-2.6772,-2.7388,-2.7186,-2.6056,-2.6115,-2.5316,-2.3822,-2.4044,-2.3213,-2.1471,-2.0988,-1.9943,-1.8415,-1.7902,-1.7649,-1.7649,-1.7595,-1.7582,-1.7555,-1.7367,-1.7259,-1.7233,-1.6927,-1.6807,-1.678,-1.682,-1.6807,-1.682,-1.7179,-1.7259,-1.7313,-1.7515,-1.7582,-1.7582,-1.7582,-1.7582,-1.7582,-1.7582,-1.7582,-1.7582,-1.7582,-1.7447,-1.7259,-1.7259,-1.7007,-1.674,-1.6393,-1.6339,-1.6233,-1.5838,-1.5664,-1.5624,-1.5758,0.0,-1.4589,-1.4763,-1.5003,-1.5263,-1.5397,-1.6496,-1.7166,-1.7048,-1.7422,-1.7689,-1.7782,-1.8036,-1.8063,-1.7796,-1.8531,-1.9172,-1.9652,-2.2455,-2.5597,-2.9023,-2.9453,-2.9707,-2.9785,-3.0547,-3.0684,-3.0332,-3.0723,-3.0898,-3.0898,-3.0898,-3.0898,-3.0898,-3.0898,-3.0898,-3.0898,-3.0898,-3.0898,-3.0898,-3.3418,-3.3418,-3.3418,-3.3418,-3.3418,-3.3418,-3.3418,-3.3125,-3.2891,-3.2891,-3.2207,-3.1719,-3.1719,-3.1348,-3.1094,-3.1094,-3.1035,-3.1133,-3.1504,-3.1133,-3.0898,-3.0898,-3.0645,-3.0392,-3.0157,-2.8302,-2.599,-2.3163,-2.5108,-2.5316,-2.3822,-2.5151,-2.4896,-2.3334,-2.1779,-2.0932,-2.0527,-1.8673,-1.7916,-1.7902,-1.7689,-1.7582,-1.7582,-1.7528,-1.7515,-1.7515,-1.7462,-1.7288,-1.7166,-1.7368,-1.7288,-1.7179,-1.7474,-1.7515,-1.7528,-1.7569,-1.7582,-1.7582,-1.7582,-1.7582,-1.7582,-1.7582,-1.7582,-1.7582,-1.7582,-1.7542,-1.7515,-1.7515,-1.7475,-1.7275,-1.674,-1.6633,-1.646,-1.5864,-1.5158,-1.4977,-1.5678,0.0,-1.4883,-1.5885,-1.6094,-1.6415,-1.7152,-1.7206,-1.7594,-1.8504,-1.8155,-1.8142,-1.8691,-1.8758,-1.8771,-1.8718,-1.8851,-2.0259,-2.3015,-2.3933,-2.613,-2.9473,-2.9902,-3.0312,-3.0684,-3.082,-3.0859,-3.0781,-3.0859,-3.0898,-3.0898,-3.0898,-3.0898,-3.0898,-3.0898,-3.0898,-3.0898,-3.0898,-3.0898,-3.0898,-3.3418,-3.3418,-3.3418,-3.3418,-3.3418,-3.334,-3.3125,-3.293,-3.2715,-3.248,-3.1914,-3.1523,-3.1523,-3.1133,-3.0898,-3.0898,-3.0898,-3.0976,-3.1172,-3.0996,-3.0898,-3.0898,-3.0898,-3.0412,-2.9329,-2.7964,-2.5984,-2.3589,-2.5263,-2.4931,-2.2645,-2.4156,-2.3654,-2.1415,-2.1062,-2.0556,-1.985,-1.8374,-1.7889,-1.7969,-1.7702,-1.7582,-1.7582,-1.7582,-1.7582,-1.7582,-1.7582,-1.7502,-1.7447,-1.7542,-1.7541,-1.746,-1.7542,-1.7582,-1.7582,-1.7582,-1.7702,-1.7796,-1.7622,-1.7822,-1.8036,-1.7876,-1.7956,-1.8076,-1.8076,-1.7943,-1.7836,-1.7836,-1.7702,-1.7448,-1.7072,-1.6807,-1.6673,-1.6553,-1.5805,-1.5425,-1.6192,-1.5818,-1.5671,-1.6206,-1.6687,-1.7141,-1.7542,-1.7756,-1.8103,-1.8651,-1.8437,-1.8477,-1.8905,-1.8918,-1.9065,-1.9386,-2.0226,-2.1895,-2.4342,-2.5497,-2.7334,-2.9922,-3.0098,-3.0449,-3.0898,-3.0898,-3.0898,-3.0898,-3.0898,-3.0898,-3.0898,-3.0898,-3.0898,-3.0898,-3.0898,-3.0898,-3.0898,-3.0898,-3.0898,-3.0898,-3.3301,-3.3359,-3.3398,-3.3301,-3.3359,-3.3281,-3.2851,-3.2715,-3.25,-3.207,-3.1641,-3.1367,-3.1367,-3.1074,-3.0898,-3.0898,-3.0898,-3.0898,-3.0898,-3.0898,-3.0898,-3.0898,-3.0898,-2.9966,-2.8024,-2.7452,-2.6241,-2.4424,-2.5564,-2.4544,-2.1643,-2.3095,-2.2209,-1.9403,-2.0089,-1.9892,-1.8971,-1.8143,-1.7929,-1.8062,-1.7742,-1.7582,-1.7595,-1.7662,-1.7649,-1.7595,-1.7662,-1.7649,-1.7582,-1.7582,-1.7582,-1.7595,-1.7662,-1.7689,-1.7702,-1.7769,-1.8009,-1.8129,-1.7876,-1.8076,-1.8343,-1.8142,-1.8317,-1.849,-1.849,-1.8317,-1.8075,-1.8009,-1.7862,-1.7595,-1.7353,-1.7007,-1.6887,-1.7166,0.0,-1.5952,-1.662,-1.6393,-1.6273,-1.654,-1.7235,-1.7742,-1.7876,-1.8317,-1.8624,-1.8691,-1.8691,-1.8798,-1.9011,-1.9025,-1.9292,-1.988,-2.1451,-2.3181,-2.4895,-2.6619,-2.8405,-3.0195,-3.0312,-3.0547,-3.0898,-3.0898,-3.0898,-3.0898,-3.0898,-3.0898,-3.0898,-3.0898,-3.0898,-3.0898,-3.0898,-3.0898,-3.0898,-3.0898,-3.0898,-3.0898,-3.293,-3.3144,-3.3301,-3.291,-3.3164,-3.3281,-3.2851,-3.2461,-3.207,-3.1621,-3.1191,-3.0937,-3.0937,-3.0918,-3.0898,-3.0898,-3.0898,-3.0898,-3.0898,-3.0898,-3.0898,-3.0898,-3.0898,-2.9947,-2.7849,-2.7452,-2.6298,-2.431,-2.5509,-2.4544,-2.1643,-2.3095,-2.2209,-1.9417,-1.9492,-1.9435,-1.9292,-1.8691,-1.8437,-1.841,-1.7822,-1.7582,-1.7609,-1.7903,-1.7836,-1.7622,-1.7849,-1.7822,-1.7582,-1.7582,-1.7582,-1.7635,-1.7862,-1.7955,-1.8009,-1.8343,-1.8624,-1.8798,-1.8504,-1.825,-1.8089,-1.8397,-1.8477,-1.849,-1.849,-1.8477,-1.8384,-1.8049,-1.7969,-1.7862,-1.7609,-1.7367,-1.7179,-1.7192,0.0,0.0,-1.658,-1.6219,-1.6259,-1.7355,-1.7782,-1.821,-1.8771,-1.8865,-1.9011,-1.9279,-1.9305,-1.9319,-1.9332,-1.9332,-1.9599,-2.0127,-2.1783,-2.3371,-2.4895,-2.6959,-2.8702,-3.0195,-3.0644,-3.0859,-3.0898,-3.0898,-3.0898,-3.0898,-3.0898,-3.0898,-3.0898,-3.0898,-3.0898,-3.0898,-3.0898,-3.0898,-3.0898,-3.0898,-3.0898,-3.0898,-3.2773,-3.2715,-3.2676,-3.2773,-3.293,-3.2793,-3.2109,-3.209,-3.1914,-3.1211,-3.0996,-3.0898,-3.0898,-3.0898,-3.0898,-3.0898,-3.0898,-3.0898,-3.0898,-3.0898,-3.0898,-3.0898,-3.0898,-2.9833,-2.7546,-2.8313,-2.766,-2.5433,-2.6791,-2.6391,-2.4416,-2.4986,-2.41,-2.2096,-2.1938,-2.1463,-2.0716,-2.014,-1.9332,-1.8464,-1.8237,-1.8036,-1.7876,-1.7942,-1.809,-1.8116,-1.7849,-1.7929,-1.809,-1.7716,-1.8448,-1.9331,-1.832,-1.874,-1.9533,-1.8944,-1.8704,-1.8928,-2.0104,-1.9653,-1.8851,-1.8771,-1.8891,-1.9038,-1.9038,-1.8891,-1.8731,-1.8555,-1.845,-1.829,-1.817,-1.7889,-1.7809,-1.8183,0.0,-1.6994,-1.7716,-1.7462,-1.7316,-1.7822,-1.829,-1.8664,-1.8905,-1.9092,-1.9239,-1.9417,-1.9533,-1.9639,-1.9639,-1.9987,-2.0281,-2.0494,-2.2317,-2.4037,-2.5572,-2.8373,-3.0084,-3.0625,-3.0801,-3.0898,-3.0898,-3.0898,-3.0898,-3.0898,-3.0898,-3.0898,-3.0898,-3.0898,-3.0898,-3.0898,-3.0898,-3.0898,-3.0898,-3.0898,-3.0898,-3.0898,-3.2383,-3.2266,-3.2226,-3.2363,-3.25,-3.2402,-3.1816,-3.1855,-3.1758,-3.1172,-3.0976,-3.0898,-3.0898,-3.0898,-3.0898,-3.0898,-3.0898,-3.0898,-3.0898,-3.0898,-3.0898,-3.0898,-3.0898,-2.9988,-2.8069,-2.9047,-2.868,-2.6771,-2.778,-2.7565,-2.61,-2.61,-2.5261,-2.3822,-2.3629,-2.3093,-2.2276,-2.1759,-2.0724,-1.932,-1.9223,-1.8796,-1.8196,-1.8235,-1.8397,-1.845,-1.8116,-1.8523,-1.9112,-1.8735,-1.9813,-2.1179,-2.0047,-2.0604,-2.1399,-2.0146,-1.9625,-1.9668,-2.0644,-2.0141,-1.9492,-1.9663,-1.9543,-1.943,-1.943,-1.9212,-1.9139,-1.954,-1.9095,-1.8791,-1.9265,-1.87,-1.833,-1.8838,-1.833,-1.8009,-1.8437,-1.8397,-1.8262,-1.8262,-1.8758,-1.9065,-1.9065,-1.9332,-1.9506,-1.9506,-1.9773,-1.9933,-1.9933,-2.0401,-2.0681,-2.0681,-2.262,-2.4116,-2.5253,-2.8486,-3.0079,-3.0138,-3.0645,-3.0898,-3.0898,-3.0898,-3.0898,-3.0898,-3.0898,-3.0898,-3.0898,-3.0898,-3.0898,-3.0898,-3.0898,-3.0898,-3.0918,-3.1035,-3.1094,-3.1094,-3.168,-3.1875,-3.2031,-3.1601,-3.1875,-3.2229,-3.2229,-3.1797,-3.1523,-3.1523,-3.1152,-3.0898,-3.0898,-3.0898,-3.0898,-3.0898,-3.0898,-3.0898,-3.0898,-3.0879,-3.0879,-3.0898,-3.0898,-3.0469,-2.959,-2.9626,-2.916,-2.8301,-2.8301,-2.7565,-2.61,-2.61,-2.5316,-2.3822,-2.3822,-2.3822,-2.3805,-2.3552,-2.2583,-2.1188,-2.0858,-1.9826,-1.8531,-1.8811,-1.8744,-1.8531,-1.8824,-1.971,-2.0723,-2.0708,-2.1679,-2.2975,-2.334,-2.3596,-2.3487,-2.204,-2.1586,-2.1259,-1.9809,-1.943,-1.9764,-2.1259,-2.0472,-1.943,-1.9417,-1.943,-1.9726,-2.0832,-1.9907,-1.9371,-2.0885,-1.9709,-1.8597,-1.8878,-1.8691,-1.8504,-1.8504,-1.8744,-1.8931,-1.8931,-1.9185,-1.943,-1.943,-1.9626,-1.98,-1.98,-2.0067,-2.018,-2.0241,-2.0521,-2.0681,-2.0681,-2.2544,-2.3574,-2.3574,-2.6789,-2.8426,-2.8426,-3.0079,-3.0898,-3.0898,-3.0898,-3.0898,-3.0898,-3.0898,-3.0898,-3.0898,-3.0898,-3.0898,-3.0898,-3.0898,-3.0898,-3.0937,-3.1367,-3.1523,-3.1523,-3.1562,-3.1621,-3.168,-3.1543,-3.2129,-3.2402,-3.1797,-3.1855,-3.1875,-3.1562,-3.1152,-3.0898,-3.0898,-3.0898,-3.0898,-3.0898,-3.0898,-3.0898,-3.0898,-3.0586,-3.0547,-3.0879,-3.0898,-3.0605,-3.0019,-2.9726,-2.9297,-2.873,-2.8437,-2.8067,-2.7618,-2.7618,-2.7403,-2.6952,-2.6952,-2.6391,-2.5426,-2.5302,-2.3673,-2.1163,-2.1298,-2.0286,-1.8811,-1.8891,-1.8998,-1.9065,-1.8731,-1.9808,-2.1283,-2.0873,-2.27,-2.5163,-2.5286,-2.4624,-2.371,-2.3263,-2.242,-2.1756,-2.2322,-2.109,-2.0024,-2.1261,-2.0472,-1.9649,-2.0702,-2.0141,-1.9506,-1.9858,-1.9571,-1.9398,-1.9844,-1.9503,-1.9132,-1.9225,-1.9158,-1.9172,-1.9386,-1.9305,-1.9305,-1.9519,-1.9439,-1.9452,-1.9653,-1.9746,-1.988,-2.0094,-2.0374,-2.0628,-2.0842,-2.0935,-2.0975,-2.0975,-2.156,-2.1853,-2.1853,-2.6227,-2.8426,-2.8426,-3.0079,-3.0274,-2.9157,-2.9157,-2.9157,-2.9098,-2.8742,-2.9471,-3.0898,-3.0898,-3.0898,-3.0898,-3.0898,-3.0898,-3.0937,-3.1367,-3.1523,-3.1523,-3.1777,-3.1777,-3.1777,-3.1777,-3.2207,-3.2363,-3.1855,-3.1992,-3.207,-3.1816,-3.1406,-3.1133,-3.1133,-3.0996,-3.0898,-3.0898,-3.0898,-3.0898,-3.0898,-3.0625,-3.0586,-3.0879,-3.0898,-3.0664,-3.0215,-2.9785,-2.9355,-2.8926,-2.8496,-2.8301,-2.8301,-2.8301,-2.8301,-2.8301,-2.8301,-2.778,-2.6987,-2.6987,-2.5466,-2.3067,-2.2607,-2.1805,-2.0754,-2.0203,-2.0487,-2.1101,-2.072,-2.1815,-2.3254,-2.2269,-2.3888,-2.6445,-2.7012,-2.6682,-2.5828,-2.4591,-2.3529,-2.271,-2.2464,-2.1117,-2.0128,-2.1598,-2.0755,-1.9928,-2.1435,-2.0598,-1.9748,-2.0489,-2.0105,-1.9883,-2.0517,-2.0119,-1.9706,-1.9706,-1.9706,-1.9773,-1.9947,-1.972,-1.9599,-1.9773,-1.9639,-1.9613,-1.9786,-2.0013,-2.0267,-2.0561,-2.0748,-2.0922,-2.1096,-2.1109,-2.1109,-2.1109,-2.1109,-2.1109,-2.1109,-2.4717,-2.6486,-2.6547,-2.8188,-2.8724,-2.8367,-2.7751,-2.817,-2.9353,-2.8128,-2.8861,-3.0898,-3.0898,-3.0898,-3.0898,-3.0898,-3.0898,-3.0937,-3.1367,-3.1523,-3.1523,-3.217,-3.2109,-3.215,-3.2111,-3.217,-3.2209,-3.2109,-3.2109,-3.2109,-3.2109,-3.1738,-3.1465,-3.1465,-3.1113,-3.0898,-3.0898,-3.0898,-3.0898,-3.0898,-3.0859,-3.084,-3.0898,-3.0859,-3.0644,-3.0273,-2.9844,-2.9434,-2.9043,-2.8613,-2.8379,-2.834,-2.8398,-2.8379,-2.834,-2.834,-2.834,-2.834,-2.832,-2.7457,-2.5991,-2.4544,-2.3933,-2.3654,-2.2138,-2.2548,-2.3815,-2.3503,-2.4505,-2.5753,-2.445,-2.519,-2.6938,-2.8248,-2.8868,-2.8578,-2.5707,-2.4622,-2.3751,-2.1096,-2.0174,-2.0278,-2.2067,-2.1163,-2.0269,-2.1715,-2.0923,-2.0324,-2.1947,-2.118,-2.0651,-2.2065,-2.112,-2.0167,-2.0167,-2.0167,-2.018,-2.0267,-2.0027,-1.9853,-1.988,-1.9853,-1.9853,-1.988,-2.0388,-2.0828,-2.1082,-2.1235,-2.1235,-2.1109,-2.1235,-2.1235,-2.1109,-2.1109,-2.1109,-2.1109,-2.2591,-2.345,-2.3636,-2.5375,-2.6893,-2.811,-2.6832,-2.7811,-3.047,-2.8367,-2.8742,-3.0898,-3.0898,-3.0898,-3.0898,-3.0898,-3.0898,-3.0937,-3.1328,-3.1484,-3.1523,-3.1719,-3.166,-3.1562,-3.123,-3.1719,-3.2051,-3.1719,-3.166,-3.166,-3.166,-3.1289,-3.1035,-3.1035,-3.0937,-3.0898,-3.0898,-3.0898,-3.0898,-3.0898,-3.0547,-3.0508,-3.0879,-3.0547,-3.0469,-3.0742,-3.0293,-3.0019,-2.9922,-2.9492,-2.9121,-2.8789,-2.9141,-2.9101,-2.8789,-2.8789,-2.8789,-2.8769,-2.8437,-2.7457,-2.61,-2.5772,-2.4875,-2.3654,-2.2138,-2.2761,-2.3991,-2.1305,-2.2265,-2.4935,-2.5421,-2.604,-2.6603,-2.6938,-2.6459,-2.5666,-2.4953,-2.3869,-2.2793,-2.2156,-2.1245,-2.0808,-2.2169,-2.1488,-2.0842,-2.2067,-2.1188,-2.0221,-2.0637,-2.0409,-2.0288,-2.0651,-2.0409,-2.0167,-2.0167,-2.0167,-2.0307,-2.0548,-2.0321,-2.0227,-2.0454,-2.0281,-2.0227,-2.0468,-2.0802,-2.1042,-2.1109,-2.2341,-2.2466,-2.1172,-2.2341,-2.2466,-2.1172,-2.1109,-2.1109,-2.1109,-2.1475,-2.2278,-2.3636,-2.6547,-2.7374,-2.653,-2.7434,-2.8051,-2.8247,-2.6893,-2.8068,-3.0898,-3.0898,-3.0898,-3.0898,-3.0898,-3.0898,-3.0898,-3.0996,-3.123,-3.1562,-3.1836,-3.1992,-3.1992,-3.1582,-3.2031,-3.2246,-3.1621,-3.1699,-3.1758,-3.1543,-3.1328,-3.1191,-3.1191,-3.1016,-3.0898,-3.0898,-3.0898,-3.0898,-3.0898,-3.0664,-3.0644,-3.0879,-3.0664,-3.0644,-3.0879,-3.0644,-3.041,-3.0195,-2.9785,-2.9043,-2.8089,-2.9119,-2.8633,-2.6929,-2.7735,-2.7567,-2.6678,-2.648,-2.584,-2.4948,-2.4396,-2.4575,-2.4945,-2.2797,-2.3546,-2.5417,-2.2879,-2.2528,-2.3534,-2.4828,-2.5014,-2.4837,-2.5639,-2.5654,-2.5185,-2.4424,-2.3534,-2.263,-2.2,-2.1273,-2.0854,-2.1628,-2.1369,-2.1238,-2.2432,-2.1512,-2.0481,-2.0628,-2.0655,-2.0655,-2.0655,-2.0655,-2.0655,-2.0655,-2.0655,-2.0708,-2.0855,-2.1293,-2.1338,-2.0779,-2.1196,-2.1394,-2.0918,-2.1015,-2.1411,-2.2215,-2.3076,-2.3559,-2.342,-2.4286,-2.3993,-2.2341,-2.2278,-2.1915,-2.1109,-2.1109,-2.1538,-2.2466,-2.4901,-2.6045,-2.6045,-2.6893,-2.7931,-2.9057,-2.6893,-2.7871,-3.0898,-3.0898,-3.0898,-3.0898,-3.0898,-3.0898,-3.0898,-3.0898,-3.1035,-3.1309,-3.1992,-3.2285,-3.2363,-3.2012,-3.2246,-3.2226,-3.1523,-3.1719,-3.1816,-3.1465,-3.1406,-3.1406,-3.1406,-3.1094,-3.0898,-3.0898,-3.0898,-3.0898,-3.0898,-3.0898,-3.0898,-3.0898,-3.0898,-3.0898,-3.0898,-3.0898,-3.0703,-3.0312,-2.9961,-2.8937,-2.7287,-2.8993,-2.816,-2.5286,-2.6924,-2.6632,-2.4892,-2.4842,-2.4454,-2.3868,-2.2844,-2.4048,-2.6109,-2.347,-2.4317,-2.6504,-2.4636,-2.3142,-2.227,-2.3546,-2.345,-2.3021,-2.4464,-2.5024,-2.4885,-2.3559,-2.2948,-2.2494,-2.1407,-2.0935,-2.0815,-2.1042,-2.1109,-2.1357,-2.2371,-2.1664,-2.0815,-2.1056,-2.1109,-2.1109,-2.1109,-2.1109,-2.1109,-2.1109,-2.1109,-2.1172,-2.1475,-2.2486,-2.2681,-2.1355,-2.2375,-2.2845,-2.1999,-2.1964,-2.2514,-2.3931,-2.424,-2.4901,-2.5924,-2.6288,-2.568,-2.4054,-2.3993,-2.3201,-2.1538,-2.179,-2.179,-2.1538,-2.3512,-2.4962,-2.6045,-2.6591,-2.8307,-3.0762,-2.7991,-2.8367,-3.0898,-3.0898,-3.0898,-3.0898,-3.0898,-3.0898,-3.0898,-3.0898,-3.0957,-3.1133,-3.1601,-3.1367,-3.1133,-3.1074,-3.1113,-3.1113,-3.0996,-3.1035,-3.1035,-3.0976,-3.0976,-3.0976,-3.0976,-3.0918,-3.0898,-3.0898,-3.0898,-3.0898,-3.0898,-3.0898,-3.0898,-3.0898,-3.0898,-3.0898,-3.0898,-3.0898,-3.0859,-3.0801,-3.0742,-2.9678,-2.7759,-2.9813,-2.9543,-2.7468,-2.9049,-2.8897,-2.7303,-2.6907,-2.591,-2.4589,-2.4405,-2.4596,-2.4787,-2.3165,-2.3766,-2.5146,-2.1973,-2.1498,-2.2468,-2.2646,-2.2797,-2.2899,-2.3187,-2.2566,-2.1727,-2.1475,-2.1384,-2.1308,-2.1159,-2.1082,-2.1056,-2.1096,-2.1109,-2.1159,-2.1308,-2.1168,-2.1069,-2.1096,-2.1109,-2.1109,-2.1109,-2.1109,-2.1109,-2.1109,-2.1109,-2.1601,-2.3076,-2.3405,-2.3437,-2.3266,-2.339,-2.4009,-2.5253,-2.5314,-2.5436,-2.568,-2.6953,-2.7254,-2.6045,-2.7314,-2.7314,-2.5741,-2.568,-2.4901,-2.3263,-2.4655,-2.4655,-2.3325,-2.6305,-2.7134,-2.6106,-2.892,-3.047,-3.0898,-3.045,-3.0509,-3.0898,-3.0898,-3.0898,-3.0898,-3.0898,-3.0898,-3.0898,-3.0898,-3.1191,-3.1641,-3.1172,-3.1406,-3.1445,-3.0976,-3.1289,-3.1445,-3.0957,-3.0898,-3.0898,-3.0898,-3.0898,-3.0898,-3.0898,-3.0898,-3.0898,-3.0898,-3.0898,-3.0898,-3.0898,-3.0898,-3.0898,-3.0898,-3.0898,-3.0898,-3.0898,-3.0898,-3.0898,-3.0898,-3.0898,-2.9925,-2.8174,-3.0062,-2.8965,-2.5589,-2.8097,-2.7186,-2.3898,-2.4579,-2.381,-2.217,-2.2361,-2.3037,-2.3636,-2.2227,-2.2801,-2.4024,-2.1422,-2.0897,-2.1493,-2.1493,-2.1591,-2.167,-2.1838,-2.1554,-2.1109,-2.1109,-2.1109,-2.1109,-2.1109,-2.1109,-2.1109,-2.1109,-2.1109,-2.1109,-2.1109,-2.1109,-2.1109,-2.1109,-2.1109,-2.1109,-2.1109,-2.1109,-2.1109,-2.1109,-2.1109,-2.1362,-2.209,-2.3014,-2.3931,-2.484,-2.4178,-2.424,-2.5863,-2.6166,-2.6728,-2.7644,-2.8585,-2.9107,-2.907,-2.9748,-2.926,-2.7391,-2.7314,-2.6591,-2.4962,-2.5619,-2.5619,-2.4962,-2.754,-2.8264,-2.7452,-3.0011,-3.1289,-3.1348,-3.1348,-3.1172,-3.0898,-3.0898,-3.0898,-3.0898,-3.0898,-3.0898,-3.0898,-3.0898,-3.1035,-3.1328]},{"header":{"parameterUnit":"m.s-1","parameterCategory":1,"la1":30.6,"la2":28.766,"lo1":-90.7593,"lo2":-88.6598,"dy":0.0162,"dx":0.0183,"nx":116,"ny":114,"refTime":"2023-06-26T06:00:00:Z","depth":0,"parameterNumber":3,"parameterNumberName":"V-component_of_WINDS"},"data":[0.0,0.0,0.0,0.0,0.0,0.0,0.0,0.0,0.0,0.0,0.0,0.0,0.0,0.0,0.0,0.0,0.0,0.0,0.0,0.0,0.0,0.0,0.0,0.0,0.0,0.0,0.0,0.0,0.0,0.0,0.0,0.0,0.0,0.0,0.0,0.0,0.0,0.0,0.0,0.0,0.0,0.0,0.0,0.0,0.0,0.0,0.0,0.0,0.0,0.0,0.0,0.0,0.0,0.0,0.0,0.0,0.0,0.0,0.0,0.0,0.0,0.0,0.0,0.0,0.0,0.0,0.0,0.0,0.0,0.0,0.0,0.0,0.0,0.0,0.0,0.0,0.0,0.0,0.0,0.0,0.0,0.0,0.0,0.0,0.0,0.0,0.0,0.0,0.0,0.0,0.0,0.0,0.0,0.0,0.0,0.0,0.0,0.0,0.0,0.0,0.0,0.0,0.0,0.0,0.0,0.0,0.0,0.0,0.0,0.0,0.0,0.0,0.0,0.0,0.0,0.0,0.0,0.0,0.0,0.0,0.0,0.0,0.0,0.0,0.0,0.0,0.0,0.0,0.0,0.0,0.0,0.0,0.0,0.0,0.0,0.0,0.0,0.0,0.0,0.0,0.0,0.0,0.0,0.0,0.0,0.0,0.0,0.0,0.0,0.0,0.0,0.0,0.0,0.0,0.0,0.0,0.0,0.0,0.0,0.0,0.0,0.0,0.0,0.0,0.0,0.0,0.0,0.0,0.0,0.0,0.0,0.0,0.0,0.0,0.0,0.0,0.0,0.0,0.0,0.0,0.0,0.0,0.0,0.0,0.0,0.0,0.0,0.0,0.0,0.0,0.0,0.0,0.0,0.0,0.0,0.0,0.0,0.0,0.0,0.0,0.0,0.0,0.0,0.0,0.0,0.0,0.0,0.0,0.0,0.0,0.0,0.0,0.0,0.0,0.0,0.0,0.0,0.0,0.0,0.0,0.0,0.0,0.0,0.0,0.0,0.0,0.0,0.0,0.0,0.0,0.0,0.0,0.0,0.0,0.0,0.0,0.0,0.0,0.0,0.0,0.0,0.0,0.0,0.0,0.0,0.0,0.0,0.0,0.0,0.0,0.0,0.0,0.0,0.0,0.0,0.0,0.0,0.0,0.0,0.0,0.0,0.0,0.0,0.0,0.0,0.0,0.0,0.0,0.0,0.0,0.0,0.0,0.0,0.0,0.0,0.0,0.0,0.0,0.0,0.0,0.0,0.0,0.0,0.0,0.0,0.0,0.0,0.0,0.0,0.0,0.0,0.0,0.0,0.0,0.0,0.0,0.0,0.0,0.0,0.0,0.0,0.0,0.0,0.0,0.0,0.0,0.0,0.0,0.0,0.0,0.0,0.0,0.0,0.0,0.0,0.0,0.0,0.0,0.0,0.0,0.0,0.0,0.0,0.0,0.0,0.0,0.0,0.0,0.0,0.0,0.0,0.0,0.0,0.0,0.0,0.0,0.0,0.0,0.0,0.0,0.0,0.0,0.0,0.0,0.0,0.0,0.0,0.0,0.0,0.0,0.0,0.0,0.0,0.0,0.0,0.0,0.0,0.0,0.0,0.0,0.0,0.0,0.0,0.0,0.0,0.0,0.0,0.0,0.0,0.0,0.0,0.0,0.0,0.0,0.0,0.0,0.0,0.0,0.0,0.0,0.0,0.0,0.0,0.0,0.0,0.0,0.0,0.0,0.0,0.0,0.0,0.0,0.0,0.0,0.0,0.0,0.0,0.0,0.0,0.0,0.0,0.0,0.0,0.0,0.0,0.0,0.0,0.0,0.0,0.0,0.0,0.0,0.0,0.0,0.0,0.0,0.0,0.0,0.0,0.0,0.0,0.0,0.0,0.0,0.0,0.0,0.0,0.0,0.0,0.0,0.0,0.0,0.0,0.0,0.0,0.0,0.0,0.0,0.0,0.0,0.0,0.0,0.0,0.0,0.0,0.0,0.0,0.0,0.0,0.0,0.0,0.0,0.0,0.0,0.0,0.0,0.0,0.0,0.0,0.0,0.0,0.0,0.0,0.0,0.0,0.0,0.0,0.0,0.0,0.0,0.0,0.0,0.0,0.0,0.0,0.0,0.0,0.0,0.0,0.0,0.0,0.0,0.0,0.0,0.0,0.0,0.0,0.0,0.0,0.0,0.0,0.0,0.0,0.0,0.0,0.0,0.0,0.0,0.0,0.0,0.0,0.0,0.0,0.0,0.0,0.0,0.0,0.0,0.0,0.0,0.0,0.0,0.0,0.0,0.0,0.0,0.0,0.0,0.0,0.0,0.0,0.0,0.0,0.0,0.0,0.0,0.0,0.0,0.0,0.0,0.0,0.0,0.0,0.0,0.0,0.0,0.0,0.0,0.0,0.0,0.0,0.0,0.0,0.0,0.0,0.0,0.0,0.0,0.0,0.0,0.0,0.0,0.0,0.0,0.0,0.0,0.0,0.0,0.0,0.0,0.0,0.0,0.0,0.0,0.0,0.0,0.0,0.0,0.0,0.0,0.0,0.0,0.0,0.0,0.0,0.0,0.0,0.0,0.0,0.0,0.0,0.0,0.0,0.0,0.0,0.0,0.0,0.0,0.0,0.0,0.0,0.0,0.0,0.0,0.0,0.0,0.0,0.0,0.0,0.0,0.0,0.0,0.0,0.0,0.0,0.0,0.0,0.0,0.0,0.0,0.0,0.0,0.0,0.0,0.0,0.0,0.0,0.0,0.0,0.0,0.0,0.0,0.0,0.0,0.0,0.0,0.0,0.0,0.0,0.0,0.0,0.0,0.0,0.0,0.0,0.0,0.0,0.0,0.0,0.0,0.0,0.0,0.0,0.0,0.0,0.0,0.0,0.0,0.0,0.0,0.0,0.0,0.0,0.0,0.0,0.0,0.0,0.0,0.0,0.0,0.0,0.0,0.0,0.0,0.0,0.0,0.0,0.0,0.0,0.0,0.0,0.0,0.0,0.0,0.0,0.0,0.0,0.0,0.0,0.0,0.0,0.0,0.0,0.0,0.0,0.0,0.0,0.0,0.0,0.0,0.0,0.0,0.0,0.0,0.0,0.0,0.0,0.0,0.0,0.0,0.0,0.0,0.0,0.0,0.0,0.0,0.0,0.0,0.0,0.0,0.0,0.0,0.0,0.0,0.0,0.0,0.0,0.0,0.0,0.0,0.0,0.0,0.0,0.0,0.0,0.0,0.0,0.0,0.0,0.0,0.0,0.0,0.0,0.0,0.0,0.0,0.0,0.0,0.0,0.0,0.0,0.0,0.0,0.0,0.0,0.0,0.0,0.0,0.0,0.0,0.0,0.0,0.0,0.0,0.0,0.0,0.0,0.0,0.0,0.0,0.0,0.0,0.0,0.0,0.0,0.0,0.0,0.0,0.0,0.0,0.0,0.0,0.0,0.0,0.0,0.0,0.0,0.0,0.0,0.0,0.0,0.0,0.0,0.0,0.0,0.0,0.0,0.0,0.0,0.0,0.0,0.0,0.0,0.0,0.0,0.0,0.0,0.0,0.0,0.0,0.0,0.0,0.0,0.0,0.0,0.0,0.0,0.0,0.0,0.0,0.0,0.0,0.0,0.0,0.0,0.0,0.0,0.0,0.0,0.0,0.0,0.0,0.0,0.0,0.0,0.0,0.0,0.0,0.0,0.0,0.0,0.0,0.0,0.0,0.0,0.0,0.0,0.0,0.0,0.0,0.0,0.0,0.0,0.0,0.0,0.0,0.0,0.0,0.0,0.0,0.0,0.0,0.0,0.0,0.0,0.0,0.0,0.0,0.0,0.0,0.0,0.0,0.0,0.0,0.0,0.0,0.0,0.0,0.0,0.0,0.0,0.0,0.0,0.0,0.0,0.0,0.0,0.0,0.0,0.0,0.0,0.0,0.0,0.0,0.0,0.0,0.0,0.0,0.0,0.0,0.0,0.0,0.0,0.0,0.0,0.0,0.0,0.0,0.0,0.0,0.0,0.0,0.0,0.0,0.0,0.0,0.0,0.0,0.0,0.0,0.0,0.0,0.0,0.0,0.0,0.0,0.0,0.0,0.0,0.0,0.0,0.0,0.0,0.0,0.0,0.0,0.0,0.0,0.0,0.0,0.0,0.0,0.0,0.0,0.0,0.0,0.0,0.0,0.0,0.0,0.0,0.0,0.0,0.0,0.0,0.0,0.0,0.0,0.0,0.0,0.0,0.0,0.0,0.0,0.0,0.0,0.0,0.0,0.0,0.0,0.0,0.0,0.0,0.0,0.0,0.0,0.0,0.0,0.0,0.0,0.0,0.0,0.0,0.0,0.0,0.0,0.0,0.0,0.0,0.0,0.0,0.0,0.0,0.0,0.0,0.0,0.0,0.0,0.0,0.0,0.0,0.0,0.0,0.0,0.0,0.0,0.0,0.0,0.0,0.0,0.0,0.0,0.0,0.0,0.0,0.0,0.0,0.0,0.0,0.0,0.0,0.0,0.0,0.0,0.0,0.0,0.0,0.0,0.0,0.0,0.0,0.0,0.0,0.0,0.0,0.0,0.0,0.0,0.0,0.0,0.0,0.0,0.0,0.0,0.0,0.0,0.0,0.0,0.0,0.0,0.0,0.0,0.0,0.0,0.0,0.0,0.0,0.0,0.0,0.0,0.0,0.0,0.0,0.0,0.0,0.0,0.0,0.0,0.0,0.0,0.0,0.0,0.0,0.0,0.0,0.0,0.0,0.0,0.0,0.0,0.0,0.0,0.0,0.0,0.0,0.0,0.0,0.0,0.0,0.0,0.0,0.0,0.0,0.0,0.0,0.0,0.0,0.0,0.0,0.0,0.0,0.0,0.0,0.0,0.0,0.0,0.0,0.0,0.0,0.0,0.0,0.0,0.0,0.0,0.0,0.0,0.0,0.0,0.0,0.0,0.0,0.0,0.0,0.0,0.0,0.0,0.0,0.0,0.0,0.0,0.0,0.0,0.0,0.0,0.0,0.0,0.0,0.0,0.0,0.0,0.0,0.0,0.0,0.0,0.0,0.0,0.0,0.0,0.0,0.0,0.0,0.0,0.0,0.0,0.0,0.0,0.0,0.0,0.0,0.0,0.0,0.0,0.0,0.0,0.0,0.0,0.0,0.0,0.0,0.0,0.0,0.0,0.0,0.0,0.0,0.0,0.0,0.0,0.0,0.0,0.0,0.0,0.0,0.0,0.0,0.0,0.0,0.0,0.0,0.0,0.0,0.0,0.0,0.0,0.0,0.0,0.0,0.0,0.0,0.0,0.0,0.0,0.0,0.0,0.0,0.0,0.0,0.0,0.0,0.0,0.0,0.0,0.0,0.0,0.0,0.0,0.0,0.0,0.0,0.0,0.0,0.0,0.0,0.0,0.0,0.0,0.0,0.0,0.0,0.0,0.0,0.0,0.0,0.0,0.0,0.0,0.0,0.0,0.0,0.0,0.0,0.0,0.0,0.0,0.0,0.0,0.0,0.0,0.0,0.0,0.0,0.0,0.0,0.0,0.0,0.0,0.0,0.0,0.0,0.0,0.0,0.0,0.0,0.0,0.0,0.0,0.0,0.0,0.0,0.0,0.0,0.0,0.0,0.0,0.0,0.0,0.0,0.0,0.0,0.0,0.0,0.0,0.0,0.0,0.0,0.0,0.0,0.0,0.0,0.0,0.0,0.0,0.0,0.0,0.0,0.0,0.0,0.0,0.0,0.0,0.0,0.0,0.0,0.0,0.0,0.0,0.0,0.0,0.0,0.0,0.0,0.0,0.0,0.0,0.0,0.0,0.0,0.0,0.0,0.0,0.0,0.0,0.0,0.0,0.0,0.0,0.0,0.0,0.0,0.0,0.0,0.0,0.0,0.0,0.0,0.0,0.0,0.0,0.0,0.0,0.0,0.0,0.0,0.0,0.0,0.0,0.0,0.0,0.0,0.0,0.0,0.0,0.0,0.0,0.0,0.0,0.0,0.0,0.0,0.0,0.0,0.0,0.0,0.0,0.0,0.0,0.0,0.0,0.0,0.0,0.0,0.0,0.0,0.0,0.0,0.0,0.0,0.0,0.0,0.0,0.0,0.0,0.0,0.0,0.0,0.0,0.0,0.0,0.0,0.0,-3.4014,0.0,0.0,0.0,0.0,0.0,0.0,0.0,0.0,0.0,0.0,0.0,0.0,0.0,0.0,0.0,0.0,0.0,0.0,0.0,0.0,0.0,0.0,0.0,0.0,0.0,0.0,0.0,0.0,0.0,0.0,0.0,0.0,0.0,0.0,0.0,0.0,0.0,0.0,0.0,0.0,0.0,0.0,0.0,0.0,0.0,0.0,0.0,0.0,0.0,0.0,0.0,0.0,0.0,0.0,0.0,0.0,0.0,0.0,0.0,0.0,0.0,0.0,0.0,0.0,0.0,0.0,0.0,0.0,0.0,0.0,0.0,0.0,0.0,0.0,0.0,0.0,0.0,0.0,0.0,0.0,0.0,0.0,0.0,0.0,0.0,0.0,0.0,0.0,0.0,0.0,0.0,0.0,0.0,0.0,0.0,0.0,0.0,0.0,0.0,0.0,0.0,0.0,0.0,0.0,0.0,0.0,0.0,0.0,0.0,0.0,0.0,0.0,0.0,0.0,0.0,0.0,-3.5752,0.0,0.0,0.0,0.0,0.0,0.0,0.0,0.0,0.0,0.0,0.0,0.0,0.0,0.0,0.0,0.0,0.0,0.0,0.0,0.0,0.0,0.0,0.0,0.0,0.0,0.0,0.0,0.0,0.0,0.0,0.0,0.0,0.0,0.0,0.0,0.0,0.0,0.0,0.0,0.0,0.0,0.0,0.0,0.0,0.0,0.0,0.0,0.0,0.0,0.0,0.0,0.0,0.0,0.0,0.0,0.0,0.0,0.0,0.0,0.0,0.0,0.0,0.0,0.0,0.0,0.0,0.0,0.0,0.0,0.0,0.0,0.0,0.0,0.0,0.0,0.0,0.0,0.0,0.0,0.0,0.0,0.0,0.0,0.0,0.0,0.0,0.0,0.0,0.0,0.0,0.0,0.0,0.0,0.0,0.0,0.0,0.0,0.0,0.0,0.0,0.0,0.0,0.0,0.0,0.0,0.0,0.0,0.0,-4.3644,-4.4745,-4.5406,-4.5259,-4.614,-4.7572,-4.3608,-4.1515,-4.0781,-3.8652,0.0,0.0,0.0,0.0,0.0,0.0,0.0,0.0,0.0,0.0,0.0,0.0,0.0,0.0,0.0,0.0,0.0,0.0,0.0,0.0,0.0,0.0,0.0,0.0,0.0,0.0,0.0,0.0,0.0,0.0,0.0,0.0,0.0,0.0,0.0,0.0,0.0,0.0,0.0,0.0,0.0,0.0,0.0,0.0,0.0,0.0,0.0,0.0,0.0,0.0,0.0,0.0,0.0,0.0,0.0,0.0,0.0,0.0,0.0,0.0,0.0,0.0,0.0,0.0,0.0,0.0,0.0,0.0,0.0,0.0,0.0,0.0,0.0,0.0,0.0,0.0,0.0,0.0,0.0,0.0,0.0,0.0,0.0,0.0,0.0,0.0,-3.5929,-3.4527,0.0,0.0,0.0,0.0,0.0,0.0,0.0,0.0,0.0,0.0,0.0,0.0,0.0,-4.4929,-4.8673,-5.0435,-5.0986,-5.0398,-5.205,-5.2858,-5.2931,-5.2234,-5.3188,-5.5354,-5.4693,0.0,-4.5039,-4.4011,0.0,0.0,0.0,0.0,0.0,0.0,0.0,0.0,0.0,0.0,0.0,0.0,0.0,0.0,0.0,0.0,0.0,0.0,0.0,0.0,0.0,0.0,0.0,0.0,0.0,0.0,0.0,0.0,0.0,0.0,0.0,0.0,0.0,0.0,0.0,0.0,0.0,0.0,0.0,0.0,0.0,0.0,0.0,0.0,0.0,0.0,0.0,0.0,0.0,0.0,0.0,0.0,0.0,0.0,0.0,0.0,0.0,0.0,0.0,0.0,0.0,0.0,0.0,0.0,0.0,0.0,0.0,0.0,0.0,0.0,0.0,0.0,0.0,0.0,0.0,0.0,0.0,0.0,0.0,0.0,0.0,0.0,0.0,0.0,0.0,-3.4564,-3.6707,-3.2766,-3.5459,-3.5789,0.0,0.0,0.0,0.0,0.0,0.0,0.0,0.0,0.0,-4.5406,-4.7241,-4.9444,-5.2123,-5.4216,-5.55,-5.6051,-5.7226,-5.8253,-5.9134,-5.8767,-5.9148,-6.0175,-6.0175,-5.8107,-5.4436,-5.0949,-4.7702,-4.4821,0.0,0.0,0.0,0.0,-4.3429,-4.4572,0.0,0.0,0.0,0.0,0.0,0.0,0.0,0.0,0.0,0.0,0.0,0.0,0.0,0.0,0.0,0.0,0.0,0.0,0.0,0.0,0.0,0.0,0.0,0.0,0.0,0.0,0.0,0.0,0.0,0.0,0.0,0.0,0.0,0.0,0.0,0.0,0.0,0.0,0.0,0.0,0.0,0.0,0.0,0.0,0.0,0.0,0.0,0.0,0.0,0.0,0.0,0.0,0.0,0.0,0.0,0.0,0.0,0.0,0.0,0.0,0.0,0.0,0.0,0.0,0.0,0.0,0.0,0.0,0.0,0.0,0.0,0.0,0.0,0.0,0.0,0.0,0.0,-3.5367,-3.7661,-3.322,-3.7331,-3.8469,0.0,0.0,0.0,0.0,0.0,0.0,-4.4672,-4.592,-4.7792,-5.0415,-5.2491,-5.4252,-5.5625,-5.7886,-5.9465,-6.0456,-6.1263,-6.2401,-6.3759,-6.3759,-6.398,-6.4347,-6.4163,-6.3723,-6.2695,-5.6859,-5.3067,-5.0723,-4.8746,-4.776,-4.7538,-4.8347,-4.9141,-5.0002,0.0,0.0,0.0,0.0,0.0,0.0,0.0,0.0,0.0,0.0,0.0,0.0,0.0,0.0,0.0,0.0,0.0,0.0,0.0,0.0,0.0,0.0,0.0,0.0,0.0,0.0,0.0,0.0,0.0,0.0,0.0,0.0,0.0,0.0,0.0,0.0,0.0,0.0,0.0,0.0,0.0,0.0,0.0,0.0,0.0,0.0,0.0,0.0,0.0,0.0,0.0,0.0,0.0,0.0,0.0,0.0,0.0,0.0,0.0,0.0,0.0,0.0,0.0,0.0,0.0,0.0,0.0,0.0,0.0,0.0,0.0,0.0,0.0,0.0,0.0,0.0,0.0,0.0,0.0,-3.9533,-4.302,0.0,0.0,0.0,0.0,-4.6195,-4.5205,-4.7498,-5.4494,-5.2821,-5.4106,-5.9575,-6.0603,-6.1447,-6.2303,-6.4016,-6.453,-6.387,-6.4677,-6.5521,-6.6292,-6.6292,-6.7136,-6.8568,-6.7797,-6.7457,-6.688,-6.0419,-5.6506,-5.434,-5.2471,-5.0948,-5.0025,-5.1639,-5.2772,-5.3553,0.0,0.0,0.0,0.0,0.0,0.0,0.0,0.0,0.0,0.0,0.0,0.0,0.0,0.0,0.0,0.0,0.0,0.0,0.0,0.0,0.0,0.0,0.0,0.0,0.0,0.0,0.0,0.0,0.0,0.0,0.0,0.0,0.0,0.0,0.0,0.0,0.0,0.0,0.0,0.0,0.0,0.0,0.0,0.0,0.0,0.0,0.0,0.0,0.0,0.0,0.0,0.0,0.0,0.0,0.0,0.0,0.0,0.0,0.0,0.0,0.0,0.0,0.0,0.0,0.0,0.0,0.0,0.0,0.0,0.0,0.0,0.0,0.0,0.0,0.0,0.0,0.0,0.0,0.0,-4.4635,-4.86,0.0,-4.7609,-4.8086,-4.9444,-5.1646,-5.3665,-5.6381,-6.0052,-6.0933,-6.2475,-6.5007,-6.5888,-6.6696,-6.7504,-6.7577,-6.7467,-6.7173,-6.7504,-6.7504,-6.7283,-6.7797,-6.8054,-6.8091,-6.7797,-6.7687,-6.7467,-6.464,-6.2402,-6.0669,-5.9738,-5.8784,-5.8019,-5.8933,-5.9121,-5.8915,0.0,0.0,0.0,0.0,0.0,0.0,0.0,0.0,0.0,0.0,0.0,0.0,0.0,0.0,0.0,0.0,0.0,0.0,0.0,0.0,0.0,0.0,0.0,0.0,0.0,0.0,0.0,0.0,0.0,0.0,0.0,0.0,0.0,0.0,0.0,0.0,0.0,0.0,0.0,0.0,0.0,0.0,-4.2326,0.0,0.0,0.0,0.0,0.0,0.0,0.0,0.0,0.0,0.0,0.0,0.0,0.0,0.0,0.0,0.0,0.0,0.0,0.0,0.0,0.0,0.0,0.0,0.0,0.0,0.0,0.0,0.0,0.0,0.0,0.0,0.0,0.0,0.0,0.0,-5.0251,-4.9994,-5.4766,-5.7116,-5.4656,-5.5904,-5.7446,-5.8767,-6.1374,-6.3796,-6.5962,-6.7136,-6.8201,-6.9265,-6.9853,-7.011,-7.011,-6.9853,-6.9596,-6.9302,-6.9302,-6.9045,-6.8531,-6.9339,-6.9412,-6.8898,-6.8605,-6.8495,-6.8421,-6.7357,-6.6256,-6.5243,-6.4401,-6.3604,-6.2932,-6.327,-6.2874,-6.201,0.0,0.0,0.0,0.0,0.0,0.0,0.0,0.0,0.0,0.0,0.0,0.0,0.0,0.0,0.0,0.0,0.0,0.0,0.0,0.0,0.0,0.0,0.0,0.0,0.0,0.0,0.0,0.0,0.0,0.0,0.0,0.0,0.0,0.0,0.0,0.0,0.0,0.0,0.0,0.0,0.0,0.0,-5.274,0.0,0.0,0.0,0.0,0.0,0.0,0.0,0.0,0.0,0.0,0.0,0.0,0.0,0.0,0.0,0.0,0.0,0.0,0.0,0.0,0.0,0.0,0.0,0.0,0.0,0.0,0.0,0.0,0.0,0.0,0.0,0.0,0.0,-4.302,-4.9627,-5.5023,-5.5941,-6.1667,-6.5228,-6.4457,-6.5778,-6.7026,-6.7834,-6.7871,-6.9265,-7.2422,-7.1101,-7.0991,-7.2569,-7.2606,-7.1835,-7.0293,-7.1064,-7.0991,-7.0183,-7.0183,-7.0183,-7.011,-7.0954,-7.1321,-7.1219,-7.044,-7.0073,-6.9926,-6.8385,-6.7724,-6.754,-6.5999,-6.4861,-6.4127,-6.4127,-6.3576,-6.2585,0.0,0.0,0.0,0.0,0.0,0.0,0.0,0.0,0.0,0.0,0.0,0.0,0.0,0.0,0.0,0.0,0.0,0.0,0.0,0.0,0.0,0.0,0.0,0.0,0.0,0.0,0.0,0.0,0.0,0.0,0.0,0.0,0.0,0.0,0.0,0.0,0.0,0.0,0.0,0.0,0.0,0.0,-5.3725,0.0,0.0,0.0,0.0,0.0,0.0,0.0,0.0,0.0,0.0,0.0,0.0,0.0,0.0,0.0,0.0,0.0,0.0,0.0,0.0,0.0,0.0,0.0,0.0,0.0,0.0,0.0,0.0,0.0,0.0,0.0,0.0,-5.2491,-5.1242,-5.7005,-6.2548,-6.5742,-6.8715,-7.066,-7.1027,-7.0917,-7.1174,-7.1982,-7.2055,-7.2679,-7.4184,-7.3817,-7.4037,-7.5065,-7.4551,-7.4331,-7.4441,-7.4111,-7.323,-7.1835,-7.2422,-7.1798,-7.011,-7.0954,-7.0991,-7.0403,-7.0183,-6.9779,-6.9192,-6.8752,-6.8238,-6.765,-6.721,-6.6182,-6.4971,-6.4971,-6.4053,-6.2658,0.0,0.0,0.0,0.0,0.0,0.0,0.0,0.0,0.0,0.0,0.0,0.0,0.0,0.0,0.0,0.0,0.0,0.0,0.0,0.0,0.0,0.0,0.0,0.0,0.0,0.0,0.0,0.0,0.0,0.0,0.0,0.0,0.0,0.0,0.0,0.0,0.0,0.0,0.0,0.0,0.0,0.0,-6.0955,-5.566,-5.2914,-5.1682,-4.9658,-4.8798,-4.8212,-4.5743,0.0,0.0,0.0,0.0,0.0,0.0,0.0,0.0,0.0,0.0,0.0,0.0,0.0,0.0,0.0,0.0,0.0,0.0,0.0,0.0,0.0,0.0,0.0,0.0,-5.4531,-5.9685,-6.1263,-6.4714,-6.8311,-7.1725,-7.323,-7.4331,-7.5139,-7.4808,-7.4698,-7.5175,-7.4882,-7.5065,-7.5842,-7.5616,-7.5616,-7.6093,-7.5652,-7.5469,-7.5616,-7.5139,-7.4441,-7.3523,-7.3964,-7.3303,-7.1615,-7.2092,-7.1872,-7.1064,-7.0624,-7.0183,-6.9669,-6.8752,-6.8128,0.0,0.0,0.0,0.0,0.0,-6.3649,-6.2695,0.0,0.0,0.0,0.0,0.0,0.0,0.0,0.0,0.0,0.0,0.0,0.0,0.0,0.0,0.0,0.0,0.0,0.0,0.0,0.0,0.0,0.0,0.0,0.0,0.0,0.0,0.0,0.0,0.0,0.0,0.0,0.0,0.0,0.0,0.0,0.0,0.0,0.0,0.0,0.0,0.0,0.0,-7.0367,-6.2964,-6.1312,-6.2218,-5.6492,-5.3628,-5.238,-5.1022,0.0,0.0,0.0,0.0,0.0,0.0,0.0,0.0,0.0,0.0,0.0,0.0,0.0,0.0,0.0,0.0,0.0,0.0,0.0,0.0,0.0,0.0,0.0,0.0,-6.119,-6.6623,-7.1211,-7.1945,-7.2753,-7.4808,-7.5763,-7.6533,-7.7237,-7.7273,-7.7273,-7.7273,-7.6644,-7.657,-7.7237,0.0,0.0,0.0,0.0,-7.5909,-7.5175,-7.5175,-7.5139,-7.5065,-7.5065,-7.4625,-7.3817,-7.3744,-7.334,-7.2642,-7.1541,-7.1064,-7.0917,-6.8935,-6.7981,-6.7797,-6.7614,-6.6623,-6.5118,-6.3539,-6.2853,-6.267,0.0,0.0,0.0,0.0,0.0,0.0,0.0,0.0,0.0,0.0,0.0,0.0,0.0,0.0,0.0,0.0,0.0,0.0,0.0,0.0,0.0,0.0,0.0,0.0,0.0,0.0,0.0,0.0,0.0,0.0,0.0,0.0,0.0,0.0,0.0,0.0,0.0,0.0,0.0,0.0,0.0,0.0,-7.0036,-6.7136,-6.5118,-6.3686,-6.2438,-6.2622,-6.2842,-5.8731,-5.7446,-5.6616,-5.1014,0.0,0.0,0.0,0.0,0.0,0.0,0.0,0.0,0.0,0.0,0.0,0.0,0.0,0.0,0.0,0.0,0.0,0.0,0.0,0.0,-5.9758,-6.6292,-7.1872,-7.4771,-7.5726,-7.6063,-7.5909,-7.6607,-7.7127,-7.7273,-7.7273,-7.7273,-7.7273,-7.7163,-7.7127,-7.7273,-7.7127,-7.7053,-7.7053,-7.7053,-7.698,-7.6833,-7.6833,-7.6533,-7.5873,0.0,0.0,-7.4661,-7.4001,-7.3744,-7.3744,-7.2679,-7.2202,-7.2129,-7.1064,-6.9853,-6.8531,-6.7247,-6.6145,-6.5191,-6.42,-6.3392,-6.278,0.0,0.0,0.0,0.0,0.0,0.0,0.0,0.0,0.0,0.0,0.0,0.0,0.0,0.0,0.0,0.0,0.0,0.0,0.0,0.0,0.0,0.0,0.0,0.0,0.0,0.0,0.0,0.0,0.0,0.0,0.0,0.0,0.0,0.0,0.0,0.0,0.0,0.0,0.0,0.0,0.0,0.0,-7.1561,-7.0931,-6.9706,-6.8201,-6.7393,-6.71,-6.6659,-6.3833,-6.2585,-6.1594,-5.796,-5.3739,-4.9221,0.0,0.0,0.0,0.0,0.0,0.0,0.0,0.0,0.0,0.0,0.0,0.0,0.0,0.0,-4.9224,0.0,0.0,-6.1887,-6.6329,-7.0807,-7.4551,-7.7011,-7.7341,-7.7127,-7.6754,-7.7053,-7.7273,-7.7273,-7.7273,-7.7273,-7.7273,-7.7273,-7.7273,-7.7273,-7.7273,-7.7273,-7.7273,-7.7273,-7.7273,-7.7273,-7.7273,-7.709,-7.6717,-7.6717,-7.6276,-7.5469,-7.4661,-7.4147,-7.3854,-7.2899,-7.2496,-7.2422,-7.1505,-7.0477,-6.9376,-6.8164,-6.6733,-6.5154,-6.3906,-6.3172,-6.278,0.0,0.0,0.0,0.0,0.0,0.0,0.0,0.0,0.0,0.0,0.0,0.0,0.0,0.0,0.0,0.0,0.0,0.0,0.0,0.0,0.0,0.0,0.0,0.0,0.0,0.0,0.0,0.0,0.0,0.0,0.0,0.0,0.0,0.0,0.0,0.0,0.0,0.0,0.0,0.0,0.0,0.0,-7.3112,-7.316,-7.2747,-7.1981,-7.0584,-6.8743,-6.6911,-6.6606,-6.5301,-6.3759,-6.3209,-5.9722,-5.484,-4.9938,-4.6929,0.0,0.0,0.0,0.0,0.0,0.0,0.0,0.0,0.0,-4.8012,-5.0582,-5.3445,-5.6895,-6.1447,-6.4567,-6.7981,-7.2679,-7.4808,-7.657,-7.8552,-7.8112,-7.753,-7.753,-7.7384,-7.7273,-7.7273,-7.7273,-7.7273,-7.7273,-7.7273,-7.7273,-7.7273,-7.7273,-7.7273,-7.7273,-7.7273,-7.7273,-7.7273,-7.7273,-7.7273,-7.7273,-7.7273,-7.6943,-7.6313,-7.5506,-7.4661,-7.3707,-7.2863,-7.2496,-7.2422,-7.1394,-7.0734,-7.0257,-6.9449,-6.776,-6.5595,-6.409,-6.3184,-6.2817,0.0,0.0,0.0,0.0,0.0,0.0,0.0,0.0,0.0,0.0,0.0,0.0,0.0,0.0,0.0,0.0,0.0,0.0,0.0,0.0,0.0,0.0,0.0,0.0,0.0,0.0,0.0,0.0,0.0,0.0,0.0,0.0,0.0,0.0,0.0,0.0,0.0,0.0,0.0,0.0,0.0,0.0,-7.3039,-7.1802,-7.1161,-7.0909,-7.0288,-6.7575,-6.4491,-6.5979,-6.4934,-6.3062,-6.3723,-6.2511,-5.9832,-5.4987,0.0,-4.6672,-4.6012,-4.46,-4.4011,-4.6691,-4.5315,-4.537,0.0,0.0,-5.7409,-6.0505,-6.4861,-6.8274,-6.8898,-7.2165,-7.5212,-7.654,-7.8148,-7.9323,-7.9617,-7.8956,-7.8442,-7.8442,-7.7781,-7.7273,-7.7273,-7.7273,-7.7273,-7.7273,-7.7273,-7.7273,-7.7273,-7.7273,-7.7273,-7.7273,-7.7273,-7.7273,-7.7273,-7.7273,-7.7273,-7.7273,-7.7273,-7.7237,-7.7127,-7.635,-7.5285,-7.4001,-7.2973,-7.2496,-7.2459,-7.1615,-7.1248,-7.1101,-7.0293,-6.8935,-6.732,-6.6402,-6.4677,-6.2927,0.0,0.0,0.0,0.0,0.0,0.0,0.0,0.0,0.0,0.0,0.0,0.0,0.0,0.0,0.0,0.0,0.0,0.0,0.0,0.0,0.0,0.0,0.0,0.0,0.0,0.0,0.0,0.0,0.0,0.0,0.0,0.0,0.0,0.0,0.0,0.0,0.0,0.0,0.0,0.0,0.0,0.0,-7.0015,-6.928,-6.7409,-6.5144,-6.4281,-6.1884,0.0,0.0,-5.9957,-5.9795,-6.2511,-6.0603,-5.6932,-5.4436,-5.161,0.0,-5.0986,-5.0288,-4.9701,0.0,-5.3665,-5.5831,-6.0089,-6.2768,-6.5264,-6.8495,-7.1505,-7.4037,-7.5469,-7.7121,-7.8369,0.0,-7.9323,-7.98,-7.98,-7.9103,-7.8222,-7.7268,-7.7268,-7.7273,-7.7273,-7.7273,-7.7273,-7.7273,-7.7273,-7.7273,-7.7273,-7.7273,-7.7273,-7.7273,-7.7273,-7.7273,-7.7273,-7.7273,-7.7273,-7.7273,-7.7273,-7.7273,-7.7273,-7.646,-7.5285,-7.3817,-7.2899,-7.2496,-7.2459,-7.2165,-7.2018,-7.1872,-7.0587,-6.9486,-6.8495,-6.754,-6.5962,-6.4174,0.0,0.0,0.0,0.0,0.0,0.0,0.0,0.0,0.0,0.0,0.0,0.0,0.0,0.0,0.0,0.0,0.0,0.0,0.0,0.0,0.0,0.0,0.0,0.0,0.0,0.0,0.0,0.0,0.0,0.0,0.0,0.0,0.0,0.0,0.0,0.0,0.0,0.0,0.0,0.0,0.0,0.0,-6.6844,-6.5604,-6.2262,-5.8205,-5.8074,-5.6,0.0,0.0,-5.3039,-5.3696,-5.7092,-5.5514,-5.247,-5.2898,-5.2443,-5.1867,-5.227,0.0,0.0,-5.6418,-6.0419,-6.4273,-6.5999,-6.8715,-7.1688,-7.4478,-7.613,-7.7671,-7.947,-7.98,-7.9874,-8.0094,-7.991,-7.9874,-8.0094,-7.8846,-7.7451,-7.624,-7.5836,-7.5916,-7.6576,-7.7017,-7.7273,-7.7273,-7.7273,-7.7273,-7.7273,-7.7273,-7.7273,-7.7273,-7.7273,-7.7273,-7.7273,-7.7273,-7.7273,-7.7273,-7.7273,-7.7273,-7.7273,-7.646,-7.5322,-7.4001,-7.3193,-7.2716,-7.2496,-7.2496,-7.2496,-7.2349,-7.0881,-7.0,-6.9376,-6.8128,-6.6953,-6.5778,0.0,0.0,0.0,0.0,0.0,0.0,0.0,0.0,0.0,0.0,0.0,0.0,0.0,0.0,0.0,0.0,0.0,0.0,0.0,0.0,0.0,0.0,0.0,0.0,0.0,0.0,0.0,0.0,0.0,0.0,0.0,0.0,0.0,0.0,0.0,0.0,0.0,0.0,0.0,0.0,0.0,0.0,-6.4309,-6.0664,-5.5617,-5.0757,-5.3188,0.0,0.0,0.0,-4.459,-4.4216,-4.5947,-4.688,0.0,-5.1559,-5.3427,-5.3261,-4.858,0.0,-5.6271,-5.9465,-6.3356,-6.743,-7.1358,-7.4147,-7.6387,-7.8112,-7.9103,-7.969,-7.9764,-7.98,-8.0057,-8.0828,-8.0314,-8.0057,-8.0865,-7.8185,-7.6166,-7.6093,-7.3377,-7.2393,0.0,-7.6356,-7.7273,-7.7273,-7.7273,-7.7273,-7.7273,-7.7273,-7.7273,-7.7273,-7.7273,-7.7273,-7.7273,-7.7273,-7.7273,-7.7273,-7.7273,-7.7273,-7.7273,-7.646,-7.5652,-7.4845,-7.4001,-7.323,-7.2496,-7.2496,-7.2496,-7.2386,-7.1284,-7.055,-6.9889,-6.8274,-6.765,-6.7614,0.0,0.0,0.0,0.0,0.0,0.0,0.0,0.0,0.0,0.0,0.0,0.0,0.0,0.0,0.0,0.0,0.0,0.0,0.0,0.0,0.0,0.0,0.0,0.0,0.0,0.0,0.0,0.0,0.0,0.0,0.0,0.0,0.0,0.0,0.0,0.0,0.0,0.0,0.0,0.0,0.0,0.0,-6.1839,-5.6562,-5.1792,-4.7416,0.0,0.0,0.0,0.0,0.0,0.0,-4.1149,-4.089,-4.0372,-4.4565,-4.7916,-5.1059,-5.4268,0.0,-6.13,-6.5081,-6.9082,-7.2716,-7.5139,-7.6754,-7.8075,-7.9176,-7.6607,-7.4331,-7.4845,-7.4074,-7.378,-7.5139,-7.6937,-7.8442,-7.9286,-7.8919,-7.7341,-7.4111,-7.4661,0.0,0.0,0.0,0.0,-7.7127,-7.6827,-7.6754,-7.7273,-7.7273,-7.7273,-7.7273,-7.7273,-7.7273,-7.7273,-7.7273,-7.7273,-7.7273,-7.7273,-7.7273,-7.7273,-7.646,-7.5652,-7.4882,-7.4625,-7.3744,-7.2532,-7.3083,-7.2973,-7.2349,-7.0917,-7.0257,-6.9889,-6.8274,-6.7687,-6.7687,0.0,0.0,0.0,0.0,0.0,0.0,0.0,0.0,0.0,0.0,0.0,0.0,0.0,0.0,0.0,0.0,0.0,0.0,0.0,0.0,0.0,0.0,0.0,0.0,0.0,0.0,0.0,0.0,0.0,0.0,0.0,0.0,0.0,0.0,0.0,0.0,0.0,0.0,0.0,0.0,0.0,0.0,-5.4397,-4.9729,-4.5466,0.0,0.0,0.0,0.0,0.0,0.0,0.0,-3.6185,-3.7882,-3.9526,-4.1342,-4.6764,-5.3277,-5.8267,-6.2254,-6.5962,-7.0036,-7.345,-7.6099,-7.7488,-7.8222,-7.8405,-7.7745,-7.356,-7.0,-6.9926,-6.8128,-6.765,-7.0697,-7.2973,-7.5212,-7.7781,-7.7818,-7.6533,-7.3707,-7.4441,-7.4485,0.0,0.0,0.0,-7.668,-7.668,-7.69,-7.7745,-7.7781,-7.7928,-7.8185,-7.7928,-7.7781,-7.7781,-7.7457,-7.7273,-7.7273,-7.7273,-7.7273,-7.7273,-7.679,-7.6093,-7.5322,-7.5028,-7.4147,-7.2936,-7.3193,-7.2973,-7.2386,-7.1027,-7.055,-7.033,-6.8715,-6.8311,-6.8458,0.0,0.0,0.0,0.0,0.0,0.0,0.0,0.0,0.0,0.0,0.0,0.0,0.0,0.0,0.0,0.0,0.0,0.0,0.0,0.0,0.0,0.0,0.0,0.0,0.0,0.0,0.0,0.0,0.0,0.0,0.0,0.0,0.0,0.0,0.0,0.0,0.0,0.0,0.0,0.0,0.0,0.0,-4.3071,-4.0764,0.0,0.0,0.0,0.0,0.0,0.0,0.0,0.0,0.0,-3.781,-4.4851,-4.2514,-5.0085,-5.9478,-6.0713,-6.5081,-7.022,-7.4184,-7.6283,-7.7635,-7.8405,-7.8479,-7.7414,-7.4184,-7.0036,-6.6512,0.0,0.0,-6.1667,-6.7247,-6.8531,-7.0807,-7.6393,-7.5322,-7.4221,0.0,0.0,0.0,0.0,0.0,0.0,-7.6056,0.0,-7.7708,-7.8626,-7.8662,-7.8993,-7.969,-7.8993,-7.8589,-7.8516,-7.7708,-7.7273,-7.7273,-7.7273,-7.7273,-7.7273,-7.7273,-7.6864,-7.6056,-7.5359,-7.4515,-7.3634,-7.2936,-7.2569,-7.2422,-7.1615,-7.1293,-7.1109,-6.9559,-6.9449,-6.9889,0.0,0.0,0.0,0.0,0.0,0.0,0.0,0.0,0.0,0.0,0.0,0.0,0.0,0.0,0.0,0.0,0.0,0.0,0.0,0.0,0.0,0.0,0.0,0.0,0.0,0.0,0.0,0.0,0.0,0.0,0.0,0.0,0.0,0.0,0.0,0.0,0.0,0.0,0.0,0.0,0.0,0.0,-4.2151,0.0,0.0,0.0,0.0,0.0,0.0,0.0,0.0,0.0,0.0,-4.0998,-4.5433,-5.0428,-5.539,-6.0689,-6.754,-7.1798,-7.4955,-7.7818,-7.8846,-7.9066,-7.8699,-7.6717,-7.4184,-7.1541,-6.3943,-5.7116,0.0,0.0,0.0,-5.7483,-6.3649,0.0,-7.4808,-7.657,0.0,-7.6723,0.0,-7.6497,-7.5873,-7.5983,0.0,0.0,-7.7561,-7.7965,-7.9396,-7.947,-7.9286,-7.8919,-7.8699,-7.8295,-7.7671,-7.7384,-7.7273,-7.7273,-7.7273,-7.7273,-7.7273,-7.7273,-7.6864,-7.613,-7.6533,-7.5542,-7.3707,-7.4147,-7.3597,-7.2422,-7.1615,-7.1293,-7.1211,-7.0183,-6.9926,-7.0036,0.0,0.0,0.0,0.0,0.0,0.0,0.0,0.0,0.0,0.0,0.0,0.0,0.0,0.0,0.0,0.0,0.0,0.0,0.0,0.0,0.0,0.0,0.0,0.0,0.0,0.0,0.0,0.0,0.0,0.0,0.0,0.0,0.0,0.0,0.0,0.0,0.0,0.0,0.0,0.0,0.0,0.0,0.0,0.0,0.0,0.0,0.0,0.0,0.0,0.0,0.0,-3.9986,-4.4615,-4.8689,-5.2769,-5.784,0.0,-6.6366,-7.2422,-7.5873,-7.8038,-7.9433,-7.9507,-7.8295,-7.4661,-7.1835,-6.8311,-6.2328,-5.4987,0.0,-4.6471,0.0,0.0,0.0,0.0,0.0,-7.4404,-7.6937,-7.8112,0.0,-7.914,0.0,-7.8332,-7.8993,-7.98,0.0,-7.9286,-7.8956,-8.0241,-8.0645,-8.0645,-8.0204,-7.947,-7.8552,-7.731,-7.7273,-7.7273,-7.7273,-7.7273,-7.7273,-7.7273,-7.7273,-7.7053,-7.6644,0.0,-7.5799,-7.4221,-7.4331,-7.3634,-7.2459,-7.2018,-7.1835,-7.1725,-7.0917,-7.0844,-7.1101,0.0,0.0,0.0,0.0,0.0,0.0,0.0,0.0,0.0,0.0,0.0,0.0,0.0,0.0,0.0,0.0,0.0,0.0,0.0,0.0,0.0,0.0,0.0,0.0,0.0,0.0,0.0,0.0,0.0,0.0,0.0,0.0,0.0,0.0,0.0,0.0,0.0,0.0,0.0,0.0,0.0,0.0,0.0,0.0,0.0,0.0,0.0,0.0,0.0,0.0,-4.3907,-4.5326,-5.2443,-5.829,-6.2952,-6.4934,-6.8972,-7.3413,-7.6166,-7.8479,-8.0094,-8.0094,-7.925,-7.6533,-6.9192,-6.5778,-6.13,-5.1189,0.0,-4.1972,-3.9533,-3.9533,-4.28,-5.1683,0.0,-6.3649,-7.3854,-7.6203,-7.7635,-7.9837,-8.0718,-8.1232,-8.1452,-8.2003,-8.27,-8.3508,-8.1636,-8.0681,-8.1305,-8.1966,-8.2223,-8.1893,-8.0314,-7.8772,-7.731,-7.7273,-7.7273,-7.7273,-7.7273,-7.7273,-7.7273,-7.7273,-7.7273,-7.7237,-7.657,-7.5799,-7.5028,-7.4294,-7.3523,-7.2826,-7.2716,-7.2679,-7.2569,-7.1762,-7.1908,-7.2386,0.0,0.0,0.0,0.0,0.0,0.0,0.0,0.0,0.0,0.0,0.0,0.0,0.0,0.0,0.0,0.0,0.0,0.0,0.0,0.0,0.0,0.0,0.0,0.0,0.0,0.0,0.0,0.0,0.0,0.0,0.0,0.0,0.0,0.0,0.0,0.0,0.0,0.0,0.0,0.0,0.0,0.0,0.0,0.0,0.0,0.0,0.0,0.0,0.0,0.0,-4.7451,-5.1804,-5.9722,-6.4714,-6.8348,-7.1982,-7.3744,-7.5469,-7.9947,-8.1452,-8.1782,-8.1782,-7.9653,-7.5652,-6.8348,-6.2328,0.0,0.0,-4.2249,-3.7786,-3.5312,-3.7624,-4.1332,-4.57,0.0,0.0,0.0,0.0,-7.6166,0.0,0.0,0.0,0.0,0.0,0.0,0.0,0.0,-8.3544,-8.303,-8.3141,-8.2296,-8.0277,-7.8589,-7.7567,-7.7273,-7.7273,-7.7273,-7.7273,-7.7273,-7.7273,-7.7273,-7.7273,-7.7273,-7.7273,-7.7127,0.0,-7.5873,-7.5726,-7.5212,-7.4441,-7.3744,-7.3487,-7.3377,-7.2606,-7.2386,-7.2459,0.0,0.0,0.0,0.0,0.0,0.0,0.0,0.0,0.0,0.0,0.0,0.0,0.0,0.0,0.0,0.0,0.0,0.0,0.0,0.0,0.0,0.0,0.0,0.0,0.0,0.0,0.0,0.0,0.0,0.0,0.0,0.0,0.0,0.0,0.0,0.0,0.0,0.0,0.0,0.0,0.0,0.0,0.0,0.0,0.0,0.0,0.0,0.0,0.0,0.0,-4.5497,-5.0999,-6.1435,-6.8385,-7.2789,-7.345,-7.5469,-7.7965,-8.0314,-8.1562,-8.2003,-8.1158,-7.8148,-7.2753,-6.2548,0.0,0.0,0.0,-3.5569,-3.322,-3.1604,0.0,0.0,0.0,0.0,0.0,0.0,0.0,0.0,0.0,0.0,0.0,0.0,0.0,0.0,0.0,0.0,-8.5123,-8.3508,-8.2994,-8.1672,-7.925,-7.8809,-7.8185,-7.731,-7.7273,-7.7273,-7.7273,-7.7273,-7.7273,-7.7273,-7.7273,-7.7273,-7.7273,-7.7273,0.0,-7.6093,-7.6093,-7.5616,-7.4845,-7.4001,-7.3707,-7.3597,-7.2789,-7.2496,-7.2496,0.0,0.0,0.0,0.0,0.0,0.0,0.0,0.0,-2.7029,-2.7925,-2.7891,-2.7858,-2.8027,-2.7402,0.0,0.0,0.0,0.0,0.0,0.0,0.0,0.0,0.0,0.0,0.0,0.0,0.0,0.0,0.0,0.0,0.0,0.0,0.0,0.0,0.0,0.0,0.0,0.0,0.0,0.0,0.0,0.0,0.0,0.0,0.0,0.0,0.0,0.0,0.0,0.0,-4.1907,-4.7041,-5.7677,-6.679,-7.3303,-7.2092,-7.5065,-7.8956,-8.0021,-8.1342,-8.2076,-8.0461,-7.6717,-7.011,-5.7299,-5.0839,0.0,-3.2596,-3.0063,-2.9757,-2.9133,0.0,0.0,0.0,0.0,0.0,0.0,0.0,0.0,0.0,0.0,0.0,0.0,0.0,0.0,0.0,0.0,0.0,-8.3765,-8.259,-8.0975,-7.8919,-7.9286,-7.8809,-7.731,-7.7273,-7.7273,-7.7273,-7.7273,-7.7273,-7.7273,-7.7273,-7.7273,-7.7273,-7.7273,0.0,0.0,-7.635,-7.5983,-7.5322,-7.4331,-7.3964,-7.3854,-7.2863,-7.2496,-7.2496,0.0,0.0,0.0,0.0,0.0,0.0,0.0,0.0,-2.725,-2.8705,-2.8247,-2.806,-2.8807,-2.818,0.0,0.0,0.0,0.0,0.0,0.0,0.0,0.0,0.0,0.0,0.0,0.0,0.0,0.0,0.0,0.0,0.0,0.0,0.0,0.0,0.0,0.0,0.0,0.0,0.0,0.0,0.0,0.0,0.0,0.0,0.0,0.0,0.0,0.0,0.0,0.0,0.0,-4.1367,-4.5843,-5.5496,-6.5705,-6.8458,0.0,0.0,-8.0755,-8.2627,-8.292,-8.1305,-7.6717,-6.9412,-5.7189,-4.9554,-4.2196,-3.2265,-2.961,-2.9097,-2.9023,-3.1739,-3.4871,0.0,0.0,-4.8783,0.0,0.0,0.0,0.0,0.0,0.0,0.0,0.0,0.0,0.0,0.0,0.0,-8.4499,-8.2333,-8.0681,-7.969,-7.9029,-7.8259,-7.731,-7.7273,-7.7273,-7.7273,-7.7273,-7.7273,-7.7273,-7.7273,-7.7273,-7.7273,-7.7273,0.0,0.0,-7.7163,-7.7127,-7.6907,-7.5395,-7.4808,-7.4625,-7.3083,-7.2496,-7.2496,0.0,0.0,0.0,0.0,0.0,0.0,0.0,0.0,-2.7063,-2.8146,-2.8416,-2.8619,-2.8976,-2.8687,0.0,0.0,0.0,0.0,0.0,0.0,0.0,0.0,0.0,0.0,0.0,0.0,0.0,0.0,0.0,0.0,0.0,0.0,0.0,0.0,0.0,0.0,0.0,0.0,0.0,0.0,0.0,0.0,0.0,0.0,0.0,0.0,0.0,0.0,0.0,0.0,0.0,0.0,-3.6827,-4.2759,0.0,0.0,-6.699,-7.2569,-7.8442,-8.0975,-8.1709,-8.0571,-7.5616,-6.8017,-5.6345,-4.8636,-4.1222,-3.1482,-2.9207,-2.8987,-2.8987,-3.1225,-3.3403,0.0,0.0,0.0,0.0,0.0,0.0,0.0,0.0,0.0,0.0,0.0,0.0,0.0,0.0,0.0,-8.3911,-8.2076,-8.0424,-7.9103,-7.8772,-7.8185,-7.731,-7.7273,-7.7273,-7.7273,-7.7273,-7.7273,-7.7273,-7.7273,-7.7273,-7.7273,-7.7273,0.0,0.0,-7.7273,-7.7273,-7.7127,-7.5512,-7.4918,-7.4735,-7.3083,-7.2496,-7.2496,0.0,0.0,0.0,0.0,0.0,0.0,-2.5169,-2.5913,-2.6725,-2.7689,-2.8281,-2.8671,-2.8671,-2.8671,-2.8112,-2.6793,0.0,0.0,0.0,0.0,0.0,0.0,0.0,0.0,0.0,0.0,0.0,0.0,0.0,0.0,0.0,0.0,0.0,0.0,0.0,0.0,0.0,0.0,0.0,0.0,0.0,0.0,0.0,0.0,0.0,0.0,0.0,0.0,0.0,0.0,0.0,0.0,0.0,0.0,0.0,0.0,-6.1117,-6.7907,-7.4882,-7.8516,-8.0057,-7.8956,-7.345,-6.5521,0.0,0.0,-3.957,-3.0821,-2.8987,-2.8987,-2.8987,-3.0381,-3.1592,0.0,0.0,-3.7991,0.0,0.0,0.0,0.0,0.0,0.0,0.0,0.0,0.0,0.0,0.0,0.0,-8.3104,-8.1746,-8.0388,-7.8993,-7.8956,-7.8405,-7.731,-7.7273,-7.7273,-7.7273,-7.7273,-7.7273,-7.7273,-7.7273,-7.7273,-7.7273,-7.7273,0.0,0.0,-7.7273,-7.7163,-7.6827,-7.5469,-7.4771,-7.4368,-7.301,-7.2496,-7.2496,0.0,0.0,0.0,0.0,0.0,0.0,0.0,0.0,-2.6133,-2.7621,-2.7824,-2.7824,-2.7824,-2.7824,-2.7519,-2.6759,0.0,0.0,0.0,0.0,0.0,0.0,0.0,0.0,0.0,0.0,0.0,0.0,0.0,0.0,0.0,0.0,0.0,0.0,0.0,0.0,0.0,0.0,0.0,0.0,0.0,0.0,0.0,0.0,0.0,0.0,0.0,0.0,0.0,0.0,0.0,0.0,0.0,0.0,0.0,0.0,-5.4766,-6.2254,-7.0367,-7.5542,-7.8222,-7.6533,-7.011,-6.1814,0.0,0.0,-3.689,-3.0344,-2.8987,-2.8987,-2.8987,-2.9023,-2.9317,-3.0099,-3.4298,-3.9182,-4.4085,0.0,0.0,0.0,0.0,0.0,0.0,0.0,0.0,0.0,0.0,0.0,-8.226,-8.1452,-8.0645,-7.98,-7.9764,-7.8993,-7.731,-7.7273,-7.7273,-7.7273,-7.7273,-7.7273,-7.7273,-7.7273,-7.7273,-7.7273,0.0,0.0,0.0,-7.7273,-7.6827,-7.6019,-7.5212,-7.4404,-7.3597,-7.2789,-7.2496,-7.2496,0.0,0.0,0.0,0.0,0.0,0.0,0.0,0.0,-2.5761,-2.6235,-2.7181,-2.779,-2.779,-2.779,-2.7722,-2.7452,0.0,0.0,0.0,0.0,0.0,0.0,0.0,0.0,0.0,0.0,0.0,0.0,0.0,0.0,0.0,0.0,0.0,0.0,0.0,0.0,0.0,0.0,0.0,0.0,0.0,0.0,0.0,0.0,0.0,0.0,0.0,0.0,0.0,0.0,0.0,0.0,0.0,0.0,0.0,0.0,0.0,0.0,-5.8364,-6.1887,-6.3429,-6.2365,-5.851,-5.3115,-4.5828,0.0,-3.6193,-3.0234,-2.8987,-2.8987,-2.8987,-2.8987,-3.0528,-3.5238,-3.6853,-3.957,0.0,0.0,0.0,0.0,0.0,0.0,0.0,0.0,0.0,0.0,0.0,0.0,-8.226,-8.1452,-8.0645,-7.98,-7.925,-7.8442,-7.731,-7.7273,-7.7273,-7.7273,-7.7273,-7.7273,-7.7273,-7.7273,-7.7273,0.0,0.0,0.0,0.0,-7.6717,-7.635,-7.5983,-7.4625,-7.3927,-7.3597,-7.2789,-7.2496,-7.2386,0.0,0.0,0.0,0.0,0.0,0.0,0.0,0.0,-2.527,-2.5559,-2.664,-2.7384,-2.7384,-2.7384,-2.7384,-2.7384,0.0,0.0,0.0,0.0,0.0,0.0,0.0,0.0,0.0,0.0,0.0,0.0,0.0,0.0,0.0,0.0,0.0,0.0,0.0,0.0,0.0,0.0,0.0,0.0,0.0,0.0,-2.6691,0.0,0.0,0.0,0.0,0.0,0.0,0.0,0.0,0.0,0.0,0.0,0.0,0.0,-3.6399,0.0,0.0,-5.3298,-5.4803,-5.3995,-5.0875,0.0,0.0,0.0,0.0,0.0,-2.9721,-3.0087,-2.917,-2.9757,-3.1372,-3.4527,-3.6927,-3.9496,-4.2599,0.0,0.0,0.0,0.0,0.0,0.0,0.0,0.0,0.0,0.0,0.0,-8.27,-8.1599,-8.0645,-7.98,-7.9029,-7.8185,-7.731,-7.7273,-7.7273,-7.7273,-7.7273,-7.7273,-7.7273,-7.7273,-7.7273,0.0,0.0,0.0,0.0,-7.6313,-7.5726,-7.5102,-7.4074,-7.3487,-7.3193,-7.2679,-7.2496,-7.2349,0.0,0.0,0.0,0.0,0.0,0.0,0.0,0.0,0.0,0.0,0.0,-2.6623,-2.6691,-2.6691,0.0,0.0,0.0,0.0,0.0,0.0,0.0,0.0,0.0,0.0,0.0,0.0,0.0,0.0,-2.7824,-2.8653,-3.0165,0.0,0.0,0.0,0.0,0.0,0.0,0.0,0.0,0.0,0.0,0.0,0.0,0.0,0.0,0.0,0.0,0.0,0.0,0.0,0.0,0.0,0.0,0.0,0.0,0.0,0.0,0.0,0.0,-4.8122,0.0,0.0,0.0,0.0,0.0,0.0,0.0,0.0,0.0,0.0,0.0,-3.1115,-3.2069,-3.0161,-3.5716,-3.946,0.0,0.0,0.0,0.0,0.0,0.0,0.0,0.0,0.0,0.0,0.0,0.0,-8.3251,-8.1782,-8.0534,-7.9727,-7.8919,-7.8112,-7.731,-7.7273,-7.7273,-7.7273,-7.7273,-7.7273,-7.7273,-7.7273,-7.7273,0.0,0.0,0.0,0.0,-7.6056,-7.5102,-7.367,-7.3634,-7.312,-7.2422,-7.2422,-7.2386,-7.2202,0.0,0.0,0.0,0.0,0.0,0.0,0.0,0.0,0.0,0.0,0.0,-2.6082,-2.6623,-2.6691,0.0,0.0,0.0,0.0,0.0,0.0,0.0,0.0,0.0,0.0,0.0,0.0,0.0,-2.6962,-2.8146,-2.9362,-3.0663,-3.1948,0.0,0.0,0.0,0.0,0.0,0.0,0.0,0.0,0.0,0.0,0.0,0.0,0.0,0.0,-2.8057,-2.8246,0.0,0.0,0.0,0.0,0.0,0.0,0.0,0.0,-2.928,-3.0087,-3.2583,0.0,-3.6046,-3.5238,-3.4174,-3.2963,0.0,0.0,0.0,0.0,0.0,0.0,0.0,0.0,-3.4578,-3.7719,-4.1242,-4.3608,-4.3644,0.0,0.0,0.0,0.0,0.0,0.0,0.0,0.0,0.0,0.0,-8.3508,-8.1672,-8.0608,-7.969,-7.8919,-7.8075,-7.7494,-7.7273,-7.7273,-7.7273,-7.7273,-7.7273,-7.7273,-7.7273,-7.7273,-7.7273,0.0,0.0,0.0,-7.6056,-7.5432,-7.4588,-7.3634,-7.301,-7.2312,-7.1578,-7.1578,-7.1211,-7.055,0.0,0.0,0.0,0.0,0.0,0.0,0.0,0.0,0.0,0.0,0.0,0.0,0.0,0.0,0.0,0.0,0.0,0.0,0.0,0.0,0.0,0.0,0.0,0.0,0.0,0.0,0.0,0.0,0.0,-2.9587,0.0,0.0,0.0,0.0,0.0,0.0,0.0,0.0,0.0,0.0,-2.721,0.0,0.0,0.0,0.0,0.0,-2.8324,-2.8527,0.0,-2.9331,-2.9317,-2.906,0.0,0.0,0.0,0.0,-2.8987,-2.8987,-2.8987,-3.0173,-3.1323,-3.087,-3.076,-3.065,0.0,0.0,0.0,0.0,0.0,0.0,0.0,0.0,0.0,-3.7331,-4.0414,0.0,0.0,0.0,0.0,0.0,0.0,0.0,0.0,0.0,0.0,0.0,0.0,-8.3728,-8.1672,-8.0424,-7.9433,-7.8626,-7.7781,-7.7273,-7.7273,-7.7273,-7.7273,-7.7273,-7.7273,-7.7273,-7.7273,-7.6937,-7.6754,0.0,0.0,0.0,-7.4955,-7.4515,-7.3891,-7.312,-7.2679,-7.2018,-7.1293,-7.1293,-7.0807,-6.9963,0.0,0.0,0.0,0.0,0.0,0.0,0.0,0.0,0.0,0.0,0.0,0.0,0.0,0.0,0.0,0.0,0.0,0.0,0.0,0.0,0.0,0.0,0.0,0.0,0.0,0.0,0.0,0.0,0.0,0.0,0.0,0.0,0.0,0.0,0.0,0.0,0.0,0.0,0.0,0.0,-2.738,0.0,0.0,0.0,0.0,0.0,0.0,0.0,0.0,-2.9806,-2.9574,-2.9133,-2.9794,0.0,0.0,0.0,0.0,0.0,-2.9464,-3.0723,-3.1788,-3.1213,-3.1213,-3.136,0.0,0.0,0.0,0.0,0.0,0.0,0.0,0.0,0.0,0.0,0.0,0.0,0.0,0.0,0.0,0.0,0.0,0.0,0.0,0.0,0.0,0.0,0.0,-8.3544,-8.1929,-8.0424,-7.925,-7.8442,-7.7708,-7.7273,-7.7273,-7.7273,-7.7273,-7.7273,-7.7273,-7.7273,-7.7273,-7.646,-7.6093,-7.6056,0.0,0.0,-7.367,-7.356,-7.3046,-7.2312,-7.2165,-7.1651,-7.0954,-7.0954,-7.044,-6.9633,0.0,0.0,0.0,0.0,0.0,0.0,0.0,0.0,0.0,0.0,0.0,0.0,0.0,0.0,0.0,0.0,0.0,0.0,0.0,0.0,0.0,0.0,0.0,0.0,0.0,0.0,0.0,0.0,0.0,0.0,-3.2766,-3.4586,-3.4652,0.0,0.0,0.0,0.0,0.0,0.0,0.0,0.0,0.0,0.0,0.0,0.0,0.0,0.0,0.0,0.0,-2.9133,-2.9097,-2.9023,-2.9133,0.0,0.0,0.0,0.0,0.0,-3.1482,-3.3206,-3.3647,-3.0234,-3.0393,-3.1017,0.0,0.0,0.0,0.0,0.0,0.0,0.0,0.0,0.0,0.0,0.0,0.0,0.0,0.0,0.0,0.0,0.0,0.0,0.0,0.0,0.0,0.0,0.0,-8.1856,-8.0241,-7.9286,-7.8405,-7.753,-7.7347,-7.7273,-7.7273,-7.7273,-7.7273,-7.7273,-7.7273,-7.7273,-7.7273,-7.646,-7.6093,-7.6056,0.0,-7.4441,-7.3634,-7.2973,-7.2202,-7.1431,-7.0734,-6.9963,-6.9265,-6.9265,-6.8752,-6.8054,0.0,0.0,0.0,0.0,0.0,0.0,0.0,0.0,0.0,0.0,0.0,0.0,0.0,0.0,0.0,0.0,0.0,0.0,0.0,0.0,0.0,0.0,0.0,0.0,0.0,0.0,0.0,0.0,0.0,-3.2095,-3.3663,-3.5049,-3.4549,-3.2552,0.0,0.0,0.0,0.0,-2.8463,-2.7904,0.0,0.0,0.0,0.0,0.0,0.0,0.0,0.0,0.0,0.0,-2.8987,-2.8987,-2.8987,0.0,0.0,0.0,0.0,0.0,-3.0344,-3.1812,-3.2596,-3.076,-3.2522,-3.4151,0.0,0.0,0.0,0.0,0.0,0.0,0.0,0.0,0.0,0.0,0.0,0.0,0.0,0.0,0.0,0.0,0.0,0.0,0.0,0.0,0.0,0.0,0.0,0.0,-7.925,-7.8809,-7.8222,-7.731,-7.7273,-7.709,-7.668,-7.6644,-7.6644,-7.6644,-7.6644,-7.6423,-7.5983,-7.5175,-7.4808,-7.4771,0.0,-7.3413,-7.2973,-7.2202,-7.1651,-7.1219,-7.0403,-6.9596,-6.8862,-6.8421,-6.8017,-6.7687,0.0,0.0,0.0,0.0,0.0,0.0,0.0,0.0,0.0,0.0,0.0,0.0,0.0,0.0,0.0,0.0,0.0,0.0,0.0,0.0,0.0,0.0,0.0,0.0,0.0,0.0,0.0,-2.9281,-3.165,-3.3441,-3.4644,-3.5226,-3.4223,0.0,0.0,0.0,0.0,0.0,-2.895,-2.8125,0.0,0.0,0.0,0.0,0.0,0.0,0.0,0.0,0.0,0.0,0.0,0.0,0.0,0.0,0.0,-2.8987,-2.8987,-2.9133,-2.9684,-3.076,-3.1678,-3.1678,0.0,0.0,0.0,0.0,0.0,0.0,0.0,0.0,0.0,0.0,0.0,0.0,0.0,0.0,0.0,0.0,0.0,0.0,0.0,0.0,0.0,0.0,0.0,0.0,0.0,0.0,-7.8699,-7.8405,-7.8002,-7.731,-7.709,-7.6717,-7.6093,-7.5909,-7.5836,-7.5836,-7.5836,-7.5506,-7.4882,-7.4074,-7.3597,-7.3377,-7.2569,-7.2129,-7.1872,-7.1064,-7.077,-7.066,-6.9853,-6.9155,-6.8531,-6.7907,-6.7687,-6.7687,0.0,0.0,0.0,0.0,0.0,0.0,0.0,0.0,0.0,0.0,0.0,0.0,0.0,0.0,0.0,0.0,0.0,0.0,0.0,0.0,0.0,0.0,0.0,0.0,0.0,-2.8163,-2.9281,-3.004,-3.2916,-3.4976,-3.6222,-3.5987,-3.446,-3.1996,0.0,0.0,0.0,0.0,-2.8393,-2.7396,-2.7365,0.0,0.0,0.0,0.0,0.0,0.0,0.0,0.0,0.0,0.0,0.0,0.0,0.0,-2.8987,-2.8987,-2.8987,-2.95,-3.1739,-3.2436,-3.2509,-3.2509,0.0,0.0,0.0,0.0,0.0,0.0,0.0,0.0,0.0,0.0,0.0,0.0,0.0,0.0,0.0,0.0,0.0,0.0,0.0,0.0,0.0,0.0,0.0,0.0,0.0,0.0,-7.8589,-7.7855,-7.7347,-7.7273,-7.6607,-7.6166,-7.6093,-7.5359,-7.4992,-7.4992,-7.4992,-7.4955,-7.4882,-7.4074,-7.3303,-7.2532,-7.1762,-7.0954,-7.022,-6.9412,-6.9082,-6.9009,-6.8201,-6.7834,-6.776,-6.7724,-6.7687,-6.7687,0.0,0.0,0.0,0.0,0.0,0.0,0.0,0.0,0.0,0.0,0.0,0.0,0.0,0.0,0.0,0.0,0.0,0.0,0.0,0.0,0.0,0.0,0.0,-2.6691,-2.6691,-2.8653,-3.004,-3.0784,-3.3728,-3.5191,-3.519,-3.4441,0.0,0.0,0.0,0.0,0.0,0.0,-2.9248,-2.8383,-2.8647,-2.8663,0.0,0.0,0.0,0.0,0.0,0.0,0.0,0.0,-2.8987,-2.8987,0.0,-2.8987,-2.8987,-2.8987,-2.8987,-2.9207,-3.0124,-3.1445,-3.2729,-3.322,0.0,0.0,0.0,0.0,0.0,0.0,0.0,0.0,0.0,0.0,0.0,0.0,0.0,0.0,0.0,0.0,0.0,0.0,0.0,0.0,0.0,0.0,0.0,0.0,0.0,0.0,-7.7818,-7.7457,-7.7053,-7.657,-7.6276,-7.5616,-7.4625,-7.3817,-7.3156,-7.2679,-7.3193,-7.3156,-7.2642,-7.1835,-7.1284,-7.0991,-7.0697,-7.0367,-7.0036,-6.9229,-6.8898,-6.8825,-6.8017,-6.7687,-6.7687,-6.7687,-6.7687,-6.7687,0.0,0.0,0.0,0.0,0.0,0.0,0.0,0.0,0.0,0.0,0.0,0.0,0.0,0.0,0.0,0.0,0.0,0.0,0.0,0.0,0.0,0.0,0.0,-2.6116,-2.6353,-2.8349,-2.9973,-3.119,-3.3931,-3.4641,-3.3444,0.0,0.0,0.0,0.0,0.0,0.0,0.0,0.0,-2.9074,-2.9611,-2.9429,0.0,0.0,0.0,0.0,0.0,0.0,0.0,0.0,0.0,0.0,0.0,0.0,0.0,0.0,-2.8803,-2.862,-2.862,-2.9831,-3.1347,0.0,0.0,0.0,0.0,0.0,0.0,0.0,0.0,0.0,0.0,0.0,0.0,0.0,0.0,0.0,0.0,0.0,0.0,0.0,0.0,0.0,0.0,0.0,0.0,0.0,0.0,0.0,0.0,-7.6937,-7.657,-7.5763,-7.5249,-7.4441,-7.334,-7.2275,-7.1468,-7.0917,-7.1211,-7.1211,-7.0917,-7.033,-6.9963,-6.9706,-6.9449,-6.9339,-6.9265,-6.8458,-6.8164,-6.8128,-6.7797,-6.754,-6.7357,-6.7614,-6.7687,-6.7687,0.0,0.0,0.0,0.0,0.0,0.0,0.0,0.0,0.0,0.0,0.0,0.0,0.0,0.0,0.0,0.0,0.0,0.0,0.0,0.0,0.0,0.0,0.0,-2.4846,-2.5592,-2.7046,-2.8906,-3.119,-3.3389,-3.3322,-3.121,-3.1582,0.0,0.0,0.0,0.0,0.0,0.0,0.0,-2.9174,-2.997,-2.9555,-2.8497,0.0,0.0,0.0,0.0,0.0,0.0,0.0,-2.8987,0.0,0.0,0.0,0.0,0.0,-2.8448,-2.7798,-2.7798,-2.786,0.0,0.0,0.0,0.0,0.0,0.0,0.0,0.0,0.0,0.0,0.0,0.0,0.0,0.0,0.0,0.0,0.0,0.0,0.0,0.0,0.0,0.0,0.0,0.0,0.0,0.0,0.0,0.0,0.0,-7.6093,-7.5689,-7.4918,-7.334,-7.2496,-7.2496,-7.0881,-7.0073,-7.0073,-6.9265,-6.9302,-7.0073,-7.0073,-6.9633,-6.8825,-6.8017,-6.7677,-6.7614,-6.6806,-6.6476,-6.6549,-6.7357,-6.7173,-6.6586,-6.7393,-6.7687,-6.7687,0.0,0.0,0.0,0.0,0.0,0.0,0.0,0.0,0.0,0.0,0.0,0.0,0.0,0.0,0.0,0.0,0.0,0.0,0.0,0.0,0.0,0.0,0.0,0.0,0.0,0.0,-2.8669,-3.0446,-3.1089,-3.0784,0.0,0.0,0.0,-2.9192,0.0,0.0,0.0,0.0,0.0,-2.9924,-3.0737,-3.017,-2.8846,0.0,0.0,0.0,0.0,0.0,0.0,0.0,0.0,0.0,0.0,0.0,0.0,-2.8987,-2.884,-2.862,-2.862,0.0,0.0,0.0,0.0,0.0,0.0,0.0,0.0,0.0,0.0,0.0,0.0,0.0,0.0,0.0,0.0,0.0,0.0,0.0,0.0,0.0,0.0,0.0,0.0,0.0,0.0,0.0,0.0,0.0,0.0,-7.4404,-7.378,-7.2393,-7.1908,-7.1394,-7.0807,-6.9779,-6.8972,-6.8385,-6.7614,-6.7614,-6.8385,-6.7834,-6.7136,-6.6366,-6.6109,-6.5999,-6.5999,-6.5742,-6.5668,-6.5742,-6.6329,-6.6429,-6.6355,-6.732,-6.7687,-6.7687,0.0,0.0,0.0,0.0,0.0,0.0,0.0,0.0,0.0,0.0,0.0,0.0,0.0,0.0,0.0,0.0,0.0,0.0,0.0,0.0,0.0,0.0,0.0,0.0,0.0,-2.6996,-2.7841,0.0,0.0,0.0,0.0,0.0,0.0,-2.9046,0.0,-3.0702,0.0,0.0,0.0,-3.0283,-3.1103,-3.043,-2.9023,0.0,0.0,0.0,0.0,0.0,0.0,0.0,0.0,0.0,0.0,0.0,0.0,-3.0051,-2.9721,-2.9464,-2.9464,0.0,0.0,0.0,0.0,0.0,0.0,0.0,0.0,0.0,0.0,0.0,0.0,0.0,0.0,0.0,0.0,0.0,0.0,0.0,0.0,0.0,0.0,0.0,0.0,0.0,0.0,0.0,0.0,0.0,0.0,-7.2753,-7.2018,-7.0403,-7.0036,-6.9486,-6.8678,-6.7871,-6.7247,-6.6733,-6.6256,-6.6109,-6.6256,-6.6109,-6.5778,-6.5301,-6.5301,-6.5118,-6.4861,-6.5191,-6.5118,-6.4897,-6.5521,-6.5632,-6.5558,-6.6439,-6.7136,-6.7687,0.0,0.0,0.0,0.0,0.0,0.0,0.0,0.0,0.0,0.0,0.0,0.0,0.0,0.0,0.0,0.0,0.0,0.0,0.0,0.0,0.0,0.0,0.0,0.0,0.0,0.0,0.0,0.0,0.0,0.0,0.0,0.0,-2.9709,-2.9152,0.0,-3.2107,0.0,0.0,0.0,0.0,-3.098,-3.0356,0.0,0.0,0.0,0.0,0.0,0.0,0.0,0.0,0.0,0.0,0.0,0.0,-3.2472,-3.1715,-3.0944,-3.0356,0.0,0.0,0.0,0.0,0.0,0.0,0.0,0.0,0.0,0.0,0.0,0.0,0.0,0.0,0.0,0.0,0.0,0.0,0.0,0.0,0.0,0.0,0.0,0.0,0.0,0.0,0.0,0.0,0.0,0.0,0.0,-7.0991,-7.0257,-6.8641,-6.7871,-6.7136,-6.6402,-6.5668,-6.5264,-6.5191,-6.5191,-6.4751,-6.3906,-6.4787,-6.5154,-6.5081,-6.5081,-6.4677,-6.4016,-6.4787,-6.464,-6.4053,-6.4787,-6.4787,-6.442,-6.4897,-6.5999,-6.7247,0.0,0.0,0.0,0.0,0.0,0.0,0.0,0.0,0.0,0.0,0.0,0.0,0.0,0.0,0.0,0.0,0.0,0.0,0.0,0.0,0.0,0.0,0.0,0.0,0.0,0.0,0.0,0.0,0.0,0.0,0.0,0.0,0.0,-2.9592,0.0,-3.2598,0.0,0.0,0.0,0.0,0.0,0.0,0.0,0.0,0.0,0.0,0.0,0.0,0.0,0.0,0.0,0.0,-2.8987,-3.0675,-3.2583,-3.2399,-3.1788,0.0,0.0,0.0,0.0,0.0,0.0,0.0,0.0,0.0,0.0,0.0,0.0,0.0,0.0,0.0,0.0,0.0,0.0,0.0,0.0,0.0,0.0,0.0,0.0,0.0,0.0,0.0,0.0,0.0,0.0,0.0,-6.8568,-6.8458,-6.7724,-6.6145,-6.5925,-6.5742,-6.5558,-6.5411,-6.4971,0.0,-6.4347,-6.3576,-6.2181,-6.3686,-6.398,-6.3356,-6.3356,-6.3246,-6.3099,-6.3282,-6.3246,-6.3099,-6.3257,-6.3257,-6.3209,-6.3294,-6.3576,-6.387,0.0,0.0,0.0,0.0,0.0,0.0,0.0,0.0,0.0,0.0,0.0,0.0,0.0,0.0,0.0,0.0,0.0,0.0,0.0,0.0,0.0,0.0,0.0,0.0,0.0,0.0,0.0,0.0,0.0,0.0,0.0,0.0,0.0,-2.9951,0.0,-3.2177,0.0,0.0,0.0,0.0,0.0,0.0,0.0,0.0,0.0,-2.8987,-2.8987,0.0,0.0,0.0,0.0,0.0,0.0,0.0,-3.2509,-3.2155,-3.1715,-3.1825,0.0,0.0,0.0,0.0,0.0,0.0,0.0,0.0,0.0,0.0,0.0,0.0,0.0,0.0,0.0,0.0,0.0,0.0,0.0,0.0,0.0,0.0,0.0,0.0,0.0,0.0,0.0,0.0,0.0,-6.7834,-6.6623,-6.6549,-6.5815,-6.4138,-6.4127,-6.3723,-6.2952,-6.2952,-6.2732,-6.2328,-6.2328,-6.1851,-6.1043,-6.1924,-6.2291,-6.2218,-6.1814,-6.1887,-6.2218,-6.2218,-6.2218,-6.2254,-6.2658,-6.278,-6.278,-6.278,-6.2298,-6.1548,0.0,0.0,0.0,0.0,0.0,0.0,0.0,0.0,0.0,0.0,0.0,0.0,0.0,0.0,0.0,0.0,0.0,0.0,0.0,0.0,0.0,0.0,0.0,0.0,0.0,0.0,0.0,0.0,0.0,0.0,0.0,0.0,0.0,-3.0356,0.0,0.0,0.0,0.0,0.0,0.0,0.0,0.0,0.0,0.0,0.0,0.0,-2.8987,-2.8987,-2.8987,-2.8987,0.0,0.0,0.0,0.0,-3.2472,-3.1788,-3.1494,-3.1971,0.0,0.0,0.0,0.0,0.0,0.0,0.0,0.0,0.0,0.0,0.0,0.0,0.0,0.0,0.0,0.0,0.0,0.0,0.0,0.0,0.0,0.0,0.0,0.0,0.0,0.0,0.0,0.0,0.0,-6.5888,-6.4934,-6.4897,-6.4127,-6.2438,-6.2401,-6.1741,-6.0419,-6.0419,-6.0419,-6.0419,-6.0272,-6.0199,-6.0199,-6.0052,-6.0493,-6.1374,-6.0676,-6.0786,-6.1374,-6.1374,-6.1374,-6.1447,-6.2144,-6.2401,-6.2377,-6.2299,-6.1542,-6.0273,0.0,0.0,0.0,0.0,0.0,0.0,0.0,0.0,0.0,0.0,0.0,0.0,0.0,0.0,0.0,0.0,0.0,0.0,-2.5559,0.0,0.0,-2.6691,0.0,0.0,0.0,0.0,0.0,0.0,0.0,0.0,0.0,0.0,0.0,0.0,0.0,0.0,0.0,0.0,0.0,0.0,0.0,0.0,0.0,0.0,0.0,0.0,-2.8987,-2.8987,-2.8987,-2.8987,-2.8987,0.0,0.0,0.0,-3.2583,-3.2472,-3.1935,0.0,0.0,0.0,0.0,0.0,0.0,0.0,0.0,0.0,0.0,0.0,0.0,0.0,0.0,0.0,0.0,0.0,0.0,0.0,0.0,0.0,0.0,0.0,0.0,0.0,0.0,0.0,0.0,0.0,-6.5521,-6.4787,-6.322,-6.311,-6.2401,-6.0786,-6.0713,-6.0639,-6.0419,-6.0419,-6.0419,-6.0382,-5.9685,-5.9368,-5.9331,-5.8657,-5.9134,-6.0566,-6.0456,-6.0456,-6.0566,-6.0566,-6.0566,-6.0566,-6.0676,-6.0713,-6.0652,-6.024,-6.0524,-6.079,0.0,0.0,0.0,0.0,0.0,0.0,0.0,0.0,0.0,0.0,0.0,0.0,0.0,0.0,0.0,-2.5726,-2.5726,-2.5879,-2.6184,-2.6522,-2.6691,-2.6691,-2.6691,0.0,0.0,0.0,0.0,0.0,0.0,0.0,0.0,-3.4185,-3.4404,0.0,0.0,0.0,0.0,0.0,0.0,0.0,0.0,0.0,0.0,0.0,0.0,0.0,0.0,-2.8987,-2.8987,-2.8987,-2.8987,-2.8987,-2.8987,0.0,0.0,0.0,-3.0344,0.0,0.0,0.0,0.0,0.0,0.0,0.0,0.0,0.0,0.0,0.0,0.0,0.0,0.0,0.0,0.0,0.0,0.0,0.0,0.0,0.0,0.0,0.0,0.0,0.0,0.0,0.0,0.0,0.0,-6.3759,-6.2915,-6.2181,-6.1704,-6.0933,-5.9735,-5.9735,-5.9501,-5.9061,-5.9061,-5.9061,-5.9061,-5.8694,-5.8547,-5.851,-5.8143,-5.8621,-5.9698,-5.9245,-5.9318,-5.9735,-5.9735,-5.9735,-5.9795,-6.0236,-6.0419,-6.0286,-5.9177,-5.9059,-5.9141,0.0,0.0,0.0,0.0,0.0,0.0,0.0,0.0,0.0,0.0,0.0,0.0,0.0,0.0,0.0,0.0,-2.6691,-2.6691,-2.6691,-2.6691,-2.6691,-2.6691,-2.6691,-2.6858,-2.7147,0.0,0.0,0.0,0.0,0.0,-3.5334,-3.6009,-3.7367,0.0,-3.5679,0.0,0.0,0.0,0.0,0.0,0.0,0.0,0.0,0.0,0.0,0.0,0.0,-3.0051,-3.0198,-2.9977,-2.9647,-2.928,-2.906,-2.8987,0.0,0.0,0.0,0.0,0.0,0.0,0.0,0.0,0.0,0.0,0.0,0.0,0.0,0.0,0.0,0.0,0.0,0.0,0.0,0.0,0.0,0.0,0.0,0.0,0.0,0.0,0.0,0.0,0.0,0.0,0.0,0.0,-6.1998,-6.119,-6.1006,-6.0419,-5.9722,-5.8914,-5.8914,-5.8621,-5.7997,-5.7997,-5.7997,-5.7997,-5.7997,-5.7997,-5.7997,-5.7997,-5.8327,-5.8854,-5.8253,-5.8327,-5.8914,-5.8914,-5.8914,-5.8927,-5.9347,-5.9518,-5.9322,-5.7801,-5.7339,-5.7197,0.0,0.0,0.0,0.0,0.0,0.0,0.0,0.0,0.0,0.0,0.0,0.0,0.0,-2.6691,-2.6691,-2.6691,-2.6691,-2.6691,-2.6691,-2.6691,-2.6691,-2.6691,-2.6691,0.0,-2.6725,0.0,0.0,0.0,0.0,0.0,-3.6229,-3.6266,-3.7991,-4.0802,-3.6729,-3.4491,-3.3697,0.0,0.0,0.0,0.0,0.0,0.0,0.0,0.0,0.0,0.0,0.0,-3.344,-3.2656,-3.1408,-2.9989,-2.9244,-2.8987,-2.8987,0.0,0.0,0.0,0.0,0.0,0.0,0.0,0.0,0.0,0.0,0.0,0.0,0.0,0.0,0.0,0.0,0.0,0.0,0.0,0.0,0.0,0.0,0.0,0.0,0.0,0.0,0.0,0.0,0.0,0.0,0.0,-6.0529,-6.0126,-5.9368,-5.9294,-5.8914,-5.8107,-5.807,-5.8033,-5.7997,-5.7997,-5.7997,-5.7997,-5.7997,-5.7997,-5.7997,-5.7997,-5.8033,-5.807,-5.8033,-5.8033,-5.807,-5.807,-5.807,-5.8,-5.7361,-5.7072,-5.6891,-5.5337,-5.522,-5.562,0.0,0.0,0.0,0.0,0.0,0.0,0.0,0.0,0.0,0.0,0.0,0.0,0.0,-2.6691,-2.6691,-2.6691,-2.6691,-2.6825,-2.7067,-2.7083,-2.721,-2.7472,-2.7487,-2.7557,-2.7805,0.0,0.0,0.0,0.0,-3.3573,-3.5481,-3.5481,-3.6362,-3.7918,-3.5885,-3.5151,-3.5275,-3.3109,0.0,0.0,0.0,0.0,0.0,0.0,0.0,0.0,0.0,0.0,0.0,0.0,-3.1971,-3.0136,-2.9867,-2.9427,-2.8987,-2.8987,-3.0711,0.0,0.0,0.0,0.0,0.0,0.0,0.0,0.0,0.0,0.0,0.0,0.0,0.0,0.0,0.0,0.0,0.0,0.0,0.0,0.0,0.0,0.0,0.0,0.0,0.0,0.0,0.0,0.0,0.0,0.0,-5.9478,-5.9221,-5.8731,-5.829,-5.7997,-5.7997,-5.7997,-5.7997,-5.7483,-5.7226,-5.7226,-5.6712,-5.6712,-5.7226,-5.7226,-5.7519,-5.7997,-5.7997,-5.7997,-5.7997,-5.7997,-5.7726,-5.7277,-5.6989,-5.6589,-5.6039,-5.4999,-5.478,-5.4862,0.0,0.0,0.0,0.0,0.0,0.0,0.0,0.0,0.0,0.0,0.0,0.0,0.0,0.0,-2.6691,-2.6691,-2.6841,-2.7003,-2.7288,-2.7441,-2.7636,-2.7897,-2.7897,-2.801,-2.8219,0.0,0.0,0.0,0.0,0.0,0.0,0.0,-3.3977,-3.5018,-3.416,0.0,0.0,0.0,0.0,-3.2766,0.0,0.0,-2.9512,0.0,0.0,0.0,0.0,0.0,0.0,0.0,0.0,-3.021,-3.021,-2.9831,-2.9354,-2.9097,-3.0124,0.0,0.0,0.0,0.0,0.0,0.0,0.0,0.0,0.0,0.0,0.0,0.0,0.0,0.0,0.0,0.0,0.0,0.0,0.0,0.0,0.0,0.0,0.0,0.0,0.0,0.0,0.0,0.0,0.0,0.0,0.0,-5.8804,-5.829,-5.7886,-5.7593,-5.7593,-5.7483,-5.7189,-5.6675,-5.6418,-5.6381,-5.5868,-5.5868,-5.6418,-5.6418,-5.6859,-5.757,-5.7348,-5.7517,-5.7997,-5.7997,-5.7583,-5.6887,-5.6616,-5.6039,-5.5232,-5.4482,-5.4232,-5.4171,0.0,0.0,0.0,0.0,0.0,0.0,0.0,0.0,0.0,0.0,0.0,0.0,0.0,0.0,0.0,-2.6708,-2.7067,-2.7319,-2.735,-2.771,-2.7926,-2.794,-2.794,-2.794,-2.794,0.0,0.0,0.0,0.0,0.0,0.0,0.0,-3.1017,0.0,-3.1715,-3.1788,-3.2546,0.0,-3.377,-3.3513,0.0,-3.0454,-3.2472,0.0,0.0,0.0,-3.9863,-3.9937,0.0,-3.7294,0.0,0.0,0.0,-3.021,-3.0063,-2.9244,-2.9023,0.0,0.0,0.0,0.0,0.0,0.0,0.0,0.0,0.0,0.0,0.0,0.0,0.0,0.0,0.0,0.0,0.0,0.0,0.0,0.0,0.0,0.0,0.0,0.0,0.0,0.0,0.0,0.0,0.0,-5.796,-5.796,-5.796,-5.7923,-5.7556,-5.6785,-5.6785,-5.6381,-5.5633,-5.5596,-5.5537,-5.5537,-5.5559,-5.5559,-5.5537,-5.5574,-5.6029,-5.6717,-5.6006,-5.6576,-5.795,-5.795,-5.7498,-5.6747,-5.5976,-5.5203,-5.4482,-5.375,-5.3518,-5.3518,0.0,0.0,0.0,0.0,0.0,0.0,0.0,0.0,0.0,0.0,0.0,0.0,0.0,-2.6691,-2.6825,-2.7115,-2.7241,-2.7512,-2.8071,-2.8192,-2.8399,-2.8676,-2.8688,-2.8688,-2.8688,0.0,0.0,0.0,0.0,0.0,0.0,0.0,0.0,0.0,-3.0393,-3.032,-3.0087,-3.1494,0.0,0.0,-3.0944,-3.0613,0.0,0.0,0.0,0.0,0.0,-4.1148,-4.1625,0.0,-3.8814,-3.4959,0.0,-3.0687,-3.0173,-2.9953,-2.9464,-2.8987,-2.8987,0.0,0.0,0.0,0.0,0.0,0.0,0.0,0.0,0.0,0.0,0.0,0.0,0.0,0.0,0.0,0.0,0.0,0.0,0.0,0.0,0.0,0.0,0.0,0.0,0.0,0.0,0.0,-5.7446,-5.7152,-5.7152,-5.6565,-5.6161,-5.5941,-5.5941,-5.5831,-5.5596,-5.5023,-5.473,-5.473,-5.4142,-5.4179,-5.4708,-5.4768,-5.5245,-5.5981,-5.5794,-5.5927,-5.6331,-5.6331,-5.5893,-5.5208,-5.4999,-5.4451,-5.3783,-5.3584,-5.3518,-5.3518,0.0,0.0,0.0,0.0,0.0,0.0,0.0,0.0,0.0,0.0,0.0,0.0,0.0,0.0,-2.7994,-2.8239,-2.8599,-2.8827,-2.8881,-2.9036,-2.9126,-2.9012,-2.8987,-2.8987,-2.8987,0.0,0.0,0.0,0.0,0.0,0.0,0.0,0.0,0.0,0.0,0.0,0.0,0.0,0.0,0.0,-3.076,0.0,0.0,-3.2412,-3.4247,0.0,0.0,0.0,-4.3828,-4.3975,-4.1111,0.0,0.0,0.0,-3.1078,-3.0393,-2.9879,-2.9427,-2.9097,-2.8987,0.0,0.0,0.0,0.0,-2.8583,-3.0723,0.0,0.0,0.0,0.0,0.0,0.0,0.0,0.0,0.0,0.0,0.0,0.0,0.0,0.0,0.0,0.0,0.0,-5.7005,-5.7005,-5.7005,-5.6565,-5.6308,-5.6308,-5.5831,-5.5427,-5.5097,-5.5097,-5.495,-5.4583,-5.4142,-5.3922,-5.3885,-5.3445,-5.3441,-5.3891,-5.3929,-5.4614,-5.5646,-5.5023,-5.5126,-5.5667,-5.5029,-5.4695,-5.4606,-5.4606,-5.4171,-5.3518,-5.3518,-5.3518,-5.3518,0.0,0.0,0.0,0.0,0.0,0.0,0.0,0.0,0.0,0.0,0.0,0.0,0.0,0.0,0.0,-2.9672,-3.0324,-3.0428,-2.9709,-2.9905,-2.9806,-2.917,-2.9133,-2.9133,-2.9133,-2.9133,0.0,0.0,0.0,0.0,0.0,0.0,0.0,0.0,0.0,0.0,0.0,0.0,0.0,-3.0467,-3.0577,-3.2155,0.0,0.0,-3.7147,-4.1315,-4.302,-4.4672,-4.592,-4.5112,-4.1662,0.0,0.0,0.0,0.0,0.0,-3.0356,-3.0063,-2.9427,-2.928,-2.9427,-3.0063,0.0,0.0,-2.8154,-2.9953,-3.1531,0.0,0.0,0.0,0.0,0.0,0.0,0.0,0.0,0.0,0.0,0.0,0.0,0.0,0.0,0.0,-5.5464,-5.5559,-5.5596,-5.5596,-5.5522,-5.5449,-5.5317,-5.5317,-5.4987,-5.4289,-5.4289,-5.3922,-5.3203,-5.3203,-5.3203,-5.3203,-5.3203,-5.3178,-5.3207,-5.3135,-5.395,-5.5338,-5.383,-5.3982,-5.5209,-5.3907,-5.3813,-5.4482,-5.4482,-5.4074,-5.3518,-5.3518,-5.3518,-5.3518,-2.5778,0.0,0.0,0.0,0.0,0.0,0.0,0.0,0.0,0.0,0.0,0.0,0.0,0.0,0.0,-3.0059,-2.9955,-2.9919,-3.0064,-2.9538,-2.9464,-2.9953,-2.9989,-2.9989,-2.9989,-2.9989,-2.9647,0.0,0.0,0.0,0.0,0.0,0.0,0.0,0.0,0.0,0.0,0.0,0.0,-3.2179,-3.2852,0.0,-3.8652,-3.7991,-3.915,-4.1389,-4.3681,-4.5498,-4.6746,-4.5957,-4.2873,-3.9035,0.0,0.0,0.0,-3.2032,0.0,0.0,0.0,0.0,0.0,0.0,0.0,0.0,-2.9244,-3.1629,-3.3903,0.0,0.0,0.0,0.0,0.0,0.0,0.0,0.0,0.0,0.0,0.0,0.0,0.0,0.0,0.0,-5.462,-5.5207,-5.5596,-5.5596,-5.4987,-5.4363,-5.3702,-5.3665,-5.3592,-5.3445,-5.3424,-5.3371,-5.3203,-5.3203,-5.3203,-5.3203,-5.3203,-5.3198,-5.3193,-5.2648,-5.2883,-5.3689,-5.2261,-5.2115,-5.2957,-5.2634,-5.3008,-5.3717,-5.3717,-5.3651,-5.3518,-5.3518,-5.3518,-5.3518,-2.615,0.0,0.0,0.0,0.0,0.0,0.0,0.0,0.0,0.0,0.0,0.0,0.0,0.0,0.0,0.0,-3.1699,-3.1621,-3.1408,-3.1005,-3.0785,-3.0797,-3.0797,-3.0797,-3.0797,-3.0393,-2.9989,0.0,0.0,0.0,0.0,0.0,0.0,0.0,0.0,0.0,0.0,0.0,-3.1225,-3.3757,-3.3353,0.0,-3.8704,-3.8689,-3.9717,-4.1462,-4.4305,-4.7131,-4.9187,-4.6728,-4.5076,0.0,-3.841,-3.6046,-3.4798,0.0,-3.2339,-3.1421,0.0,0.0,0.0,-3.1311,0.0,0.0,0.0,-3.1458,-3.2999,0.0,0.0,0.0,0.0,0.0,0.0,0.0,0.0,0.0,0.0,0.0,0.0,0.0,0.0,0.0,-5.194,-5.2364,-5.2768,-5.3188,-5.2821,-5.2417,-5.2013,-5.2013,-5.2013,-5.2013,-5.238,-5.2417,-5.2013,-5.2821,-5.3004,-5.2601,-5.3004,-5.32,-5.3217,-5.2844,-5.2944,-5.3278,-5.22,-5.1987,-5.233,-5.1919,-5.2232,-5.2942,-5.3348,-5.3518,-5.3518,-5.3518,-5.3518,-5.3518,-2.6691,0.0,0.0,0.0,0.0,0.0,0.0,0.0,0.0,0.0,0.0,0.0,0.0,0.0,0.0,0.0,0.0,-3.4137,-3.3793,-3.2876,-3.2228,-3.1874,-3.158,-3.147,-3.1617,-3.0834,-3.0283,-2.9989,0.0,0.0,0.0,0.0,0.0,0.0,0.0,0.0,0.0,0.0,0.0,-3.4711,0.0,-3.5312,-3.8006,-3.8505,-3.9994,-4.2196,-4.5259,-4.8269,-5.0325,-4.7021,-4.6544,-4.625,-3.9717,-3.8065,0.0,0.0,0.0,0.0,0.0,0.0,0.0,0.0,0.0,-3.0381,0.0,0.0,0.0,0.0,0.0,0.0,0.0,0.0,0.0,0.0,0.0,0.0,0.0,0.0,0.0,0.0,0.0,0.0,0.0,-4.8839,-4.893,-4.9591,-4.9774,-4.9848,-4.9848,-5.0472,-5.0802,-5.0802,-5.1426,-5.1463,-5.0802,-5.2234,-5.2637,-5.2013,-5.2821,-5.32,-5.317,-5.293,-5.2927,-5.312,-5.2114,-5.18,-5.1903,-5.1267,-5.1386,-5.2029,-5.2773,-5.3247,-5.3484,-5.3348,-5.3382,-5.3518,-2.6691,-2.6691,0.0,0.0,0.0,0.0,0.0,0.0,0.0,0.0,0.0,0.0,0.0,0.0,0.0,0.0,0.0,0.0,-3.7918,0.0,-3.2118,-3.3476,-3.2155,-3.1715,-3.2436,-3.1678,-3.0577,-2.9133,0.0,0.0,0.0,0.0,0.0,0.0,-2.9721,0.0,0.0,0.0,-3.2963,0.0,-3.6134,-3.8006,0.0,-3.8946,-4.1038,-4.4618,-4.7131,-4.7425,-4.6507,0.0,-4.5076,-4.3864,0.0,-4.0357,-3.786,-3.8924,0.0,0.0,0.0,0.0,0.0,0.0,-3.4064,0.0,0.0,0.0,-3.098,-2.9574,0.0,0.0,0.0,0.0,0.0,0.0,0.0,0.0,0.0,0.0,0.0,0.0,0.0,0.0,0.0,-4.6085,-4.5296,-4.5388,-4.6067,-4.6471,-4.6471,-4.9224,-5.0802,-5.0802,-5.0875,-5.0875,-5.0802,-5.1683,-5.2087,-5.2013,-5.2821,-5.3219,-5.3148,-5.192,-5.1705,-5.2226,-5.0248,-4.9749,-5.036,-5.0265,-5.0405,-5.0745,-5.1285,-5.23,-5.3416,-5.2706,-5.2875,-5.3518,-2.6691,-2.6691,0.0,0.0,0.0,0.0,0.0,0.0,0.0,0.0,0.0,0.0,0.0,0.0,0.0,0.0,0.0,-4.0227,0.0,0.0,-3.4368,-3.5899,-3.3917,-3.2963,-3.3293,-3.2522,-3.1531,-3.0393,-3.0393,0.0,0.0,0.0,0.0,0.0,-2.9721,0.0,-3.2852,0.0,0.0,0.0,0.0,0.0,0.0,-3.8469,-4.0487,-4.4378,-4.7278,-4.7278,-4.5957,0.0,-4.6471,0.0,0.0,0.0,0.0,-3.9533,0.0,0.0,0.0,0.0,0.0,0.0,0.0,0.0,-3.1898,0.0,-2.9941,0.0,0.0,0.0,0.0,0.0,0.0,0.0,-3.1041,0.0,0.0,0.0,0.0,0.0,0.0,0.0,0.0,0.0,0.0,0.0,-4.2837,-4.3828,-4.3828,-4.6434,-4.7976,-4.7976,-4.8857,-4.915,-4.8654,-5.0435,-5.1316,-5.1316,-5.2123,-5.2747,-5.3203,-5.2613,-5.2029,-5.1494,-5.062,-4.9923,-4.9492,-4.9898,-5.0405,-5.0881,-5.0813,-5.1386,-5.2232,-5.2807,-5.3213,-5.3518,-2.6691,0.0,0.0,0.0,0.0,0.0,0.0,0.0,0.0,0.0,0.0,0.0,-4.3278,-4.3745,0.0,0.0,-4.5854,-4.3876,0.0,0.0,-3.7361,-3.8123,-3.5789,-3.4504,-3.4504,-3.3256,-3.2118,-3.1054,-3.1054,0.0,0.0,0.0,0.0,0.0,0.0,-3.0858,-3.3513,0.0,0.0,-3.8285,-3.8946,-3.9108,-3.8909,-3.8851,-4.0503,-4.3277,-4.6728,-4.6948,-4.57,-4.6489,-4.7296,0.0,-4.5902,0.0,-4.3424,0.0,0.0,0.0,-3.5789,0.0,0.0,0.0,0.0,0.0,0.0,0.0,0.0,0.0,0.0,0.0,0.0,0.0,0.0,-2.8987,0.0,-3.1592,0.0,0.0,0.0,0.0,0.0,0.0,0.0,0.0,0.0,-3.7037,-3.9496,-4.0671,-4.001,-4.3754,-4.559,-4.4929,-4.6911,-4.77,-4.7113,-4.9334,-5.0582,-5.0802,-5.161,-5.2417,-5.3167,-5.298,-5.2242,-5.1086,-5.0876,-5.0118,-4.9052,-4.9593,-5.027,-5.0948,-5.0574,-5.0507,-5.0777,-5.2334,-5.3145,-5.3518,-2.6691,-2.6691,0.0,0.0,0.0,0.0,0.0,0.0,0.0,0.0,0.0,0.0,0.0,0.0,0.0,0.0,0.0,-4.7109,-4.7068,0.0,-4.0727,0.0,0.0,-3.6229,-3.6229,-3.383,-3.1812,-3.0246,-3.0246,0.0,0.0,0.0,0.0,0.0,0.0,-3.1091,-3.2693,-3.3513,-3.3917,-3.4211,-3.6611,-3.7125,-3.6817,0.0,-4.1735,-4.1682,-4.5682,0.0,0.0,-4.5663,-4.6471,0.0,0.0,0.0,0.0,0.0,0.0,0.0,0.0,0.0,0.0,-3.8006,0.0,0.0,0.0,0.0,-3.2999,0.0,0.0,0.0,0.0,-2.9023,-2.8987,-2.8987,-2.906,0.0,0.0,0.0,0.0,0.0,0.0,0.0,0.0,0.0,0.0,-3.2803,-3.5789,-3.6611,-3.4211,-4.1589,-4.4819,-4.2506,-4.5498,-4.7113,-4.7113,-4.8783,-5.0031,-5.0802,-5.161,-5.2417,-5.3203,-5.245,-5.1741,-5.106,-5.0335,-4.9634,-4.9018,-4.9018,-4.9627,-5.0507,-5.0202,-4.9695,-4.9255,-5.0744,-5.2232,-5.3518,0.0,0.0,0.0,0.0,0.0,0.0,0.0,-3.2249,0.0,0.0,0.0,0.0,0.0,-5.3929,-5.5369,0.0,0.0,-5.2107,-5.197,-4.74,0.0,0.0,0.0,-3.9533,0.0,-3.6009,-3.399,-3.1775,-3.2339,0.0,0.0,0.0,0.0,0.0,0.0,-3.1898,0.0,0.0,0.0,0.0,0.0,-4.0341,-4.1111,0.0,0.0,-4.1609,-4.5645,-4.5718,0.0,-4.6691,-4.6948,-4.6507,-4.7553,-4.6801,-4.5443,-4.5186,-4.3571,-4.1772,0.0,0.0,-4.0524,-3.8117,0.0,0.0,0.0,0.0,0.0,0.0,0.0,0.0,0.0,-3.1739,-3.0858,-2.9244,-2.8987,-2.8987,0.0,0.0,0.0,0.0,0.0,0.0,0.0,0.0,0.0,-3.0198,-3.2228,-3.4041,-3.5385,-3.957,-4.2286,-4.3057,-4.5186,-4.6324,-4.6324,-4.7939,-4.915,-5.0014,-5.0271,-5.1116,-5.2417,-5.2154,-5.169,-5.1086,-5.085,-5.0061,-4.9052,-4.9526,-4.9932,-5.0304,-5.1048,-5.1183,-5.1048,-5.1555,-5.2469,-5.3518,-2.7943,0.0,0.0,0.0,0.0,0.0,0.0,0.0,0.0,0.0,-4.6462,0.0,-5.6226,0.0,-5.7739,0.0,-5.7027,-5.5031,-5.4054,-5.1028,0.0,-4.9201,-4.6397,0.0,0.0,0.0,-3.5921,-3.318,0.0,-3.3072,0.0,0.0,0.0,0.0,0.0,0.0,0.0,0.0,-3.5922,0.0,0.0,-4.2066,0.0,0.0,-4.1956,-4.2323,0.0,-4.5259,-4.4305,-4.6654,-4.6948,-4.6507,-4.7553,-4.7168,-4.6214,-4.5718,-4.4819,-4.3901,-4.337,-4.282,0.0,-4.0781,-3.8799,0.0,-3.6215,0.0,-3.7147,0.0,0.0,0.0,0.0,-3.2876,-3.1225,-2.9684,-2.9207,-2.8987,0.0,-2.8987,0.0,0.0,0.0,0.0,0.0,0.0,-2.8338,-2.8558,-3.0577,-3.2375,0.0,0.0,-3.8909,-3.9606,-4.2029,-4.3754,-4.4599,-4.6214,-4.7902,-4.961,-4.961,-5.0455,-5.1977,-5.1731,-5.1552,-5.1444,-5.1189,-5.0452,-4.9411,-4.9888,-4.9909,-4.983,-5.0879,-5.1589,-5.2029,-5.2401,-5.2942,-5.3518,0.0,0.0,0.0,0.0,-2.8149,0.0,0.0,0.0,-4.3178,0.0,-5.0924,-5.6201,-6.0047,-5.9072,-5.8755,-6.0289,-5.8285,-5.596,-5.3655,-5.4239,0.0,0.0,-5.0248,-4.7979,-4.4213,0.0,-3.7735,0.0,0.0,0.0,0.0,0.0,0.0,0.0,-3.2302,0.0,-3.0246,-3.1054,-3.3233,-3.6523,-4.1258,-4.1862,-4.0157,-4.245,-4.3404,-4.3625,-4.4415,-4.4691,-4.4819,-4.5626,-4.6434,-4.7113,-4.7113,-4.7113,-4.7149,-4.7149,-4.7186,-4.7223,-4.7186,-4.6012,-4.4984,-4.5663,-4.3497,0.0,0.0,0.0,-4.2854,0.0,0.0,0.0,0.0,0.0,-3.0283,-3.021,-2.95,-2.8987,-2.8987,0.0,0.0,0.0,0.0,0.0,0.0,-2.851,-2.862,-2.7897,-3.065,0.0,0.0,0.0,-3.5092,-3.2839,-3.6633,-3.9863,-4.2286,-4.3901,-4.6324,-4.9537,-4.9517,-5.0342,-5.1841,-5.1112,-5.1249,-5.1934,-5.1317,-5.0635,-4.9947,-4.9947,-4.958,-4.912,-4.9864,-5.0947,-5.2164,-5.3145,-5.3518,-5.3518,-2.7706,-2.8116,-2.8595,0.0,-3.0266,-3.2438,0.0,0.0,0.0,0.0,-5.3957,-5.8092,-6.0796,-6.1147,-6.121,-6.1068,-5.9451,0.0,0.0,0.0,0.0,-5.5304,-5.3965,-5.1361,-4.7414,-4.4221,-4.1343,-3.8753,0.0,0.0,-3.5151,0.0,0.0,0.0,0.0,0.0,-3.0246,-3.1054,-3.2228,-3.3844,-3.6927,-3.8836,0.0,0.0,-4.1919,-4.3625,-4.4415,-4.4691,-4.4819,-4.5626,-4.6434,-4.7113,-4.7113,-4.7516,-4.7993,-4.7993,-4.8453,-4.882,-4.8159,-4.7259,-4.6232,-4.5259,-4.3497,-4.1882,0.0,0.0,0.0,0.0,0.0,0.0,0.0,0.0,-3.1592,-3.0393,-2.95,-2.8987,-2.8987,0.0,0.0,-2.8987,0.0,0.0,-2.8693,-2.8338,-2.8264,-2.8656,-2.8888,0.0,0.0,0.0,0.0,-3.5312,-3.7551,-3.9863,-4.2286,-4.3901,-4.603,-4.8636,-4.8166,-4.8756,-5.0271,-4.9627,-4.9786,-5.0527,-5.0335,-4.9861,-4.9256,-4.9256,-4.9474,-4.9898,-5.0642,-5.1826,-5.3145,-5.3416,-5.3518,-5.3518,-2.9179,0.0,0.0,-3.18,0.0,0.0,-3.8653,0.0,0.0,-5.1148,-5.5581,0.0,-6.0148,-6.1535,-6.1941,-6.0858,-5.9979,0.0,-5.8597,0.0,0.0,-5.6893,-5.5991,-5.3538,-4.9284,-4.6182,0.0,-4.1,0.0,0.0,-3.5926,0.0,0.0,0.0,0.0,-3.2008,0.0,-3.1971,-3.2706,-3.3403,-3.6597,0.0,0.0,-4.1091,-4.234,-4.3551,-4.4011,-4.4195,-4.4232,-4.4709,-4.5406,-4.6049,-4.6049,-4.6599,-4.7241,-4.7241,-4.7609,-4.7939,-4.7829,-4.7443,-4.7039,-4.6874,-4.5883,-4.4892,-4.4819,-4.5186,-4.5736,0.0,-4.4085,-4.1992,0.0,0.0,0.0,-3.1641,-2.9977,-2.8987,-2.8987,0.0,0.0,0.0,-2.9941,0.0,-2.9097,-2.8583,-2.8374,-2.8473,-2.8374,0.0,0.0,0.0,0.0,-3.4614,-3.6964,-3.8982,-4.0708,-4.302,-4.4488,-4.5168,-4.5877,-4.6907,-4.8127,-4.8567,-4.9405,-5.0445,-5.0146,-4.9809,-4.9432,-4.9432,-4.9699,-5.0202,-5.1285,-5.2435,-5.3518,-5.3518,-5.3518,-5.3518,0.0,0.0,0.0,0.0,0.0,0.0,0.0,-4.4905,0.0,-5.2807,0.0,-5.9336,-5.9438,-6.1129,-6.1704,-6.0385,0.0,-5.9534,-5.8117,-5.8629,-5.8331,-5.697,-5.6752,-5.4729,-5.05,-4.7442,-4.482,0.0,-3.8293,-3.6006,0.0,0.0,0.0,0.0,0.0,0.0,0.0,-3.3109,-3.3733,0.0,-3.8212,-3.99,-4.0157,-4.2597,-4.3515,-4.3515,-4.3515,-4.3515,-4.3515,-4.3515,-4.4011,-4.4691,-4.4691,-4.5259,-4.5883,-4.5883,-4.5883,-4.6067,-4.6746,-4.7003,-4.7443,-4.8893,-4.8783,-4.8453,-4.904,-4.8746,-4.8269,-4.8159,-4.5663,-4.3515,-4.3515,0.0,0.0,0.0,-3.1115,0.0,0.0,0.0,0.0,0.0,0.0,0.0,-3.0124,-2.939,-2.8693,-2.8007,0.0,0.0,0.0,0.0,0.0,-3.2509,-3.5569,-3.7771,-3.9019,-4.1772,-4.258,-4.1425,-4.3574,-4.4996,-4.5868,-4.7724,-4.9334,-5.0656,-5.0111,-4.9861,-4.9861,-4.9861,-5.0001,-5.0371,-5.1894,-5.2875,-5.3518,-5.3518,-5.3518,-5.3518,0.0,0.0,0.0,0.0,0.0,-4.4427,-4.714,-5.223,-5.6461,-5.8457,-6.0013,-6.1129,-6.1738,-6.1603,-6.1366,-6.1129,-6.0486,0.0,0.0,0.0,0.0,-5.6846,-5.6283,-5.4752,-5.2061,-4.9012,-4.6995,-4.5948,-4.0422,-3.7666,-3.7459,0.0,0.0,0.0,0.0,0.0,-3.1507,-3.3109,0.0,-3.3243,-3.7991,-3.99,-4.0157,-4.2597,-4.3515,-4.3515,-4.3515,-4.3515,-4.3515,-4.3515,-4.4011,-4.4691,-4.4691,-4.5259,-4.5883,-4.5883,-4.5883,-4.592,-4.6067,-4.6599,-4.7186,-4.7443,-4.7939,-4.8159,-4.7626,-4.7939,-4.8122,-4.7443,-4.5296,-4.3515,-4.3515,0.0,0.0,0.0,0.0,0.0,0.0,0.0,0.0,0.0,0.0,-3.3243,-3.4871,-3.1372,0.0,0.0,0.0,0.0,0.0,0.0,0.0,0.0,-3.4454,0.0,0.0,0.0,-4.2066,-4.3094,-4.3686,-4.4073,-4.4385,-4.6758,-4.8072,-4.8489,-4.8988,-4.9199,-4.9199,-4.9199,-4.9887,-5.1183,-5.2706,-5.3382,-5.3518,-5.3518,-5.3518,-5.3518,0.0,0.0,0.0,0.0,0.0,0.0,0.0,-5.7374,0.0,-5.9607,-5.9877,-6.025,-6.0588,-6.1366,-6.1704,-6.1332,-6.0554,-5.981,-5.9066,-5.8007,-5.7021,-5.6269,-5.555,-5.411,-5.1816,-4.9233,-4.7708,-4.7295,-4.2347,-3.9237,-3.782,0.0,0.0,0.0,0.0,-3.3109,0.0,0.0,0.0,-3.7169,-3.9129,-4.065,-4.1899,-4.3074,-4.3515,-4.3515,-4.3515,-4.3515,-4.3515,-4.3515,-4.3754,-4.4085,-4.4085,-4.4342,-4.4635,-4.4635,-4.4635,-4.4745,-4.5149,-4.5883,-4.6581,-4.7003,-4.7369,-4.77,-4.77,-4.77,-4.77,-4.77,-4.6471,-4.5259,-4.4819,-4.2139,0.0,0.0,0.0,0.0,0.0,0.0,-3.1739,0.0,0.0,0.0,0.0,0.0,0.0,0.0,0.0,0.0,0.0,0.0,0.0,0.0,0.0,0.0,-3.9827,0.0,-4.2323,-4.2286,-4.3319,-4.4049,-4.453,-4.6717,-4.7963,-4.8511,-4.8849,-4.9018,-4.9052,-4.983,-5.0574,-5.132,-5.2909,-5.3518,-5.3518,-5.3518,-5.3518,-5.3518,0.0,-4.2252,0.0,0.0,-4.9357,0.0,-5.6833,-6.0385,-6.1975,-6.0216,-5.9539,-5.937,-5.9708,-6.1028,-6.167,-6.1095,-6.0452,-5.9708,-5.8829,-5.7408,-5.6325,-5.575,-5.4837,-5.345,-5.1488,-4.924,-4.7962,-4.7699,-4.3815,-4.0372,-3.7468,-3.8474,0.0,0.0,0.0,0.0,0.0,0.0,-3.7477,-4.0838,-4.0708,-4.1809,-4.3515,-4.3515,-4.3515,-4.3515,-4.3515,-4.3515,-4.3515,-4.3515,-4.3515,-4.3515,-4.3515,-4.3515,-4.3515,-4.3515,-4.3515,-4.3644,-4.4268,-4.5039,-4.581,-4.6415,-4.6709,-4.7003,-4.7645,-4.7296,-4.7003,-4.7682,-4.7149,-4.6452,-4.5993,-4.4195,0.0,0.0,0.0,0.0,0.0,0.0,-3.3573,0.0,0.0,0.0,-3.3623,0.0,0.0,0.0,0.0,0.0,-2.8987,0.0,0.0,0.0,0.0,-3.7514,-3.9203,0.0,-4.2272,-4.1441,-4.3206,-4.4214,-4.4657,-4.6916,-4.8238,-4.8781,-4.8951,-4.9018,-4.912,-5.0608,-5.1185,-5.132,-5.2909,-5.3518,-5.3518,-5.3518,-5.3518,-5.3518,0.0,0.0,0.0,0.0,0.0,0.0,-5.6055,-6.0182,-6.3328,-6.3125,-6.1298,-6.052,-6.1907,-6.1028,-6.0283,-6.0216,-6.0148,-5.9505,-5.8084,-5.663,-5.5749,-5.5681,-5.4363,-5.3179,-5.2232,-4.9894,-4.8342,0.0,0.0,-4.0542,-3.6661,-3.8782,0.0,0.0,0.0,0.0,0.0,-3.957,-4.0267,-4.0194,-4.2303,-4.3294,-4.3515,-4.3515,-4.3515,-4.3515,-4.3515,-4.3515,-4.3515,-4.3515,-4.3515,-4.3515,-4.3515,-4.3515,-4.3515,-4.3515,-4.3515,-4.3515,-4.3571,-4.4195,-4.4856,-4.4911,-4.548,-4.603,-4.6104,-4.6067,-4.603,-4.6104,-4.548,-4.5112,-4.5773,-4.5112,-4.4635,0.0,0.0,0.0,0.0,0.0,-3.678,-3.8946,0.0,0.0,-3.6193,-3.5936,0.0,0.0,-3.0344,0.0,0.0,0.0,0.0,-3.2509,0.0,-3.6303,-4.0838,-4.0451,-4.0988,-4.2494,-4.4036,-4.4223,-4.3335,-4.7015,-4.8443,-4.8041,-4.8714,-4.9018,-4.912,-5.0608,-5.1185,-5.132,-5.2909,-5.3518,-5.3518,-5.3518,-5.3518,-5.3518,0.0,0.0,0.0,0.0,0.0,0.0,0.0,-6.14,-6.2347,-6.2787,-6.167,-6.0858,-6.0994,-6.0452,-6.0114,-6.0114,-5.9708,-5.9201,-5.8592,-5.6765,-5.5681,-5.5681,-5.4296,-5.3112,-5.2334,-5.0974,-4.9827,0.0,0.0,-4.3604,-3.8554,-4.0463,-4.012,0.0,0.0,-3.8909,-3.968,-4.0194,-4.1038,-4.2156,-4.3111,-4.3515,-4.3515,-4.3515,-4.3515,-4.3515,-4.3515,-4.3515,-4.3515,-4.3515,-4.3515,-4.3515,-4.3515,-4.3515,-4.3515,-4.3515,-4.3515,-4.3515,-4.3515,-4.4085,-4.4691,-4.4691,-4.4966,-4.5296,-4.5773,-4.5516,-4.5333,-4.581,-4.5626,-4.5516,-4.5847,-4.5626,-4.4892,-4.3277,0.0,0.0,0.0,0.0,0.0,-3.7624,0.0,-3.678,-3.4321,-3.41,0.0,0.0,0.0,0.0,0.0,0.0,0.0,-3.0418,0.0,-3.4724,-3.9606,-4.0781,-4.2959,-4.6146,-4.6874,-4.6963,-4.6512,-4.7706,-4.8375,-4.8578,-4.8883,-4.9018,-4.912,-5.0608,-5.1185,-5.132,-5.2909,-5.3518,-5.3518,-5.3518,-5.3518,-5.3518,-5.5615,0.0,-5.6528,0.0,-5.8558,-5.9099,-6.2381,-6.1975,-6.1332,-6.14,-6.096,-6.0588,-6.0452,-6.0047,-5.9708,-5.9471,-5.8998,-5.849,-5.8084,-5.6359,-5.5378,-5.5378,-5.416,0.0,-5.2997,-5.223,-5.138,-5.0449,-4.9627,-4.6292,-4.0634,-4.1772,0.0,0.0,-4.0304,-4.1148,-4.247,-4.1662,-4.2433,-4.4158,-4.3698,-4.3644,-4.3828,-4.3571,-4.3515,-4.3515,-4.3515,-4.3515,-4.3515,-4.3515,-4.3515,-4.3515,-4.3515,-4.3515,-4.3515,-4.3515,-4.3515,-4.3515,-4.3515,-4.3901,-4.4342,-4.4342,-4.4342,-4.4562,-4.5369,-4.4929,-4.4525,-4.5076,-4.5186,-4.5186,-4.5186,-4.5406,-4.4819,-4.2526,0.0,0.0,0.0,-3.8579,0.0,-3.645,-3.6927,-3.5826,-3.1922,-3.2179,0.0,0.0,0.0,0.0,0.0,0.0,0.0,0.0,0.0,0.0,-3.7955,-4.0434,-4.35,-4.7178,-4.8265,-4.8722,-4.8535,-4.8345,-4.8646,-4.9323,-4.9323,-4.9323,-4.9424,-5.0913,-5.142,-5.132,-5.2909,-5.3518,-5.3518,-5.3518,-5.3518,-5.3518,-5.9607,-6.0655,-6.1467,-6.2212,-6.2922,-6.2956,-6.1535,-6.1332,-6.0757,-5.9268,-5.9032,-5.9607,-6.1129,-5.9945,-5.8727,-5.7983,-5.7915,-5.7273,-5.5817,-5.504,-5.46,0.0,0.0,-5.3815,-5.4541,-5.3723,-5.2847,-5.1982,0.0,0.0,-4.2286,0.0,-4.3975,-4.6966,-4.6966,-4.6562,-4.5773,-4.5002,-4.5112,-4.5736,-4.4121,-4.3975,-4.4599,-4.3791,-4.3515,-4.3515,-4.3515,-4.3515,-4.3515,-4.3515,-4.3515,-4.3515,-4.3515,-4.3515,-4.3515,-4.3515,-4.3515,-4.3515,-4.3515,-4.3515,-4.3497,-4.3497,-4.3497,-4.3718,-4.4525,-4.4085,-4.3515,-4.3551,-4.3551,-4.3551,-4.3551,-4.4195,-4.4691,-4.4654,0.0,0.0,0.0,-4.3901,0.0,-3.6853,-3.8395,-3.7,-2.9757,-3.1188,0.0,0.0,0.0,0.0,0.0,0.0,0.0,-3.0173,-3.021,0.0,-3.6303,-3.8793,-4.1339,-4.3978,-4.7265,-4.8472,-4.7936,-4.8646,-4.939,-5.0067,-5.0067,-5.0067,-5.0202,-5.1691,-5.186,-5.132,-5.2909,-5.3518,-5.3518,-5.3518,-5.3518,-5.3518,-5.9235,-5.9979,-6.0723,-6.1501,-6.14,-6.1231,-6.1298,-6.0419,-5.9742,-5.9742,-5.8863,-5.8626,-5.9641,-5.8863,-5.7949,0.0,-5.7137,-5.6731,0.0,-5.5006,-5.46,-5.46,-5.4388,-5.4359,-5.4572,-5.3781,-5.2945,-5.2161,0.0,0.0,0.0,-4.4195,-4.3962,-4.4099,-4.5607,-4.5899,-4.5299,-4.5443,-4.5663,-4.581,-4.4745,-4.4488,-4.4635,-4.3791,-4.3515,-4.3515,-4.3515,-4.3515,-4.3515,-4.3515,-4.3515,-4.3515,-4.3515,-4.3515,-4.3625,-4.4158,-4.3938,-4.3608,-4.4158,-4.3901,-4.3515,-4.3515,-4.3515,-4.3588,-4.3828,-4.3681,-4.3515,-4.3515,-4.3515,-4.3515,-4.3515,-4.3718,-4.3864,-4.3864,-4.3864,0.0,-4.3864,0.0,-3.9863,-3.667,-3.6964,-3.5862,-3.1849,-3.3697,0.0,0.0,0.0,0.0,0.0,0.0,0.0,0.0,-3.0723,0.0,-3.7088,-4.06,-4.3448,-4.5587,-4.8799,-4.9736,-4.868,-4.9424,-4.9864,-5.0135,-5.0642,-5.0845,-5.0947,-5.1894,-5.2164,-5.2063,-5.3112,-5.3518,-5.3518,-5.3518,-5.3518,-5.3518,-5.937,-5.9776,-6.025,-6.0757,-6.0419,-6.0182,-6.0419,-5.9641,-5.9066,-5.9235,-5.8457,-5.8084,-5.8558,-5.8186,0.0,-5.6867,-5.6562,-5.6089,-5.5344,-5.46,-5.4194,-5.4194,-5.4441,-5.4726,-5.5029,-5.4261,0.0,-5.3084,-5.1082,-4.901,-4.6918,-4.6395,-4.5662,-4.487,-4.6555,-4.6888,-4.623,-4.6321,-4.6544,-4.6691,-4.559,-4.5315,-4.5461,-4.4378,-4.3938,-4.3901,-4.3608,-4.3515,-4.3515,-4.3515,-4.3515,-4.3551,-4.3864,-4.3938,-4.4048,-4.4562,-4.4562,-4.4488,-4.5002,-4.4782,-4.4378,-4.4378,-4.4378,-4.4378,-4.4378,-4.4158,-4.3938,-4.3938,-4.3718,-4.3515,-4.3515,-4.3515,-4.3515,-4.3515,-4.3515,-4.3515,-4.3515,0.0,-3.8982,-3.6597,-3.6303,0.0,0.0,-3.5128,-3.6633,0.0,0.0,0.0,0.0,0.0,0.0,-3.333,-3.4468,-3.6413,-3.9276,-4.2777,-4.5143,-4.6363,-4.9291,-5.0114,-4.9052,-5.0067,-5.0507,-5.0541,-5.1285,-5.1623,-5.1691,-5.2435,-5.257,-5.2367,-5.3179,-5.3518,-5.3518,-5.3518,-5.3518,-5.3518,-5.981,-5.9945,-5.9945,0.0,-5.9979,0.0,-5.9099,-5.8964,-5.8693,-5.7983,-5.7848,-5.7814,-5.7814,-5.778,-5.7476,-5.6799,0.0,0.0,0.0,-5.3923,-5.3518,-5.3518,-5.42,-5.4939,-5.561,-5.4945,-5.4545,-5.4434,-5.0667,-4.8801,-4.8876,-4.8672,-4.8565,-4.8565,-4.9232,-4.9035,-4.819,-4.7497,-4.7626,-4.8159,-4.6617,-4.6434,-4.6929,-4.5351,-4.4764,-4.4709,-4.3938,-4.3625,-4.3571,-4.3662,-4.3625,-4.3718,-4.4525,-4.4819,-4.4874,-4.4874,-4.5369,-4.592,-4.5957,-4.5957,-4.5883,-4.5883,-4.5883,-4.5883,-4.5883,-4.5333,-4.4764,-4.4764,-4.4195,-4.3662,-4.3571,-4.3588,-4.3588,-4.3515,-4.3515,-4.3515,-4.3515,-4.1422,-3.9056,-3.6817,0.0,0.0,-3.339,-3.6046,-3.7676,0.0,0.0,0.0,0.0,0.0,-3.5862,-3.8799,-4.0325,-4.1535,-4.247,-4.5072,-4.6458,-4.6678,-4.9003,-4.9763,-4.9221,-5.0642,-5.1285,-5.1319,-5.2063,-5.2367,-5.2435,-5.3179,-5.3078,-5.2469,-5.3213,-5.3518,-5.3518,-5.3518,-5.3518,-5.3518,0.0,0.0,-5.8592,-5.9167,-5.8795,-5.8558,-5.8964,-5.8524,-5.8084,-5.7915,-5.7408,-5.707,-5.707,-5.6562,-5.6156,-5.5987,-5.5818,-5.5412,-5.4634,-5.3923,-5.3518,-5.3518,-5.42,-5.4665,-5.4848,-5.4691,-5.4019,-5.2828,-5.0714,-5.0002,-5.0519,-4.9841,-4.9311,-4.8802,-4.8765,-4.8379,-4.7768,-4.7951,-4.8122,-4.8233,-4.7223,-4.6929,-4.7003,-4.5993,-4.5626,-4.559,-4.5406,-4.4929,-4.4525,-4.5112,-4.4929,-4.4562,-4.5369,-4.603,-4.6526,-4.6526,-4.625,-4.603,-4.6636,-4.6361,-4.5883,-4.5883,-4.5883,-4.5883,-4.5883,-4.5736,-4.5626,-4.5626,-4.5443,-4.5149,-4.4525,-4.4415,-4.4195,-4.3625,-4.3515,-4.3515,-4.3515,-4.1422,-3.9696,0.0,-3.9056,-3.9056,-3.9077,-4.0891,-4.2763,0.0,0.0,0.0,-4.4654,-4.3113,-4.1609,-4.0581,-4.0912,-4.2086,-4.4121,-4.6076,-4.8092,-5.0028,-5.0089,-5.0304,-5.071,-5.1623,-5.2063,-5.2097,-5.2875,-5.3213,-5.3247,-5.3416,-5.3382,-5.3247,-5.345,-5.3518,-5.3518,-5.3518,-5.3518,-5.3518,-5.7881,-5.7881,-5.8017,-5.8423,-5.8152,-5.8017,-5.8457,-5.8152,-5.7881,-5.7881,-5.7273,-5.6799,-5.6799,-5.6156,-5.5681,-5.5681,-5.5412,-5.504,-5.4634,-5.3923,-5.3518,-5.3518,-5.42,-5.4757,-5.5084,-5.4437,-5.3337,-5.1801,-5.0613,-5.0362,-5.1086,-5.0661,-5.022,-4.9796,-4.9279,-4.887,-4.8496,-4.8344,-4.8306,-4.8269,-4.781,-4.7626,-4.7553,-4.6764,-4.6471,-4.6397,-4.603,-4.5626,-4.5333,-4.5736,-4.5626,-4.5406,-4.6214,-4.6746,-4.7186,-4.7553,-4.7352,-4.7095,-4.7516,-4.7352,-4.6985,-4.6985,-4.6985,-4.6985,-4.6985,-4.6728,-4.6471,-4.6471,-4.6177,-4.5663,-4.4856,-4.4691,-4.4452,-4.3625,-4.3515,-4.3515,-4.3515,-4.1422,-3.99,-3.99,-4.023,-4.0634,-4.1058,-4.3571,-4.5553,-4.6471,-4.5205,0.0,-4.7516,-4.7205,-4.6177,-4.4434,-4.548,-4.6728,-4.8012,-4.8698,-4.9607,-5.0682,-5.0626,-5.0811,-5.1251,-5.2334,-5.2638,-5.2334,-5.3145,-5.3518,-5.3518,-5.3518,-5.3518,-5.3518,-5.3518,-5.3518,-5.3518,-5.3518,-5.3518,-5.3518,-5.7881,-5.7881,-5.7881,-5.7881,-5.7881,-5.7881,-5.7881,-5.7814,-5.7712,-5.7712,-5.7002,-5.6461,-5.6461,-5.5818,-5.5378,-5.5378,-5.4803,-5.4465,-5.4566,-5.3923,-5.3518,-5.3518,-5.4106,-5.4726,-5.535,-5.4042,-5.2785,-5.1695,-5.0569,-5.0362,-5.1086,-5.0981,-5.0936,-5.089,-5.0204,-4.9829,-4.9748,-4.8854,-4.8489,-4.8489,-4.8343,-4.8306,-4.8233,-4.7553,-4.7259,-4.7186,-4.6507,-4.6177,-4.6104,-4.6214,-4.6177,-4.6214,-4.7039,-4.7259,-4.7406,-4.8122,-4.8306,-4.8306,-4.8306,-4.8306,-4.8306,-4.8306,-4.8306,-4.8306,-4.8306,-4.7773,-4.7259,-4.7259,-4.6728,-4.5993,-4.5039,-4.4892,-4.4599,-4.3662,-4.3184,-4.3074,-4.3441,0.0,-4.0084,-4.0561,-4.1222,-4.1792,-4.2159,-4.5168,-4.7003,-4.6838,-4.7865,-4.86,-4.8857,-4.9554,-4.9627,-4.8893,-5.0912,-5.1967,-5.1871,-5.1488,-5.0921,-5.027,-5.1014,-5.1454,-5.1589,-5.2909,-5.3145,-5.2536,-5.3213,-5.3518,-5.3518,-5.3518,-5.3518,-5.3518,-5.3518,-5.3518,-5.3518,-5.3518,-5.3518,-5.3518,-5.7881,-5.7881,-5.7881,-5.7881,-5.7881,-5.7881,-5.7881,-5.7374,-5.6968,-5.6968,-5.5784,-5.4938,-5.4938,-5.4296,-5.3856,-5.3856,-5.3754,-5.3923,-5.4566,-5.3923,-5.3518,-5.3518,-5.3618,-5.3717,-5.3849,-5.295,-5.2993,-5.4076,-5.1337,-5.0362,-5.1086,-5.0445,-5.0484,-5.1053,-5.0844,-5.0692,-5.0647,-4.9777,-4.939,-4.9353,-4.86,-4.8306,-4.8306,-4.8159,-4.8122,-4.8122,-4.7976,-4.7498,-4.7003,-4.7719,-4.7498,-4.7039,-4.7846,-4.8122,-4.8159,-4.8269,-4.8306,-4.8306,-4.8306,-4.8306,-4.8306,-4.8306,-4.8306,-4.8306,-4.8306,-4.8196,-4.8122,-4.8122,-4.8012,-4.7462,-4.5993,-4.57,-4.5223,-4.3735,-4.1789,-4.1148,-4.3221,0.0,-4.0891,-4.3644,-4.4067,-4.4948,-4.6966,-4.7113,-4.8177,-5.0839,-5.0051,-5.0014,-5.1353,-5.1536,-5.1573,-5.1426,-5.1793,-5.1762,-5.124,-5.1766,-5.1701,-5.1048,-5.1792,-5.2503,-5.3145,-5.3382,-5.345,-5.3315,-5.345,-5.3518,-5.3518,-5.3518,-5.3518,-5.3518,-5.3518,-5.3518,-5.3518,-5.3518,-5.3518,-5.3518,-5.7881,-5.7881,-5.7881,-5.7881,-5.7881,-5.7746,-5.7374,-5.7036,-5.6664,-5.6258,-5.5277,-5.46,-5.46,-5.3923,-5.3518,-5.3518,-5.3518,-5.3653,-5.3991,-5.3687,-5.3518,-5.3518,-5.3518,-5.3481,-5.346,-5.2731,-5.2691,-5.3294,-5.1087,-5.0554,-5.1618,-5.0929,-5.1164,-5.2183,-5.0849,-5.0719,-5.1377,-4.9638,-4.915,-4.9537,-4.8636,-4.8306,-4.8306,-4.8306,-4.8306,-4.8306,-4.8306,-4.8086,-4.7773,-4.8196,-4.803,-4.781,-4.8196,-4.8306,-4.8306,-4.8306,-4.8636,-4.8893,-4.8416,-4.8967,-4.9554,-4.9114,-4.9334,-4.9664,-4.9664,-4.9297,-4.9003,-4.9003,-4.8636,-4.7939,-4.6746,-4.6177,-4.581,-4.548,-4.3424,-4.2523,-4.4488,-4.3461,-4.3057,-4.4525,-4.5847,-4.7095,-4.8196,-4.8783,-4.9738,-5.1242,-5.0655,-5.0765,-5.194,-5.1977,-5.238,-5.3261,-5.2864,-5.2534,-5.2352,-5.2277,-5.2092,-5.1826,-5.2131,-5.2739,-5.3518,-5.3518,-5.3518,-5.3518,-5.3518,-5.3518,-5.3518,-5.3518,-5.3518,-5.3518,-5.3518,-5.3518,-5.3518,-5.3518,-5.3518,-5.3518,-5.7679,-5.778,-5.7848,-5.7679,-5.778,-5.7645,-5.69,-5.6664,-5.6292,-5.5547,-5.4803,-5.4329,-5.4329,-5.3822,-5.3518,-5.3518,-5.3518,-5.3518,-5.3518,-5.3518,-5.3518,-5.3518,-5.3518,-5.3508,-5.3406,-5.2735,-5.2345,-5.2228,-5.0718,-5.0743,-5.2089,-5.1419,-5.185,-5.313,-5.1326,-5.1151,-5.2123,-4.9848,-4.926,-4.9794,-4.8746,-4.8306,-4.8343,-4.8526,-4.8489,-4.8343,-4.8526,-4.8489,-4.8306,-4.8306,-4.8306,-4.8343,-4.8526,-4.86,-4.8636,-4.882,-4.9481,-4.9978,-4.9114,-4.9664,-5.0398,-5.0014,-5.0325,-5.0802,-5.0802,-5.0325,-4.9831,-4.9647,-4.9077,-4.8343,-4.7516,-4.6728,-4.6397,-4.7003,0.0,-4.3828,-4.5663,-4.5039,-4.4709,-4.5443,-4.7352,-4.8746,-4.9114,-5.0325,-5.1169,-5.1353,-5.1353,-5.1646,-5.2234,-5.227,-5.3004,-5.462,-5.3938,-5.3473,-5.3387,-5.2811,-5.2451,-5.23,-5.2503,-5.2909,-5.3518,-5.3518,-5.3518,-5.3518,-5.3518,-5.3518,-5.3518,-5.3518,-5.3518,-5.3518,-5.3518,-5.3518,-5.3518,-5.3518,-5.3518,-5.3518,-5.7036,-5.7408,-5.7679,-5.7002,-5.7442,-5.7645,-5.69,-5.6224,-5.5547,-5.4769,-5.4025,-5.3585,-5.3585,-5.3551,-5.3518,-5.3518,-5.3518,-5.3518,-5.3518,-5.3518,-5.3518,-5.3518,-5.3518,-5.3474,-5.3498,-5.2735,-5.2317,-5.2281,-5.0746,-5.0743,-5.2089,-5.1419,-5.185,-5.3167,-5.3014,-5.3036,-5.3004,-5.1353,-5.0655,-5.0582,-4.8967,-4.8306,-4.8379,-4.9187,-4.9003,-4.8416,-4.9206,-4.8967,-4.8306,-4.8306,-4.8306,-4.8453,-4.9243,-4.95,-4.9647,-5.0398,-5.1169,-5.1646,-5.0839,-5.0141,-4.9867,-5.0545,-5.0765,-5.0802,-5.0802,-5.0765,-5.0508,-4.9757,-4.9537,-4.9243,-4.8379,-4.7553,-4.7039,-4.7076,0.0,0.0,-4.5553,-4.4562,-4.4672,-4.7682,-4.8857,-5.0031,-5.1573,-5.183,-5.2234,-5.2968,-5.3041,-5.3078,-5.3115,-5.3115,-5.3849,-5.5486,-5.4773,-5.4072,-5.3387,-5.334,-5.3001,-5.23,-5.3078,-5.345,-5.3518,-5.3518,-5.3518,-5.3518,-5.3518,-5.3518,-5.3518,-5.3518,-5.3518,-5.3518,-5.3518,-5.3518,-5.3518,-5.3518,-5.3518,-5.3518,-5.6765,-5.6664,-5.6596,-5.6765,-5.7036,-5.6799,-5.5615,-5.5581,-5.5277,-5.4059,-5.3687,-5.3518,-5.3518,-5.3518,-5.3518,-5.3518,-5.3518,-5.3518,-5.3518,-5.3518,-5.3518,-5.3518,-5.3518,-5.327,-5.2775,-5.2011,-5.1344,-5.0872,-4.986,-4.9896,-5.0761,-5.0527,-5.0955,-5.1898,-5.1371,-5.1656,-5.2422,-5.0802,-5.0362,-5.0729,-5.0105,-4.9554,-4.9114,-4.9463,-4.9701,-4.9774,-4.904,-4.926,-4.9701,-4.8673,-4.8693,-4.9231,-4.9492,-4.9626,-4.9907,-5.1177,-5.1389,-5.1307,-5.153,-5.1703,-5.1793,-5.1573,-5.1903,-5.2307,-5.2307,-5.1903,-5.1463,-5.1153,-5.0692,-5.0251,-4.9921,-4.915,-4.893,-4.9958,0.0,-4.6691,-4.8673,-4.7976,-4.7738,-4.8967,-5.0251,-5.1279,-5.194,-5.2454,-5.2858,-5.3167,-5.3665,-5.3959,-5.3959,-5.4913,-5.5721,-5.6308,-5.6116,-5.5613,-5.4839,-5.3929,-5.3308,-5.3044,-5.3348,-5.3518,-5.3518,-5.3518,-5.3518,-5.3518,-5.3518,-5.3518,-5.3518,-5.3518,-5.3518,-5.3518,-5.3518,-5.3518,-5.3518,-5.3518,-5.3518,-5.3518,-5.6089,-5.5886,-5.5818,-5.6055,-5.6292,-5.6122,-5.5108,-5.5175,-5.5006,-5.3991,-5.3653,-5.3518,-5.3518,-5.3518,-5.3518,-5.3518,-5.3518,-5.3518,-5.3518,-5.3518,-5.3518,-5.3518,-5.3518,-5.3003,-5.1966,-5.1471,-5.0691,-4.9693,-4.9226,-4.9346,-5.0004,-5.0004,-5.039,-5.1086,-5.0529,-5.0819,-5.1694,-5.0342,-5.0186,-5.0827,-5.0571,-5.0273,-4.9994,-5.0271,-5.0545,-5.0692,-4.9774,-4.9874,-5.0279,-4.9127,-4.9039,-4.9444,-4.9619,-4.9897,-5.0412,-5.1639,-5.163,-5.1405,-5.2241,-5.2813,-5.3014,-5.2242,-5.2621,-5.3203,-5.3203,-5.2784,-5.2229,-5.1746,-5.1412,-5.1108,-5.0848,-5.035,-5.0362,-5.1756,-5.0362,-4.9481,-5.0655,-5.0545,-5.0345,-5.0345,-5.1536,-5.238,-5.238,-5.3115,-5.3592,-5.3592,-5.4326,-5.4766,-5.4766,-5.6051,-5.6822,-5.6822,-5.6878,-5.6642,-5.6059,-5.4575,-5.3848,-5.3815,-5.3618,-5.3518,-5.3518,-5.3518,-5.3518,-5.3518,-5.3518,-5.3518,-5.3518,-5.3518,-5.3518,-5.3518,-5.3518,-5.3518,-5.3551,-5.3754,-5.3856,-5.3856,-5.4871,-5.5209,-5.548,-5.4735,-5.5209,-5.5681,-5.5681,-5.5074,-5.46,-5.46,-5.3957,-5.3518,-5.3518,-5.3518,-5.3518,-5.3518,-5.3518,-5.3518,-5.3518,-5.3484,-5.3484,-5.3518,-5.3518,-5.2773,-5.1251,-5.1185,-5.0507,-4.9018,-4.9018,-4.9346,-5.0004,-5.0004,-5.0362,-5.1086,-5.1086,-5.1086,-5.1051,-5.022,-5.0278,-5.0839,-5.0046,-5.017,-5.0912,-5.1683,-5.1499,-5.0912,-5.172,-5.1012,-4.9722,-4.9686,-4.9269,-4.8851,-4.9629,-5.0458,-5.1241,-5.1922,-5.2112,-5.2289,-5.298,-5.3203,-5.3039,-5.2289,-5.2644,-5.3203,-5.3167,-5.3203,-5.2761,-5.1239,-5.1522,-5.181,-5.1049,-5.0845,-5.1096,-5.1867,-5.1353,-5.0839,-5.0839,-5.1499,-5.2013,-5.2013,-5.2711,-5.3203,-5.3203,-5.3922,-5.4399,-5.4399,-5.5133,-5.5633,-5.5611,-5.6381,-5.6822,-5.6822,-5.6866,-5.6912,-5.6912,-5.5385,-5.4606,-5.4606,-5.3848,-5.3518,-5.3518,-5.3518,-5.3518,-5.3518,-5.3518,-5.3518,-5.3518,-5.3518,-5.3518,-5.3518,-5.3518,-5.3518,-5.3585,-5.4329,-5.46,-5.46,-5.4668,-5.4769,-5.4871,-5.4634,-5.5649,-5.6122,-5.5074,-5.5175,-5.5209,-5.4668,-5.3957,-5.3518,-5.3518,-5.3518,-5.3518,-5.3518,-5.3518,-5.3518,-5.3518,-5.2976,-5.2909,-5.3484,-5.3518,-5.301,-5.1995,-5.1488,-5.0744,-4.9763,-4.9255,-4.9107,-4.9316,-4.9316,-4.9436,-4.9639,-4.9639,-4.9896,-5.0307,-5.0063,-5.0336,-5.0935,-5.1259,-5.15,-5.1683,-5.1903,-5.2197,-5.238,-5.1463,-5.1267,-5.1223,-5.0082,-4.9668,-4.9652,-4.9896,-5.0487,-5.1138,-5.1343,-5.1716,-5.2042,-5.1801,-5.2862,-5.3734,-5.2457,-5.2644,-5.3082,-5.2554,-5.2813,-5.3051,-5.2586,-5.2694,-5.2758,-5.255,-5.2511,-5.2564,-5.2821,-5.2637,-5.2674,-5.3261,-5.3041,-5.3041,-5.3628,-5.3408,-5.3445,-5.3995,-5.4252,-5.462,-5.5207,-5.5978,-5.6675,-5.7262,-5.7519,-5.7629,-5.7629,-5.7664,-5.7679,-5.7679,-5.561,-5.4606,-5.4606,-5.3848,-5.3783,-5.4264,-5.4264,-5.4264,-5.4296,-5.4485,-5.4139,-5.3518,-5.3518,-5.3518,-5.3518,-5.3518,-5.3518,-5.3585,-5.4329,-5.46,-5.46,-5.504,-5.504,-5.504,-5.504,-5.5784,-5.6055,-5.5175,-5.5412,-5.5547,-5.5108,-5.4397,-5.3923,-5.3923,-5.3687,-5.3518,-5.3518,-5.3518,-5.3518,-5.3518,-5.3044,-5.2976,-5.3484,-5.3518,-5.3112,-5.2334,-5.1589,-5.0845,-5.0101,-4.9357,-4.9018,-4.9018,-4.9018,-4.9018,-4.9018,-4.9018,-4.9226,-4.9576,-4.9576,-4.998,-5.0616,-5.1379,-5.1682,-5.1692,-5.1952,-5.2177,-5.2226,-5.1285,-5.1084,-5.1175,-5.0461,-5.0364,-5.0397,-5.014,-5.0581,-5.1242,-5.1847,-5.208,-5.2229,-5.2761,-5.3608,-5.4195,-5.3289,-5.3372,-5.3478,-5.2723,-5.314,-5.3711,-5.3726,-5.3954,-5.4078,-5.3799,-5.399,-5.4142,-5.4142,-5.4142,-5.4326,-5.4803,-5.4179,-5.3849,-5.4326,-5.3959,-5.3885,-5.4363,-5.4987,-5.5684,-5.6492,-5.7005,-5.7483,-5.796,-5.7997,-5.7997,-5.7997,-5.7997,-5.7997,-5.7997,-5.634,-5.553,-5.5501,-5.473,-5.4451,-5.4637,-5.4909,-5.4695,-5.4203,-5.4761,-5.4422,-5.3518,-5.3518,-5.3518,-5.3518,-5.3518,-5.3518,-5.3585,-5.4329,-5.46,-5.46,-5.558,-5.5615,-5.5546,-5.5478,-5.558,-5.5647,-5.5615,-5.5615,-5.5615,-5.5615,-5.4972,-5.4499,-5.4499,-5.389,-5.3518,-5.3518,-5.3518,-5.3518,-5.3518,-5.345,-5.3416,-5.3518,-5.345,-5.3078,-5.2435,-5.1691,-5.098,-5.0304,-4.956,-4.9154,-4.9086,-4.9187,-4.9154,-4.9086,-4.9086,-4.9086,-4.9086,-4.9052,-4.9406,-5.0061,-5.0743,-5.1034,-5.1164,-5.1838,-5.1703,-5.1218,-5.1276,-5.0805,-5.0272,-5.0832,-5.108,-5.1065,-5.0441,-5.0764,-5.1688,-5.3001,-5.2954,-5.288,-5.4957,-5.5053,-5.4598,-5.4617,-5.4596,-5.4393,-5.3579,-5.3977,-5.4539,-5.4665,-5.5176,-5.5418,-5.4786,-5.5199,-5.5596,-5.5596,-5.5596,-5.5633,-5.5684,-5.5023,-5.4546,-5.462,-5.4546,-5.4546,-5.462,-5.6014,-5.7226,-5.7923,-5.795,-5.795,-5.7997,-5.795,-5.795,-5.7997,-5.7997,-5.7997,-5.7997,-5.7351,-5.6964,-5.6887,-5.6004,-5.5291,-5.4726,-5.532,-5.4878,-5.3718,-5.4637,-5.4485,-5.3518,-5.3518,-5.3518,-5.3518,-5.3518,-5.3518,-5.3585,-5.4262,-5.4532,-5.46,-5.4938,-5.4837,-5.4668,-5.4093,-5.4938,-5.5513,-5.4938,-5.4837,-5.4837,-5.4837,-5.4194,-5.3754,-5.3754,-5.3585,-5.3518,-5.3518,-5.3518,-5.3518,-5.3518,-5.2909,-5.2841,-5.3484,-5.2909,-5.2773,-5.3247,-5.2469,-5.1995,-5.1826,-5.1082,-5.0439,-4.9864,-5.0473,-5.0405,-4.9864,-4.9864,-4.9864,-4.983,-4.9255,-4.9406,-5.0004,-5.0174,-5.0581,-5.1164,-5.1838,-5.2036,-5.2041,-5.2565,-5.2293,-5.1552,-5.0572,-5.0695,-5.124,-5.1065,-5.1929,-5.3064,-5.336,-5.3768,-5.419,-5.4665,-5.5527,-5.6026,-5.487,-5.5434,-5.593,-5.4617,-5.4838,-5.5368,-5.5381,-5.5507,-5.5552,-5.5418,-5.5507,-5.5596,-5.5596,-5.5596,-5.5794,-5.6455,-5.5831,-5.5574,-5.6198,-5.5721,-5.5574,-5.6235,-5.7152,-5.7813,-5.7997,-5.7449,-5.7401,-5.7973,-5.7449,-5.7401,-5.7973,-5.7997,-5.7997,-5.7997,-5.7821,-5.7474,-5.6887,-5.5501,-5.5054,-5.5466,-5.5024,-5.4757,-5.4699,-5.5291,-5.4791,-5.3518,-5.3518,-5.3518,-5.3518,-5.3518,-5.3518,-5.3518,-5.3687,-5.4093,-5.4668,-5.5141,-5.5412,-5.5412,-5.4702,-5.548,-5.5852,-5.4769,-5.4905,-5.5006,-5.4634,-5.4262,-5.4025,-5.4025,-5.3721,-5.3518,-5.3518,-5.3518,-5.3518,-5.3518,-5.3112,-5.3078,-5.3484,-5.3112,-5.3078,-5.3484,-5.3078,-5.2672,-5.23,-5.1589,-5.1204,-5.1199,-5.1206,-5.139,-5.1731,-5.1348,-5.1172,-5.1113,-5.0732,-5.0578,-5.0589,-5.1291,-5.1378,-5.1286,-5.2745,-5.2886,-5.2403,-5.3093,-5.3073,-5.2549,-5.1473,-5.186,-5.281,-5.286,-5.3633,-5.463,-5.5018,-5.5107,-5.5315,-5.6031,-5.652,-5.6717,-5.6343,-5.6776,-5.6992,-5.5522,-5.5676,-5.6271,-5.6675,-5.6748,-5.6748,-5.6748,-5.6748,-5.6748,-5.6748,-5.6748,-5.6895,-5.7299,-5.6387,-5.5952,-5.6703,-5.6131,-5.6098,-5.7276,-5.774,-5.7844,-5.7498,-5.7116,-5.6876,-5.6891,-5.6527,-5.6695,-5.7449,-5.7474,-5.7655,-5.7997,-5.7997,-5.7797,-5.7401,-5.6259,-5.5695,-5.5695,-5.5291,-5.4818,-5.4362,-5.5291,-5.4848,-5.3518,-5.3518,-5.3518,-5.3518,-5.3518,-5.3518,-5.3518,-5.3518,-5.3754,-5.4228,-5.5412,-5.5919,-5.6055,-5.5446,-5.5852,-5.5818,-5.46,-5.4938,-5.5108,-5.4499,-5.4397,-5.4397,-5.4397,-5.3856,-5.3518,-5.3518,-5.3518,-5.3518,-5.3518,-5.3518,-5.3518,-5.3518,-5.3518,-5.3518,-5.3518,-5.3518,-5.3179,-5.2503,-5.1894,-5.1936,-5.2557,-5.1904,-5.2272,-5.3462,-5.27,-5.241,-5.2482,-5.2376,-5.1997,-5.1625,-5.2852,-5.2616,-5.18,-5.3816,-5.3824,-5.2869,-5.3593,-5.3702,-5.3435,-5.2886,-5.3611,-5.473,-5.4786,-5.5391,-5.6223,-5.6876,-5.662,-5.6382,-5.7637,-5.7519,-5.7189,-5.7813,-5.7997,-5.7697,-5.643,-5.6622,-5.7189,-5.785,-5.7997,-5.7997,-5.7997,-5.7997,-5.7997,-5.7997,-5.7997,-5.7973,-5.7821,-5.6721,-5.6138,-5.6739,-5.6261,-5.6367,-5.7497,-5.7594,-5.734,-5.6721,-5.6589,-5.6259,-5.5752,-5.5581,-5.5865,-5.6668,-5.6695,-5.7065,-5.7797,-5.7703,-5.7703,-5.7797,-5.6938,-5.6232,-5.5695,-5.5437,-5.4668,-5.3551,-5.4787,-5.4637,-5.3518,-5.3518,-5.3518,-5.3518,-5.3518,-5.3518,-5.3518,-5.3518,-5.3619,-5.3923,-5.4735,-5.4329,-5.3923,-5.3822,-5.389,-5.389,-5.3687,-5.3754,-5.3754,-5.3653,-5.3653,-5.3653,-5.3653,-5.3551,-5.3518,-5.3518,-5.3518,-5.3518,-5.3518,-5.3518,-5.3518,-5.3518,-5.3518,-5.3518,-5.3518,-5.3518,-5.345,-5.3348,-5.3247,-5.3267,-5.3324,-5.3236,-5.3297,-5.3475,-5.2677,-5.2672,-5.3296,-5.2665,-5.2684,-5.3185,-5.3398,-5.3353,-5.3308,-5.4245,-5.4496,-5.439,-5.5075,-5.4927,-5.4411,-5.4337,-5.4866,-5.5627,-5.5635,-5.6563,-5.7726,-5.7821,-5.7771,-5.7757,-5.7937,-5.7923,-5.785,-5.796,-5.7997,-5.7937,-5.7757,-5.7767,-5.7886,-5.796,-5.7997,-5.7997,-5.7997,-5.7997,-5.7997,-5.7997,-5.7997,-5.7774,-5.7116,-5.6855,-5.6757,-5.687,-5.6819,-5.6561,-5.6059,-5.6031,-5.5976,-5.5865,-5.5262,-5.5114,-5.5695,-5.5084,-5.5084,-5.5836,-5.5865,-5.6259,-5.704,-5.6367,-5.6367,-5.7015,-5.5616,-5.5173,-5.5667,-5.4391,-5.3718,-5.3518,-5.3684,-5.3651,-5.3518,-5.3518,-5.3518,-5.3518,-5.3518,-5.3518,-5.3518,-5.3518,-5.4025,-5.4803,-5.3991,-5.4397,-5.4465,-5.3653,-5.4194,-5.4465,-5.3619,-5.3518,-5.3518,-5.3518,-5.3518,-5.3518,-5.3518,-5.3518,-5.3518,-5.3518,-5.3518,-5.3518,-5.3518,-5.3518,-5.3518,-5.3518,-5.3518,-5.3518,-5.3518,-5.3518,-5.3518,-5.3518,-5.3518,-5.371,-5.4121,-5.3679,-5.419,-5.5347,-5.4117,-5.4231,-5.5291,-5.4563,-5.4434,-5.4701,-5.5172,-5.5105,-5.485,-5.6067,-5.6258,-5.5917,-5.6171,-5.6077,-5.5809,-5.5809,-5.6064,-5.6452,-5.689,-5.7457,-5.7997,-5.7997,-5.7997,-5.7997,-5.7997,-5.7997,-5.7997,-5.7997,-5.7997,-5.7997,-5.7997,-5.7997,-5.7997,-5.7997,-5.7997,-5.7997,-5.7997,-5.7997,-5.7997,-5.7997,-5.7997,-5.7904,-5.7546,-5.7141,-5.6721,-5.6286,-5.6616,-5.6589,-5.578,-5.6113,-5.6194,-5.5749,-5.58,-5.5617,-5.5107,-5.4789,-5.4741,-5.5089,-5.5084,-5.5437,-5.6232,-5.5893,-5.5893,-5.6232,-5.5539,-5.5174,-5.5059,-5.4422,-5.4194,-5.4296,-5.4296,-5.3991,-5.3518,-5.3518,-5.3518,-5.3518,-5.3518,-5.3518,-5.3518,-5.3518,-5.3754,-5.4262]}]]